<?xml version="1.0" encoding="UTF-8" standalone="no" ?>
<gpx xmlns="http://www.topografix.com/GPX/1/1" xmlns:xsi="http://www.w3.org/2001/XMLSchema-instance" xsi:schemaLocation="http://www.topografix.com/GPX/1/1 http://www.topografix.com/GPX/1/1/gpx.xsd" version="1.1" creator="VisuGPX - https://www.visugpx.com">
  <metadata>
    <name>échappée jurassienne étape 8 Villard sur L'Ain/Ilay</name>
    <desc><![CDATA[Au départ de Villard, je reste en dehors du GR559,  je reste à droite du Lac Chalain, et rejoins le GR au bout du lacpour gagner le belvédère au dessus du domaine du lac. Quelques difficultées pour comprendre le balisage au niveaux de la D90, et direction Songeson, sans problème vers Ménetroux-en-joux, et la descente vers le Hérisson et ses cascades gorgées d'eau (il pleut tous les jours) magnifique jusque la dernière. Puis je rejoins l'auberge du hérisson. ]]></desc>
  </metadata>
  <trk>
    <name><![CDATA[Jura J Villard de L'Ain/Ilay 10-JUIN-16 03:40:16 PM]]></name>
    <trkseg>
      <trkpt lat="46.66726" lon="5.75875">
        <ele>528.86</ele>
        <time>2016-06-10T06:39:09Z</time>
      </trkpt>
      <trkpt lat="46.66728" lon="5.75876">
        <ele>530.79</ele>
        <time>2016-06-10T06:39:20Z</time>
      </trkpt>
      <trkpt lat="46.6673" lon="5.75881">
        <ele>530.79</ele>
        <time>2016-06-10T06:39:24Z</time>
      </trkpt>
      <trkpt lat="46.66744" lon="5.75901">
        <ele>529.34</ele>
        <time>2016-06-10T06:39:41Z</time>
      </trkpt>
      <trkpt lat="46.66747" lon="5.75902">
        <ele>529.34</ele>
        <time>2016-06-10T06:39:43Z</time>
      </trkpt>
      <trkpt lat="46.66753" lon="5.75913">
        <ele>528.38</ele>
        <time>2016-06-10T06:39:55Z</time>
      </trkpt>
      <trkpt lat="46.66756" lon="5.75914">
        <ele>527.9</ele>
        <time>2016-06-10T06:39:57Z</time>
      </trkpt>
      <trkpt lat="46.66768" lon="5.75931">
        <ele>526.94</ele>
        <time>2016-06-10T06:40:12Z</time>
      </trkpt>
      <trkpt lat="46.66768" lon="5.75949">
        <ele>525.98</ele>
        <time>2016-06-10T06:40:23Z</time>
      </trkpt>
      <trkpt lat="46.66766" lon="5.75963">
        <ele>525.5</ele>
        <time>2016-06-10T06:40:32Z</time>
      </trkpt>
      <trkpt lat="46.66762" lon="5.75979">
        <ele>524.06</ele>
        <time>2016-06-10T06:40:42Z</time>
      </trkpt>
      <trkpt lat="46.6676" lon="5.76004">
        <ele>523.09</ele>
        <time>2016-06-10T06:40:58Z</time>
      </trkpt>
      <trkpt lat="46.66757" lon="5.7603">
        <ele>522.61</ele>
        <time>2016-06-10T06:41:15Z</time>
      </trkpt>
      <trkpt lat="46.66755" lon="5.7605">
        <ele>521.65</ele>
        <time>2016-06-10T06:41:29Z</time>
      </trkpt>
      <trkpt lat="46.66754" lon="5.76071">
        <ele>521.17</ele>
        <time>2016-06-10T06:41:42Z</time>
      </trkpt>
      <trkpt lat="46.66752" lon="5.76099">
        <ele>522.13</ele>
        <time>2016-06-10T06:41:57Z</time>
      </trkpt>
      <trkpt lat="46.6675" lon="5.76111">
        <ele>523.09</ele>
        <time>2016-06-10T06:42:04Z</time>
      </trkpt>
      <trkpt lat="46.66749" lon="5.76116">
        <ele>522.61</ele>
        <time>2016-06-10T06:42:07Z</time>
      </trkpt>
      <trkpt lat="46.66747" lon="5.76139">
        <ele>522.61</ele>
        <time>2016-06-10T06:42:22Z</time>
      </trkpt>
      <trkpt lat="46.66747" lon="5.76141">
        <ele>522.61</ele>
        <time>2016-06-10T06:42:23Z</time>
      </trkpt>
      <trkpt lat="46.66744" lon="5.76158">
        <ele>522.61</ele>
        <time>2016-06-10T06:42:32Z</time>
      </trkpt>
      <trkpt lat="46.66744" lon="5.76167">
        <ele>522.61</ele>
        <time>2016-06-10T06:42:37Z</time>
      </trkpt>
      <trkpt lat="46.66743" lon="5.7617">
        <ele>522.61</ele>
        <time>2016-06-10T06:42:39Z</time>
      </trkpt>
      <trkpt lat="46.66743" lon="5.76177">
        <ele>521.65</ele>
        <time>2016-06-10T06:42:44Z</time>
      </trkpt>
      <trkpt lat="46.66741" lon="5.76183">
        <ele>522.13</ele>
        <time>2016-06-10T06:42:49Z</time>
      </trkpt>
      <trkpt lat="46.66736" lon="5.76204">
        <ele>522.61</ele>
        <time>2016-06-10T06:43:02Z</time>
      </trkpt>
      <trkpt lat="46.66733" lon="5.76226">
        <ele>521.65</ele>
        <time>2016-06-10T06:43:15Z</time>
      </trkpt>
      <trkpt lat="46.6673" lon="5.76252">
        <ele>522.61</ele>
        <time>2016-06-10T06:43:29Z</time>
      </trkpt>
      <trkpt lat="46.66729" lon="5.76259">
        <ele>521.65</ele>
        <time>2016-06-10T06:43:33Z</time>
      </trkpt>
      <trkpt lat="46.66728" lon="5.76276">
        <ele>518.77</ele>
        <time>2016-06-10T06:43:45Z</time>
      </trkpt>
      <trkpt lat="46.66727" lon="5.76288">
        <ele>517.33</ele>
        <time>2016-06-10T06:43:53Z</time>
      </trkpt>
      <trkpt lat="46.66726" lon="5.76294">
        <ele>516.37</ele>
        <time>2016-06-10T06:43:57Z</time>
      </trkpt>
      <trkpt lat="46.66723" lon="5.76321">
        <ele>514.92</ele>
        <time>2016-06-10T06:44:13Z</time>
      </trkpt>
      <trkpt lat="46.6672" lon="5.76337">
        <ele>513</ele>
        <time>2016-06-10T06:44:27Z</time>
      </trkpt>
      <trkpt lat="46.66718" lon="5.76363">
        <ele>511.08</ele>
        <time>2016-06-10T06:44:41Z</time>
      </trkpt>
      <trkpt lat="46.66718" lon="5.7637">
        <ele>510.12</ele>
        <time>2016-06-10T06:44:46Z</time>
      </trkpt>
      <trkpt lat="46.66716" lon="5.76403">
        <ele>509.16</ele>
        <time>2016-06-10T06:45:03Z</time>
      </trkpt>
      <trkpt lat="46.66716" lon="5.76406">
        <ele>508.67</ele>
        <time>2016-06-10T06:45:05Z</time>
      </trkpt>
      <trkpt lat="46.66714" lon="5.76417">
        <ele>508.67</ele>
        <time>2016-06-10T06:45:11Z</time>
      </trkpt>
      <trkpt lat="46.66712" lon="5.76437">
        <ele>506.27</ele>
        <time>2016-06-10T06:45:24Z</time>
      </trkpt>
      <trkpt lat="46.6671" lon="5.76456">
        <ele>505.79</ele>
        <time>2016-06-10T06:45:35Z</time>
      </trkpt>
      <trkpt lat="46.66707" lon="5.76481">
        <ele>506.27</ele>
        <time>2016-06-10T06:45:50Z</time>
      </trkpt>
      <trkpt lat="46.66703" lon="5.76509">
        <ele>506.75</ele>
        <time>2016-06-10T06:46:06Z</time>
      </trkpt>
      <trkpt lat="46.66703" lon="5.76511">
        <ele>506.75</ele>
        <time>2016-06-10T06:46:07Z</time>
      </trkpt>
      <trkpt lat="46.667" lon="5.7654">
        <ele>506.27</ele>
        <time>2016-06-10T06:46:24Z</time>
      </trkpt>
      <trkpt lat="46.66696" lon="5.76568">
        <ele>504.83</ele>
        <time>2016-06-10T06:46:40Z</time>
      </trkpt>
      <trkpt lat="46.66694" lon="5.76594">
        <ele>504.83</ele>
        <time>2016-06-10T06:46:56Z</time>
      </trkpt>
      <trkpt lat="46.66691" lon="5.76617">
        <ele>505.79</ele>
        <time>2016-06-10T06:47:09Z</time>
      </trkpt>
      <trkpt lat="46.66689" lon="5.76627">
        <ele>506.27</ele>
        <time>2016-06-10T06:47:14Z</time>
      </trkpt>
      <trkpt lat="46.6669" lon="5.76636">
        <ele>506.75</ele>
        <time>2016-06-10T06:47:19Z</time>
      </trkpt>
      <trkpt lat="46.66689" lon="5.76645">
        <ele>506.75</ele>
        <time>2016-06-10T06:47:24Z</time>
      </trkpt>
      <trkpt lat="46.66689" lon="5.76665">
        <ele>507.23</ele>
        <time>2016-06-10T06:47:36Z</time>
      </trkpt>
      <trkpt lat="46.66686" lon="5.7669">
        <ele>505.79</ele>
        <time>2016-06-10T06:47:51Z</time>
      </trkpt>
      <trkpt lat="46.66687" lon="5.76721">
        <ele>503.87</ele>
        <time>2016-06-10T06:48:09Z</time>
      </trkpt>
      <trkpt lat="46.66694" lon="5.76729">
        <ele>503.39</ele>
        <time>2016-06-10T06:48:16Z</time>
      </trkpt>
      <trkpt lat="46.66706" lon="5.76734">
        <ele>502.91</ele>
        <time>2016-06-10T06:48:27Z</time>
      </trkpt>
      <trkpt lat="46.66717" lon="5.76734">
        <ele>503.87</ele>
        <time>2016-06-10T06:48:40Z</time>
      </trkpt>
      <trkpt lat="46.66734" lon="5.76735">
        <ele>505.79</ele>
        <time>2016-06-10T06:48:56Z</time>
      </trkpt>
      <trkpt lat="46.6675" lon="5.76741">
        <ele>507.23</ele>
        <time>2016-06-10T06:49:09Z</time>
      </trkpt>
      <trkpt lat="46.66766" lon="5.76747">
        <ele>507.23</ele>
        <time>2016-06-10T06:49:23Z</time>
      </trkpt>
      <trkpt lat="46.6678" lon="5.76754">
        <ele>505.79</ele>
        <time>2016-06-10T06:49:34Z</time>
      </trkpt>
      <trkpt lat="46.66798" lon="5.76762">
        <ele>505.31</ele>
        <time>2016-06-10T06:49:48Z</time>
      </trkpt>
      <trkpt lat="46.66813" lon="5.76769">
        <ele>503.39</ele>
        <time>2016-06-10T06:50:01Z</time>
      </trkpt>
      <trkpt lat="46.66828" lon="5.76787">
        <ele>502.91</ele>
        <time>2016-06-10T06:50:16Z</time>
      </trkpt>
      <trkpt lat="46.66828" lon="5.76796">
        <ele>502.91</ele>
        <time>2016-06-10T06:50:21Z</time>
      </trkpt>
      <trkpt lat="46.66829" lon="5.76807">
        <ele>501.95</ele>
        <time>2016-06-10T06:50:28Z</time>
      </trkpt>
      <trkpt lat="46.66831" lon="5.76821">
        <ele>498.58</ele>
        <time>2016-06-10T06:50:39Z</time>
      </trkpt>
      <trkpt lat="46.6683" lon="5.76841">
        <ele>499.06</ele>
        <time>2016-06-10T06:50:49Z</time>
      </trkpt>
      <trkpt lat="46.6683" lon="5.76858">
        <ele>497.14</ele>
        <time>2016-06-10T06:50:58Z</time>
      </trkpt>
      <trkpt lat="46.66833" lon="5.7689">
        <ele>495.7</ele>
        <time>2016-06-10T06:51:17Z</time>
      </trkpt>
      <trkpt lat="46.66833" lon="5.769">
        <ele>495.7</ele>
        <time>2016-06-10T06:51:23Z</time>
      </trkpt>
      <trkpt lat="46.66834" lon="5.76909">
        <ele>496.18</ele>
        <time>2016-06-10T06:51:29Z</time>
      </trkpt>
      <trkpt lat="46.66833" lon="5.7692">
        <ele>496.66</ele>
        <time>2016-06-10T06:51:35Z</time>
      </trkpt>
      <trkpt lat="46.66832" lon="5.76954">
        <ele>497.62</ele>
        <time>2016-06-10T06:51:52Z</time>
      </trkpt>
      <trkpt lat="46.66833" lon="5.7698">
        <ele>497.14</ele>
        <time>2016-06-10T06:52:07Z</time>
      </trkpt>
      <trkpt lat="46.66833" lon="5.76987">
        <ele>496.66</ele>
        <time>2016-06-10T06:52:11Z</time>
      </trkpt>
      <trkpt lat="46.66833" lon="5.77012">
        <ele>496.18</ele>
        <time>2016-06-10T06:52:25Z</time>
      </trkpt>
      <trkpt lat="46.6683" lon="5.77017">
        <ele>495.7</ele>
        <time>2016-06-10T06:52:29Z</time>
      </trkpt>
      <trkpt lat="46.66818" lon="5.7702">
        <ele>496.66</ele>
        <time>2016-06-10T06:52:39Z</time>
      </trkpt>
      <trkpt lat="46.66801" lon="5.77022">
        <ele>499.06</ele>
        <time>2016-06-10T06:52:53Z</time>
      </trkpt>
      <trkpt lat="46.66782" lon="5.7702">
        <ele>500.5</ele>
        <time>2016-06-10T06:53:08Z</time>
      </trkpt>
      <trkpt lat="46.6678" lon="5.7702">
        <ele>500.98</ele>
        <time>2016-06-10T06:53:10Z</time>
      </trkpt>
      <trkpt lat="46.66764" lon="5.77018">
        <ele>501.95</ele>
        <time>2016-06-10T06:53:23Z</time>
      </trkpt>
      <trkpt lat="46.66755" lon="5.77017">
        <ele>502.43</ele>
        <time>2016-06-10T06:53:31Z</time>
      </trkpt>
      <trkpt lat="46.66751" lon="5.77016">
        <ele>501.95</ele>
        <time>2016-06-10T06:53:35Z</time>
      </trkpt>
      <trkpt lat="46.66733" lon="5.77014">
        <ele>502.43</ele>
        <time>2016-06-10T06:53:50Z</time>
      </trkpt>
      <trkpt lat="46.66727" lon="5.77016">
        <ele>502.43</ele>
        <time>2016-06-10T06:53:56Z</time>
      </trkpt>
      <trkpt lat="46.66722" lon="5.77017">
        <ele>500.98</ele>
        <time>2016-06-10T06:54:01Z</time>
      </trkpt>
      <trkpt lat="46.66718" lon="5.77018">
        <ele>500.98</ele>
        <time>2016-06-10T06:54:04Z</time>
      </trkpt>
      <trkpt lat="46.66714" lon="5.77021">
        <ele>500.02</ele>
        <time>2016-06-10T06:54:09Z</time>
      </trkpt>
      <trkpt lat="46.66708" lon="5.77029">
        <ele>500.02</ele>
        <time>2016-06-10T06:54:20Z</time>
      </trkpt>
      <trkpt lat="46.66699" lon="5.77031">
        <ele>500.5</ele>
        <time>2016-06-10T06:54:30Z</time>
      </trkpt>
      <trkpt lat="46.667" lon="5.77042">
        <ele>498.58</ele>
        <time>2016-06-10T06:54:37Z</time>
      </trkpt>
      <trkpt lat="46.66698" lon="5.77062">
        <ele>494.74</ele>
        <time>2016-06-10T06:54:50Z</time>
      </trkpt>
      <trkpt lat="46.66697" lon="5.77064">
        <ele>495.22</ele>
        <time>2016-06-10T06:54:51Z</time>
      </trkpt>
      <trkpt lat="46.66695" lon="5.77083">
        <ele>494.74</ele>
        <time>2016-06-10T06:55:02Z</time>
      </trkpt>
      <trkpt lat="46.66692" lon="5.77104">
        <ele>493.77</ele>
        <time>2016-06-10T06:55:13Z</time>
      </trkpt>
      <trkpt lat="46.66689" lon="5.77126">
        <ele>493.29</ele>
        <time>2016-06-10T06:55:26Z</time>
      </trkpt>
      <trkpt lat="46.66688" lon="5.77128">
        <ele>493.29</ele>
        <time>2016-06-10T06:55:28Z</time>
      </trkpt>
      <trkpt lat="46.66686" lon="5.77148">
        <ele>492.33</ele>
        <time>2016-06-10T06:55:40Z</time>
      </trkpt>
      <trkpt lat="46.66683" lon="5.77169">
        <ele>491.37</ele>
        <time>2016-06-10T06:55:52Z</time>
      </trkpt>
      <trkpt lat="46.66681" lon="5.77188">
        <ele>490.41</ele>
        <time>2016-06-10T06:56:03Z</time>
      </trkpt>
      <trkpt lat="46.66681" lon="5.77191">
        <ele>489.93</ele>
        <time>2016-06-10T06:56:05Z</time>
      </trkpt>
      <trkpt lat="46.66678" lon="5.77212">
        <ele>491.37</ele>
        <time>2016-06-10T06:56:17Z</time>
      </trkpt>
      <trkpt lat="46.66676" lon="5.77228">
        <ele>491.37</ele>
        <time>2016-06-10T06:56:25Z</time>
      </trkpt>
      <trkpt lat="46.66675" lon="5.77245">
        <ele>490.41</ele>
        <time>2016-06-10T06:56:35Z</time>
      </trkpt>
      <trkpt lat="46.66672" lon="5.77267">
        <ele>490.89</ele>
        <time>2016-06-10T06:56:47Z</time>
      </trkpt>
      <trkpt lat="46.6667" lon="5.77285">
        <ele>490.89</ele>
        <time>2016-06-10T06:56:58Z</time>
      </trkpt>
      <trkpt lat="46.66668" lon="5.77293">
        <ele>489.93</ele>
        <time>2016-06-10T06:57:03Z</time>
      </trkpt>
      <trkpt lat="46.66665" lon="5.77314">
        <ele>490.89</ele>
        <time>2016-06-10T06:57:15Z</time>
      </trkpt>
      <trkpt lat="46.66662" lon="5.77332">
        <ele>491.85</ele>
        <time>2016-06-10T06:57:25Z</time>
      </trkpt>
      <trkpt lat="46.66662" lon="5.77333">
        <ele>491.85</ele>
        <time>2016-06-10T06:57:26Z</time>
      </trkpt>
      <trkpt lat="46.66662" lon="5.77336">
        <ele>492.33</ele>
        <time>2016-06-10T06:57:28Z</time>
      </trkpt>
      <trkpt lat="46.6666" lon="5.7735">
        <ele>492.33</ele>
        <time>2016-06-10T06:57:36Z</time>
      </trkpt>
      <trkpt lat="46.66659" lon="5.77354">
        <ele>492.33</ele>
        <time>2016-06-10T06:57:38Z</time>
      </trkpt>
      <trkpt lat="46.66656" lon="5.77379">
        <ele>491.85</ele>
        <time>2016-06-10T06:57:53Z</time>
      </trkpt>
      <trkpt lat="46.66654" lon="5.77397">
        <ele>490.41</ele>
        <time>2016-06-10T06:58:03Z</time>
      </trkpt>
      <trkpt lat="46.66654" lon="5.774">
        <ele>489.93</ele>
        <time>2016-06-10T06:58:05Z</time>
      </trkpt>
      <trkpt lat="46.66649" lon="5.77424">
        <ele>489.93</ele>
        <time>2016-06-10T06:58:20Z</time>
      </trkpt>
      <trkpt lat="46.66645" lon="5.7745">
        <ele>490.41</ele>
        <time>2016-06-10T06:58:34Z</time>
      </trkpt>
      <trkpt lat="46.66642" lon="5.77468">
        <ele>490.41</ele>
        <time>2016-06-10T06:58:45Z</time>
      </trkpt>
      <trkpt lat="46.6664" lon="5.77483">
        <ele>489.93</ele>
        <time>2016-06-10T06:58:54Z</time>
      </trkpt>
      <trkpt lat="46.66638" lon="5.77499">
        <ele>490.41</ele>
        <time>2016-06-10T06:59:04Z</time>
      </trkpt>
      <trkpt lat="46.66636" lon="5.77518">
        <ele>490.41</ele>
        <time>2016-06-10T06:59:16Z</time>
      </trkpt>
      <trkpt lat="46.66636" lon="5.7752">
        <ele>490.41</ele>
        <time>2016-06-10T06:59:17Z</time>
      </trkpt>
      <trkpt lat="46.66637" lon="5.7754">
        <ele>488.49</ele>
        <time>2016-06-10T06:59:30Z</time>
      </trkpt>
      <trkpt lat="46.66637" lon="5.77543">
        <ele>488.97</ele>
        <time>2016-06-10T06:59:32Z</time>
      </trkpt>
      <trkpt lat="46.6663" lon="5.77563">
        <ele>488.01</ele>
        <time>2016-06-10T06:59:45Z</time>
      </trkpt>
      <trkpt lat="46.66627" lon="5.77583">
        <ele>486.08</ele>
        <time>2016-06-10T06:59:57Z</time>
      </trkpt>
      <trkpt lat="46.66627" lon="5.77602">
        <ele>482.72</ele>
        <time>2016-06-10T07:00:10Z</time>
      </trkpt>
      <trkpt lat="46.66625" lon="5.77622">
        <ele>481.76</ele>
        <time>2016-06-10T07:00:23Z</time>
      </trkpt>
      <trkpt lat="46.66628" lon="5.77636">
        <ele>480.8</ele>
        <time>2016-06-10T07:00:32Z</time>
      </trkpt>
      <trkpt lat="46.66631" lon="5.77657">
        <ele>479.35</ele>
        <time>2016-06-10T07:00:46Z</time>
      </trkpt>
      <trkpt lat="46.66635" lon="5.77668">
        <ele>478.39</ele>
        <time>2016-06-10T07:00:54Z</time>
      </trkpt>
      <trkpt lat="46.66636" lon="5.77681">
        <ele>478.87</ele>
        <time>2016-06-10T07:01:03Z</time>
      </trkpt>
      <trkpt lat="46.66631" lon="5.77715">
        <ele>484.16</ele>
        <time>2016-06-10T07:01:15Z</time>
      </trkpt>
      <trkpt lat="46.66635" lon="5.77723">
        <ele>483.2</ele>
        <time>2016-06-10T07:01:22Z</time>
      </trkpt>
      <trkpt lat="46.66636" lon="5.77732">
        <ele>482.72</ele>
        <time>2016-06-10T07:01:28Z</time>
      </trkpt>
      <trkpt lat="46.6664" lon="5.77732">
        <ele>481.28</ele>
        <time>2016-06-10T07:01:31Z</time>
      </trkpt>
      <trkpt lat="46.66636" lon="5.77754">
        <ele>485.12</ele>
        <time>2016-06-10T07:01:41Z</time>
      </trkpt>
      <trkpt lat="46.66635" lon="5.77787">
        <ele>487.53</ele>
        <time>2016-06-10T07:01:56Z</time>
      </trkpt>
      <trkpt lat="46.66635" lon="5.77805">
        <ele>483.68</ele>
        <time>2016-06-10T07:02:09Z</time>
      </trkpt>
      <trkpt lat="46.66637" lon="5.77809">
        <ele>483.2</ele>
        <time>2016-06-10T07:02:13Z</time>
      </trkpt>
      <trkpt lat="46.66639" lon="5.77813">
        <ele>482.24</ele>
        <time>2016-06-10T07:02:16Z</time>
      </trkpt>
      <trkpt lat="46.66644" lon="5.77829">
        <ele>475.51</ele>
        <time>2016-06-10T07:02:32Z</time>
      </trkpt>
      <trkpt lat="46.6664" lon="5.77865">
        <ele>479.84</ele>
        <time>2016-06-10T07:02:46Z</time>
      </trkpt>
      <trkpt lat="46.66633" lon="5.77893">
        <ele>486.56</ele>
        <time>2016-06-10T07:03:01Z</time>
      </trkpt>
      <trkpt lat="46.66632" lon="5.77893">
        <ele>488.01</ele>
        <time>2016-06-10T07:03:08Z</time>
      </trkpt>
      <trkpt lat="46.66634" lon="5.77893">
        <ele>488.97</ele>
        <time>2016-06-10T07:03:12Z</time>
      </trkpt>
      <trkpt lat="46.66648" lon="5.77891">
        <ele>489.45</ele>
        <time>2016-06-10T07:03:24Z</time>
      </trkpt>
      <trkpt lat="46.66654" lon="5.77887">
        <ele>491.85</ele>
        <time>2016-06-10T07:03:40Z</time>
      </trkpt>
      <trkpt lat="46.66655" lon="5.77886">
        <ele>493.29</ele>
        <time>2016-06-10T07:04:09Z</time>
      </trkpt>
      <trkpt lat="46.66655" lon="5.77899">
        <ele>492.33</ele>
        <time>2016-06-10T07:04:18Z</time>
      </trkpt>
      <trkpt lat="46.66656" lon="5.77913">
        <ele>492.33</ele>
        <time>2016-06-10T07:04:27Z</time>
      </trkpt>
      <trkpt lat="46.66656" lon="5.77926">
        <ele>491.85</ele>
        <time>2016-06-10T07:04:34Z</time>
      </trkpt>
      <trkpt lat="46.66657" lon="5.77945">
        <ele>492.33</ele>
        <time>2016-06-10T07:04:45Z</time>
      </trkpt>
      <trkpt lat="46.66657" lon="5.77949">
        <ele>491.85</ele>
        <time>2016-06-10T07:04:48Z</time>
      </trkpt>
      <trkpt lat="46.66655" lon="5.7796">
        <ele>492.33</ele>
        <time>2016-06-10T07:04:55Z</time>
      </trkpt>
      <trkpt lat="46.66654" lon="5.77962">
        <ele>492.33</ele>
        <time>2016-06-10T07:04:57Z</time>
      </trkpt>
      <trkpt lat="46.66651" lon="5.7798">
        <ele>489.93</ele>
        <time>2016-06-10T07:05:11Z</time>
      </trkpt>
      <trkpt lat="46.66651" lon="5.78006">
        <ele>488.49</ele>
        <time>2016-06-10T07:05:28Z</time>
      </trkpt>
      <trkpt lat="46.66648" lon="5.78007">
        <ele>488.49</ele>
        <time>2016-06-10T07:05:30Z</time>
      </trkpt>
      <trkpt lat="46.66641" lon="5.78028">
        <ele>489.45</ele>
        <time>2016-06-10T07:05:45Z</time>
      </trkpt>
      <trkpt lat="46.66638" lon="5.78048">
        <ele>490.89</ele>
        <time>2016-06-10T07:05:57Z</time>
      </trkpt>
      <trkpt lat="46.66638" lon="5.78064">
        <ele>489.45</ele>
        <time>2016-06-10T07:06:09Z</time>
      </trkpt>
      <trkpt lat="46.66635" lon="5.78084">
        <ele>488.01</ele>
        <time>2016-06-10T07:06:21Z</time>
      </trkpt>
      <trkpt lat="46.66639" lon="5.781">
        <ele>486.08</ele>
        <time>2016-06-10T07:06:31Z</time>
      </trkpt>
      <trkpt lat="46.66644" lon="5.78111">
        <ele>486.56</ele>
        <time>2016-06-10T07:06:39Z</time>
      </trkpt>
      <trkpt lat="46.66647" lon="5.78122">
        <ele>485.6</ele>
        <time>2016-06-10T07:06:49Z</time>
      </trkpt>
      <trkpt lat="46.66645" lon="5.7814">
        <ele>485.6</ele>
        <time>2016-06-10T07:06:58Z</time>
      </trkpt>
      <trkpt lat="46.66648" lon="5.78149">
        <ele>482.24</ele>
        <time>2016-06-10T07:07:09Z</time>
      </trkpt>
      <trkpt lat="46.66648" lon="5.78156">
        <ele>480.8</ele>
        <time>2016-06-10T07:07:18Z</time>
      </trkpt>
      <trkpt lat="46.66648" lon="5.78172">
        <ele>482.72</ele>
        <time>2016-06-10T07:07:29Z</time>
      </trkpt>
      <trkpt lat="46.66644" lon="5.78176">
        <ele>482.72</ele>
        <time>2016-06-10T07:07:33Z</time>
      </trkpt>
      <trkpt lat="46.66639" lon="5.78177">
        <ele>482.24</ele>
        <time>2016-06-10T07:07:37Z</time>
      </trkpt>
      <trkpt lat="46.66629" lon="5.7818">
        <ele>481.28</ele>
        <time>2016-06-10T07:07:51Z</time>
      </trkpt>
      <trkpt lat="46.66619" lon="5.78184">
        <ele>483.68</ele>
        <time>2016-06-10T07:08:01Z</time>
      </trkpt>
      <trkpt lat="46.66607" lon="5.78186">
        <ele>484.64</ele>
        <time>2016-06-10T07:08:13Z</time>
      </trkpt>
      <trkpt lat="46.66595" lon="5.78183">
        <ele>488.49</ele>
        <time>2016-06-10T07:08:25Z</time>
      </trkpt>
      <trkpt lat="46.66582" lon="5.7818">
        <ele>493.29</ele>
        <time>2016-06-10T07:08:40Z</time>
      </trkpt>
      <trkpt lat="46.66567" lon="5.78187">
        <ele>501.46</ele>
        <time>2016-06-10T07:08:52Z</time>
      </trkpt>
      <trkpt lat="46.66553" lon="5.78188">
        <ele>503.87</ele>
        <time>2016-06-10T07:09:05Z</time>
      </trkpt>
      <trkpt lat="46.66548" lon="5.78187">
        <ele>504.35</ele>
        <time>2016-06-10T07:09:09Z</time>
      </trkpt>
      <trkpt lat="46.66537" lon="5.78183">
        <ele>504.35</ele>
        <time>2016-06-10T07:09:20Z</time>
      </trkpt>
      <trkpt lat="46.66524" lon="5.7819">
        <ele>506.27</ele>
        <time>2016-06-10T07:09:34Z</time>
      </trkpt>
      <trkpt lat="46.66519" lon="5.78197">
        <ele>506.75</ele>
        <time>2016-06-10T07:09:48Z</time>
      </trkpt>
      <trkpt lat="46.6651" lon="5.78206">
        <ele>507.71</ele>
        <time>2016-06-10T07:09:58Z</time>
      </trkpt>
      <trkpt lat="46.66503" lon="5.78212">
        <ele>507.23</ele>
        <time>2016-06-10T07:10:12Z</time>
      </trkpt>
      <trkpt lat="46.66494" lon="5.78222">
        <ele>509.64</ele>
        <time>2016-06-10T07:10:25Z</time>
      </trkpt>
      <trkpt lat="46.66488" lon="5.7823">
        <ele>510.12</ele>
        <time>2016-06-10T07:10:38Z</time>
      </trkpt>
      <trkpt lat="46.66482" lon="5.78242">
        <ele>509.64</ele>
        <time>2016-06-10T07:10:50Z</time>
      </trkpt>
      <trkpt lat="46.66481" lon="5.78244">
        <ele>509.16</ele>
        <time>2016-06-10T07:10:52Z</time>
      </trkpt>
      <trkpt lat="46.66477" lon="5.78256">
        <ele>509.64</ele>
        <time>2016-06-10T07:11:06Z</time>
      </trkpt>
      <trkpt lat="46.66475" lon="5.78254">
        <ele>510.12</ele>
        <time>2016-06-10T07:11:24Z</time>
      </trkpt>
      <trkpt lat="46.66466" lon="5.78258">
        <ele>512.04</ele>
        <time>2016-06-10T07:11:39Z</time>
      </trkpt>
      <trkpt lat="46.66468" lon="5.78259">
        <ele>512.52</ele>
        <time>2016-06-10T07:11:55Z</time>
      </trkpt>
      <trkpt lat="46.66474" lon="5.78273">
        <ele>510.12</ele>
        <time>2016-06-10T07:12:11Z</time>
      </trkpt>
      <trkpt lat="46.66479" lon="5.78284">
        <ele>506.27</ele>
        <time>2016-06-10T07:12:25Z</time>
      </trkpt>
      <trkpt lat="46.66484" lon="5.78293">
        <ele>505.79</ele>
        <time>2016-06-10T07:12:38Z</time>
      </trkpt>
      <trkpt lat="46.66492" lon="5.78312">
        <ele>510.12</ele>
        <time>2016-06-10T07:12:52Z</time>
      </trkpt>
      <trkpt lat="46.66495" lon="5.78326">
        <ele>511.08</ele>
        <time>2016-06-10T07:13:04Z</time>
      </trkpt>
      <trkpt lat="46.66495" lon="5.78345">
        <ele>512.04</ele>
        <time>2016-06-10T07:13:18Z</time>
      </trkpt>
      <trkpt lat="46.66495" lon="5.78352">
        <ele>512.52</ele>
        <time>2016-06-10T07:13:24Z</time>
      </trkpt>
      <trkpt lat="46.66494" lon="5.78363">
        <ele>512.04</ele>
        <time>2016-06-10T07:13:34Z</time>
      </trkpt>
      <trkpt lat="46.66493" lon="5.78383">
        <ele>514.92</ele>
        <time>2016-06-10T07:13:46Z</time>
      </trkpt>
      <trkpt lat="46.66492" lon="5.78389">
        <ele>516.85</ele>
        <time>2016-06-10T07:13:49Z</time>
      </trkpt>
      <trkpt lat="46.66489" lon="5.784">
        <ele>518.29</ele>
        <time>2016-06-10T07:13:57Z</time>
      </trkpt>
      <trkpt lat="46.66483" lon="5.78411">
        <ele>518.77</ele>
        <time>2016-06-10T07:14:09Z</time>
      </trkpt>
      <trkpt lat="46.66479" lon="5.78422">
        <ele>520.69</ele>
        <time>2016-06-10T07:14:18Z</time>
      </trkpt>
      <trkpt lat="46.66472" lon="5.78435">
        <ele>522.61</ele>
        <time>2016-06-10T07:14:30Z</time>
      </trkpt>
      <trkpt lat="46.66466" lon="5.7845">
        <ele>525.02</ele>
        <time>2016-06-10T07:14:42Z</time>
      </trkpt>
      <trkpt lat="46.66464" lon="5.78461">
        <ele>523.58</ele>
        <time>2016-06-10T07:14:51Z</time>
      </trkpt>
      <trkpt lat="46.66466" lon="5.78475">
        <ele>520.69</ele>
        <time>2016-06-10T07:15:01Z</time>
      </trkpt>
      <trkpt lat="46.66469" lon="5.78492">
        <ele>517.33</ele>
        <time>2016-06-10T07:15:13Z</time>
      </trkpt>
      <trkpt lat="46.6647" lon="5.78501">
        <ele>515.88</ele>
        <time>2016-06-10T07:15:20Z</time>
      </trkpt>
      <trkpt lat="46.66471" lon="5.78516">
        <ele>518.29</ele>
        <time>2016-06-10T07:15:27Z</time>
      </trkpt>
      <trkpt lat="46.66473" lon="5.78538">
        <ele>518.29</ele>
        <time>2016-06-10T07:15:39Z</time>
      </trkpt>
      <trkpt lat="46.66476" lon="5.78566">
        <ele>518.77</ele>
        <time>2016-06-10T07:15:55Z</time>
      </trkpt>
      <trkpt lat="46.66477" lon="5.7858">
        <ele>516.37</ele>
        <time>2016-06-10T07:16:06Z</time>
      </trkpt>
      <trkpt lat="46.66478" lon="5.78598">
        <ele>516.37</ele>
        <time>2016-06-10T07:16:17Z</time>
      </trkpt>
      <trkpt lat="46.6648" lon="5.78622">
        <ele>517.33</ele>
        <time>2016-06-10T07:16:30Z</time>
      </trkpt>
      <trkpt lat="46.6648" lon="5.78625">
        <ele>516.85</ele>
        <time>2016-06-10T07:16:32Z</time>
      </trkpt>
      <trkpt lat="46.66484" lon="5.78641">
        <ele>517.33</ele>
        <time>2016-06-10T07:16:43Z</time>
      </trkpt>
      <trkpt lat="46.66488" lon="5.78659">
        <ele>515.88</ele>
        <time>2016-06-10T07:16:56Z</time>
      </trkpt>
      <trkpt lat="46.6649" lon="5.7868">
        <ele>515.88</ele>
        <time>2016-06-10T07:17:07Z</time>
      </trkpt>
      <trkpt lat="46.66489" lon="5.78685">
        <ele>515.88</ele>
        <time>2016-06-10T07:17:10Z</time>
      </trkpt>
      <trkpt lat="46.66492" lon="5.787">
        <ele>513.48</ele>
        <time>2016-06-10T07:17:21Z</time>
      </trkpt>
      <trkpt lat="46.66494" lon="5.78705">
        <ele>511.08</ele>
        <time>2016-06-10T07:17:27Z</time>
      </trkpt>
      <trkpt lat="46.66494" lon="5.78711">
        <ele>511.08</ele>
        <time>2016-06-10T07:17:31Z</time>
      </trkpt>
      <trkpt lat="46.66495" lon="5.78718">
        <ele>511.08</ele>
        <time>2016-06-10T07:17:35Z</time>
      </trkpt>
      <trkpt lat="46.66496" lon="5.78732">
        <ele>510.12</ele>
        <time>2016-06-10T07:17:43Z</time>
      </trkpt>
      <trkpt lat="46.66496" lon="5.78735">
        <ele>510.12</ele>
        <time>2016-06-10T07:17:45Z</time>
      </trkpt>
      <trkpt lat="46.66494" lon="5.7875">
        <ele>509.16</ele>
        <time>2016-06-10T07:17:54Z</time>
      </trkpt>
      <trkpt lat="46.66493" lon="5.78771">
        <ele>510.6</ele>
        <time>2016-06-10T07:18:06Z</time>
      </trkpt>
      <trkpt lat="46.66488" lon="5.78795">
        <ele>513.48</ele>
        <time>2016-06-10T07:18:18Z</time>
      </trkpt>
      <trkpt lat="46.66484" lon="5.78804">
        <ele>514.44</ele>
        <time>2016-06-10T07:18:22Z</time>
      </trkpt>
      <trkpt lat="46.66473" lon="5.78812">
        <ele>516.37</ele>
        <time>2016-06-10T07:18:30Z</time>
      </trkpt>
      <trkpt lat="46.66464" lon="5.78808">
        <ele>520.21</ele>
        <time>2016-06-10T07:18:40Z</time>
      </trkpt>
      <trkpt lat="46.66458" lon="5.78806">
        <ele>520.21</ele>
        <time>2016-06-10T07:18:46Z</time>
      </trkpt>
      <trkpt lat="46.66451" lon="5.78807">
        <ele>519.25</ele>
        <time>2016-06-10T07:18:54Z</time>
      </trkpt>
      <trkpt lat="46.66438" lon="5.78805">
        <ele>518.29</ele>
        <time>2016-06-10T07:19:07Z</time>
      </trkpt>
      <trkpt lat="46.66433" lon="5.78802">
        <ele>518.29</ele>
        <time>2016-06-10T07:19:12Z</time>
      </trkpt>
      <trkpt lat="46.66424" lon="5.78801">
        <ele>517.33</ele>
        <time>2016-06-10T07:19:20Z</time>
      </trkpt>
      <trkpt lat="46.66409" lon="5.78801">
        <ele>518.77</ele>
        <time>2016-06-10T07:19:32Z</time>
      </trkpt>
      <trkpt lat="46.66406" lon="5.78803">
        <ele>519.25</ele>
        <time>2016-06-10T07:19:35Z</time>
      </trkpt>
      <trkpt lat="46.66401" lon="5.78802">
        <ele>519.73</ele>
        <time>2016-06-10T07:19:39Z</time>
      </trkpt>
      <trkpt lat="46.66399" lon="5.78803">
        <ele>520.21</ele>
        <time>2016-06-10T07:19:41Z</time>
      </trkpt>
      <trkpt lat="46.66394" lon="5.78804">
        <ele>519.73</ele>
        <time>2016-06-10T07:19:45Z</time>
      </trkpt>
      <trkpt lat="46.66377" lon="5.78799">
        <ele>522.13</ele>
        <time>2016-06-10T07:19:58Z</time>
      </trkpt>
      <trkpt lat="46.66374" lon="5.78797">
        <ele>523.58</ele>
        <time>2016-06-10T07:20:14Z</time>
      </trkpt>
      <trkpt lat="46.66374" lon="5.78797">
        <ele>525.5</ele>
        <time>2016-06-10T07:20:35Z</time>
      </trkpt>
      <trkpt lat="46.66368" lon="5.78802">
        <ele>525.02</ele>
        <time>2016-06-10T07:20:44Z</time>
      </trkpt>
      <trkpt lat="46.66367" lon="5.78807">
        <ele>523.58</ele>
        <time>2016-06-10T07:20:56Z</time>
      </trkpt>
      <trkpt lat="46.66364" lon="5.78814">
        <ele>522.61</ele>
        <time>2016-06-10T07:21:09Z</time>
      </trkpt>
      <trkpt lat="46.66359" lon="5.78821">
        <ele>522.61</ele>
        <time>2016-06-10T07:21:23Z</time>
      </trkpt>
      <trkpt lat="46.66352" lon="5.78827">
        <ele>523.58</ele>
        <time>2016-06-10T07:21:36Z</time>
      </trkpt>
      <trkpt lat="46.66337" lon="5.78838">
        <ele>523.58</ele>
        <time>2016-06-10T07:21:50Z</time>
      </trkpt>
      <trkpt lat="46.66325" lon="5.7885">
        <ele>528.38</ele>
        <time>2016-06-10T07:22:05Z</time>
      </trkpt>
      <trkpt lat="46.66315" lon="5.78864">
        <ele>535.59</ele>
        <time>2016-06-10T07:22:19Z</time>
      </trkpt>
      <trkpt lat="46.66307" lon="5.78869">
        <ele>538.96</ele>
        <time>2016-06-10T07:22:30Z</time>
      </trkpt>
      <trkpt lat="46.66301" lon="5.78872">
        <ele>540.88</ele>
        <time>2016-06-10T07:22:42Z</time>
      </trkpt>
      <trkpt lat="46.6629" lon="5.78877">
        <ele>544.72</ele>
        <time>2016-06-10T07:22:56Z</time>
      </trkpt>
      <trkpt lat="46.66281" lon="5.78881">
        <ele>546.17</ele>
        <time>2016-06-10T07:23:12Z</time>
      </trkpt>
      <trkpt lat="46.66275" lon="5.78884">
        <ele>545.69</ele>
        <time>2016-06-10T07:23:26Z</time>
      </trkpt>
      <trkpt lat="46.66267" lon="5.78889">
        <ele>547.61</ele>
        <time>2016-06-10T07:23:39Z</time>
      </trkpt>
      <trkpt lat="46.66264" lon="5.78891">
        <ele>548.09</ele>
        <time>2016-06-10T07:23:44Z</time>
      </trkpt>
      <trkpt lat="46.66257" lon="5.78894">
        <ele>547.61</ele>
        <time>2016-06-10T07:23:57Z</time>
      </trkpt>
      <trkpt lat="46.66248" lon="5.78897">
        <ele>547.61</ele>
        <time>2016-06-10T07:24:10Z</time>
      </trkpt>
      <trkpt lat="46.6624" lon="5.78896">
        <ele>550.49</ele>
        <time>2016-06-10T07:24:26Z</time>
      </trkpt>
      <trkpt lat="46.66239" lon="5.78895">
        <ele>551.45</ele>
        <time>2016-06-10T07:24:30Z</time>
      </trkpt>
      <trkpt lat="46.66229" lon="5.78901">
        <ele>556.26</ele>
        <time>2016-06-10T07:24:43Z</time>
      </trkpt>
      <trkpt lat="46.66227" lon="5.7891">
        <ele>557.22</ele>
        <time>2016-06-10T07:24:56Z</time>
      </trkpt>
      <trkpt lat="46.66228" lon="5.78921">
        <ele>557.22</ele>
        <time>2016-06-10T07:25:08Z</time>
      </trkpt>
      <trkpt lat="46.66235" lon="5.78934">
        <ele>559.62</ele>
        <time>2016-06-10T07:25:21Z</time>
      </trkpt>
      <trkpt lat="46.66245" lon="5.78939">
        <ele>560.11</ele>
        <time>2016-06-10T07:25:36Z</time>
      </trkpt>
      <trkpt lat="46.66254" lon="5.78943">
        <ele>559.14</ele>
        <time>2016-06-10T07:25:52Z</time>
      </trkpt>
      <trkpt lat="46.66263" lon="5.78953">
        <ele>558.66</ele>
        <time>2016-06-10T07:26:07Z</time>
      </trkpt>
      <trkpt lat="46.6627" lon="5.78961">
        <ele>560.11</ele>
        <time>2016-06-10T07:26:21Z</time>
      </trkpt>
      <trkpt lat="46.66279" lon="5.7897">
        <ele>562.51</ele>
        <time>2016-06-10T07:26:36Z</time>
      </trkpt>
      <trkpt lat="46.66286" lon="5.78975">
        <ele>564.43</ele>
        <time>2016-06-10T07:26:50Z</time>
      </trkpt>
      <trkpt lat="46.66293" lon="5.78975">
        <ele>569.24</ele>
        <time>2016-06-10T07:27:05Z</time>
      </trkpt>
      <trkpt lat="46.66298" lon="5.78978">
        <ele>569.72</ele>
        <time>2016-06-10T07:27:18Z</time>
      </trkpt>
      <trkpt lat="46.66302" lon="5.78979">
        <ele>568.28</ele>
        <time>2016-06-10T07:27:29Z</time>
      </trkpt>
      <trkpt lat="46.66313" lon="5.7898">
        <ele>566.83</ele>
        <time>2016-06-10T07:27:40Z</time>
      </trkpt>
      <trkpt lat="46.66317" lon="5.78982">
        <ele>566.83</ele>
        <time>2016-06-10T07:27:51Z</time>
      </trkpt>
      <trkpt lat="46.66328" lon="5.78989">
        <ele>568.28</ele>
        <time>2016-06-10T07:28:03Z</time>
      </trkpt>
      <trkpt lat="46.66338" lon="5.78995">
        <ele>569.72</ele>
        <time>2016-06-10T07:28:17Z</time>
      </trkpt>
      <trkpt lat="46.66344" lon="5.78999">
        <ele>569.24</ele>
        <time>2016-06-10T07:28:29Z</time>
      </trkpt>
      <trkpt lat="46.66351" lon="5.79004">
        <ele>569.24</ele>
        <time>2016-06-10T07:28:44Z</time>
      </trkpt>
      <trkpt lat="46.66361" lon="5.79013">
        <ele>572.12</ele>
        <time>2016-06-10T07:28:57Z</time>
      </trkpt>
      <trkpt lat="46.66367" lon="5.79019">
        <ele>574.53</ele>
        <time>2016-06-10T07:29:09Z</time>
      </trkpt>
      <trkpt lat="46.66375" lon="5.79028">
        <ele>575.49</ele>
        <time>2016-06-10T07:29:25Z</time>
      </trkpt>
      <trkpt lat="46.66381" lon="5.79035">
        <ele>575.49</ele>
        <time>2016-06-10T07:29:37Z</time>
      </trkpt>
      <trkpt lat="46.66388" lon="5.79045">
        <ele>575.97</ele>
        <time>2016-06-10T07:29:48Z</time>
      </trkpt>
      <trkpt lat="46.66394" lon="5.79055">
        <ele>579.33</ele>
        <time>2016-06-10T07:30:00Z</time>
      </trkpt>
      <trkpt lat="46.66395" lon="5.79059">
        <ele>579.33</ele>
        <time>2016-06-10T07:30:13Z</time>
      </trkpt>
      <trkpt lat="46.66398" lon="5.79063">
        <ele>580.29</ele>
        <time>2016-06-10T07:30:29Z</time>
      </trkpt>
      <trkpt lat="46.66402" lon="5.79063">
        <ele>579.33</ele>
        <time>2016-06-10T07:30:43Z</time>
      </trkpt>
      <trkpt lat="46.66418" lon="5.79057">
        <ele>582.22</ele>
        <time>2016-06-10T07:30:58Z</time>
      </trkpt>
      <trkpt lat="46.66429" lon="5.79056">
        <ele>583.18</ele>
        <time>2016-06-10T07:31:13Z</time>
      </trkpt>
      <trkpt lat="46.66441" lon="5.79064">
        <ele>583.66</ele>
        <time>2016-06-10T07:31:27Z</time>
      </trkpt>
      <trkpt lat="46.66446" lon="5.79068">
        <ele>584.62</ele>
        <time>2016-06-10T07:31:36Z</time>
      </trkpt>
      <trkpt lat="46.66454" lon="5.79076">
        <ele>587.02</ele>
        <time>2016-06-10T07:31:47Z</time>
      </trkpt>
      <trkpt lat="46.66461" lon="5.79086">
        <ele>589.43</ele>
        <time>2016-06-10T07:31:59Z</time>
      </trkpt>
      <trkpt lat="46.66461" lon="5.79095">
        <ele>591.35</ele>
        <time>2016-06-10T07:32:11Z</time>
      </trkpt>
      <trkpt lat="46.66465" lon="5.79102">
        <ele>591.83</ele>
        <time>2016-06-10T07:32:23Z</time>
      </trkpt>
      <trkpt lat="46.66471" lon="5.7911">
        <ele>593.27</ele>
        <time>2016-06-10T07:32:35Z</time>
      </trkpt>
      <trkpt lat="46.66481" lon="5.79118">
        <ele>593.27</ele>
        <time>2016-06-10T07:32:47Z</time>
      </trkpt>
      <trkpt lat="46.66488" lon="5.79121">
        <ele>593.75</ele>
        <time>2016-06-10T07:32:59Z</time>
      </trkpt>
      <trkpt lat="46.66489" lon="5.79116">
        <ele>595.19</ele>
        <time>2016-06-10T07:33:13Z</time>
      </trkpt>
      <trkpt lat="46.6649" lon="5.79121">
        <ele>594.71</ele>
        <time>2016-06-10T07:33:27Z</time>
      </trkpt>
      <trkpt lat="46.6649" lon="5.79122">
        <ele>595.19</ele>
        <time>2016-06-10T07:33:39Z</time>
      </trkpt>
      <trkpt lat="46.66491" lon="5.79122">
        <ele>594.23</ele>
        <time>2016-06-10T07:34:01Z</time>
      </trkpt>
      <trkpt lat="46.66488" lon="5.79118">
        <ele>596.64</ele>
        <time>2016-06-10T07:34:13Z</time>
      </trkpt>
      <trkpt lat="46.6649" lon="5.79122">
        <ele>597.6</ele>
        <time>2016-06-10T07:34:27Z</time>
      </trkpt>
      <trkpt lat="46.6649" lon="5.79123">
        <ele>598.56</ele>
        <time>2016-06-10T07:34:56Z</time>
      </trkpt>
      <trkpt lat="46.66491" lon="5.79123">
        <ele>597.6</ele>
        <time>2016-06-10T07:35:16Z</time>
      </trkpt>
      <trkpt lat="46.6649" lon="5.79123">
        <ele>597.12</ele>
        <time>2016-06-10T07:35:35Z</time>
      </trkpt>
      <trkpt lat="46.6649" lon="5.79124">
        <ele>596.64</ele>
        <time>2016-06-10T07:35:51Z</time>
      </trkpt>
      <trkpt lat="46.66489" lon="5.79123">
        <ele>596.64</ele>
        <time>2016-06-10T07:36:17Z</time>
      </trkpt>
      <trkpt lat="46.66489" lon="5.79123">
        <ele>597.12</ele>
        <time>2016-06-10T07:36:36Z</time>
      </trkpt>
      <trkpt lat="46.66489" lon="5.79123">
        <ele>597.6</ele>
        <time>2016-06-10T07:36:56Z</time>
      </trkpt>
      <trkpt lat="46.66489" lon="5.79123">
        <ele>598.56</ele>
        <time>2016-06-10T07:37:06Z</time>
      </trkpt>
      <trkpt lat="46.6649" lon="5.79121">
        <ele>598.08</ele>
        <time>2016-06-10T07:37:30Z</time>
      </trkpt>
      <trkpt lat="46.66491" lon="5.79117">
        <ele>599.52</ele>
        <time>2016-06-10T07:37:41Z</time>
      </trkpt>
      <trkpt lat="46.66489" lon="5.79121">
        <ele>598.56</ele>
        <time>2016-06-10T07:37:53Z</time>
      </trkpt>
      <trkpt lat="46.66483" lon="5.79124">
        <ele>598.08</ele>
        <time>2016-06-10T07:38:04Z</time>
      </trkpt>
      <trkpt lat="46.66483" lon="5.79129">
        <ele>597.12</ele>
        <time>2016-06-10T07:38:15Z</time>
      </trkpt>
      <trkpt lat="46.66478" lon="5.79135">
        <ele>595.67</ele>
        <time>2016-06-10T07:38:27Z</time>
      </trkpt>
      <trkpt lat="46.66473" lon="5.79145">
        <ele>595.67</ele>
        <time>2016-06-10T07:38:39Z</time>
      </trkpt>
      <trkpt lat="46.66474" lon="5.79159">
        <ele>594.71</ele>
        <time>2016-06-10T07:38:51Z</time>
      </trkpt>
      <trkpt lat="46.66475" lon="5.79168">
        <ele>593.75</ele>
        <time>2016-06-10T07:39:00Z</time>
      </trkpt>
      <trkpt lat="46.66475" lon="5.79178">
        <ele>592.79</ele>
        <time>2016-06-10T07:39:10Z</time>
      </trkpt>
      <trkpt lat="46.66474" lon="5.79195">
        <ele>591.35</ele>
        <time>2016-06-10T07:39:24Z</time>
      </trkpt>
      <trkpt lat="46.6647" lon="5.79209">
        <ele>588.46</ele>
        <time>2016-06-10T07:39:35Z</time>
      </trkpt>
      <trkpt lat="46.66471" lon="5.79223">
        <ele>587.98</ele>
        <time>2016-06-10T07:39:49Z</time>
      </trkpt>
      <trkpt lat="46.66472" lon="5.79242">
        <ele>589.43</ele>
        <time>2016-06-10T07:39:59Z</time>
      </trkpt>
      <trkpt lat="46.6647" lon="5.7926">
        <ele>590.87</ele>
        <time>2016-06-10T07:40:13Z</time>
      </trkpt>
      <trkpt lat="46.66469" lon="5.79268">
        <ele>590.87</ele>
        <time>2016-06-10T07:40:26Z</time>
      </trkpt>
      <trkpt lat="46.66468" lon="5.79284">
        <ele>591.35</ele>
        <time>2016-06-10T07:40:37Z</time>
      </trkpt>
      <trkpt lat="46.66466" lon="5.79308">
        <ele>592.79</ele>
        <time>2016-06-10T07:40:49Z</time>
      </trkpt>
      <trkpt lat="46.66462" lon="5.79323">
        <ele>590.87</ele>
        <time>2016-06-10T07:41:00Z</time>
      </trkpt>
      <trkpt lat="46.66463" lon="5.79335">
        <ele>588.46</ele>
        <time>2016-06-10T07:41:12Z</time>
      </trkpt>
      <trkpt lat="46.66465" lon="5.79345">
        <ele>589.43</ele>
        <time>2016-06-10T07:41:23Z</time>
      </trkpt>
      <trkpt lat="46.66467" lon="5.79359">
        <ele>589.91</ele>
        <time>2016-06-10T07:41:35Z</time>
      </trkpt>
      <trkpt lat="46.66468" lon="5.79375">
        <ele>589.43</ele>
        <time>2016-06-10T07:41:46Z</time>
      </trkpt>
      <trkpt lat="46.66469" lon="5.7939">
        <ele>590.87</ele>
        <time>2016-06-10T07:41:57Z</time>
      </trkpt>
      <trkpt lat="46.66477" lon="5.79405">
        <ele>591.83</ele>
        <time>2016-06-10T07:42:08Z</time>
      </trkpt>
      <trkpt lat="46.66482" lon="5.79416">
        <ele>592.79</ele>
        <time>2016-06-10T07:42:18Z</time>
      </trkpt>
      <trkpt lat="46.66485" lon="5.79422">
        <ele>591.83</ele>
        <time>2016-06-10T07:42:22Z</time>
      </trkpt>
      <trkpt lat="46.66491" lon="5.79437">
        <ele>592.31</ele>
        <time>2016-06-10T07:42:33Z</time>
      </trkpt>
      <trkpt lat="46.66497" lon="5.79452">
        <ele>593.27</ele>
        <time>2016-06-10T07:42:46Z</time>
      </trkpt>
      <trkpt lat="46.665" lon="5.79464">
        <ele>594.71</ele>
        <time>2016-06-10T07:42:57Z</time>
      </trkpt>
      <trkpt lat="46.66505" lon="5.79475">
        <ele>594.71</ele>
        <time>2016-06-10T07:43:10Z</time>
      </trkpt>
      <trkpt lat="46.66509" lon="5.79477">
        <ele>594.71</ele>
        <time>2016-06-10T07:43:22Z</time>
      </trkpt>
      <trkpt lat="46.66508" lon="5.79477">
        <ele>596.64</ele>
        <time>2016-06-10T07:43:35Z</time>
      </trkpt>
      <trkpt lat="46.66507" lon="5.79476">
        <ele>594.71</ele>
        <time>2016-06-10T07:43:48Z</time>
      </trkpt>
      <trkpt lat="46.66505" lon="5.79473">
        <ele>595.19</ele>
        <time>2016-06-10T07:44:04Z</time>
      </trkpt>
      <trkpt lat="46.66504" lon="5.79471">
        <ele>595.19</ele>
        <time>2016-06-10T07:44:24Z</time>
      </trkpt>
      <trkpt lat="46.66506" lon="5.79473">
        <ele>595.67</ele>
        <time>2016-06-10T07:44:47Z</time>
      </trkpt>
      <trkpt lat="46.66507" lon="5.79473">
        <ele>595.67</ele>
        <time>2016-06-10T07:45:02Z</time>
      </trkpt>
      <trkpt lat="46.66507" lon="5.7948">
        <ele>596.15</ele>
        <time>2016-06-10T07:45:14Z</time>
      </trkpt>
      <trkpt lat="46.66506" lon="5.79486">
        <ele>594.71</ele>
        <time>2016-06-10T07:45:36Z</time>
      </trkpt>
      <trkpt lat="46.66503" lon="5.79506">
        <ele>592.31</ele>
        <time>2016-06-10T07:45:50Z</time>
      </trkpt>
      <trkpt lat="46.66498" lon="5.79522">
        <ele>591.35</ele>
        <time>2016-06-10T07:46:03Z</time>
      </trkpt>
      <trkpt lat="46.66506" lon="5.79539">
        <ele>595.19</ele>
        <time>2016-06-10T07:46:16Z</time>
      </trkpt>
      <trkpt lat="46.66508" lon="5.7955">
        <ele>593.75</ele>
        <time>2016-06-10T07:46:31Z</time>
      </trkpt>
      <trkpt lat="46.66509" lon="5.79567">
        <ele>591.35</ele>
        <time>2016-06-10T07:46:45Z</time>
      </trkpt>
      <trkpt lat="46.66506" lon="5.79586">
        <ele>591.83</ele>
        <time>2016-06-10T07:47:00Z</time>
      </trkpt>
      <trkpt lat="46.66507" lon="5.79592">
        <ele>592.79</ele>
        <time>2016-06-10T07:47:18Z</time>
      </trkpt>
      <trkpt lat="46.66507" lon="5.796">
        <ele>592.79</ele>
        <time>2016-06-10T07:47:34Z</time>
      </trkpt>
      <trkpt lat="46.66504" lon="5.79613">
        <ele>591.83</ele>
        <time>2016-06-10T07:47:52Z</time>
      </trkpt>
      <trkpt lat="46.66505" lon="5.79626">
        <ele>592.31</ele>
        <time>2016-06-10T07:48:08Z</time>
      </trkpt>
      <trkpt lat="46.66504" lon="5.79639">
        <ele>589.91</ele>
        <time>2016-06-10T07:48:24Z</time>
      </trkpt>
      <trkpt lat="46.66501" lon="5.79659">
        <ele>588.46</ele>
        <time>2016-06-10T07:48:39Z</time>
      </trkpt>
      <trkpt lat="46.66498" lon="5.79685">
        <ele>591.35</ele>
        <time>2016-06-10T07:48:53Z</time>
      </trkpt>
      <trkpt lat="46.66491" lon="5.79702">
        <ele>595.19</ele>
        <time>2016-06-10T07:49:08Z</time>
      </trkpt>
      <trkpt lat="46.66483" lon="5.79718">
        <ele>600</ele>
        <time>2016-06-10T07:49:23Z</time>
      </trkpt>
      <trkpt lat="46.66483" lon="5.79734">
        <ele>605.29</ele>
        <time>2016-06-10T07:49:37Z</time>
      </trkpt>
      <trkpt lat="46.66489" lon="5.79751">
        <ele>606.73</ele>
        <time>2016-06-10T07:49:50Z</time>
      </trkpt>
      <trkpt lat="46.66489" lon="5.79765">
        <ele>607.69</ele>
        <time>2016-06-10T07:50:00Z</time>
      </trkpt>
      <trkpt lat="46.66488" lon="5.7978">
        <ele>606.73</ele>
        <time>2016-06-10T07:50:13Z</time>
      </trkpt>
      <trkpt lat="46.66486" lon="5.79798">
        <ele>604.81</ele>
        <time>2016-06-10T07:50:27Z</time>
      </trkpt>
      <trkpt lat="46.66483" lon="5.79808">
        <ele>604.33</ele>
        <time>2016-06-10T07:50:38Z</time>
      </trkpt>
      <trkpt lat="46.66477" lon="5.79829">
        <ele>603.85</ele>
        <time>2016-06-10T07:50:51Z</time>
      </trkpt>
      <trkpt lat="46.66475" lon="5.79844">
        <ele>603.85</ele>
        <time>2016-06-10T07:51:03Z</time>
      </trkpt>
      <trkpt lat="46.66472" lon="5.79863">
        <ele>605.29</ele>
        <time>2016-06-10T07:51:15Z</time>
      </trkpt>
      <trkpt lat="46.6647" lon="5.79874">
        <ele>603.36</ele>
        <time>2016-06-10T07:51:25Z</time>
      </trkpt>
      <trkpt lat="46.66473" lon="5.79889">
        <ele>601.92</ele>
        <time>2016-06-10T07:51:36Z</time>
      </trkpt>
      <trkpt lat="46.66477" lon="5.79902">
        <ele>602.88</ele>
        <time>2016-06-10T07:51:47Z</time>
      </trkpt>
      <trkpt lat="46.66479" lon="5.79918">
        <ele>603.85</ele>
        <time>2016-06-10T07:52:00Z</time>
      </trkpt>
      <trkpt lat="46.66484" lon="5.79933">
        <ele>603.36</ele>
        <time>2016-06-10T07:52:12Z</time>
      </trkpt>
      <trkpt lat="46.6649" lon="5.79947">
        <ele>606.73</ele>
        <time>2016-06-10T07:52:26Z</time>
      </trkpt>
      <trkpt lat="46.66487" lon="5.79952">
        <ele>607.21</ele>
        <time>2016-06-10T07:52:39Z</time>
      </trkpt>
      <trkpt lat="46.66484" lon="5.79965">
        <ele>604.81</ele>
        <time>2016-06-10T07:52:51Z</time>
      </trkpt>
      <trkpt lat="46.66482" lon="5.79974">
        <ele>603.36</ele>
        <time>2016-06-10T07:53:01Z</time>
      </trkpt>
      <trkpt lat="46.66479" lon="5.79987">
        <ele>600.96</ele>
        <time>2016-06-10T07:53:12Z</time>
      </trkpt>
      <trkpt lat="46.66477" lon="5.8">
        <ele>599.52</ele>
        <time>2016-06-10T07:53:24Z</time>
      </trkpt>
      <trkpt lat="46.66476" lon="5.80017">
        <ele>596.15</ele>
        <time>2016-06-10T07:53:35Z</time>
      </trkpt>
      <trkpt lat="46.66472" lon="5.80031">
        <ele>595.19</ele>
        <time>2016-06-10T07:53:48Z</time>
      </trkpt>
      <trkpt lat="46.66467" lon="5.80043">
        <ele>593.27</ele>
        <time>2016-06-10T07:54:00Z</time>
      </trkpt>
      <trkpt lat="46.66465" lon="5.8006">
        <ele>595.19</ele>
        <time>2016-06-10T07:54:11Z</time>
      </trkpt>
      <trkpt lat="46.66465" lon="5.80073">
        <ele>593.75</ele>
        <time>2016-06-10T07:54:24Z</time>
      </trkpt>
      <trkpt lat="46.66466" lon="5.80081">
        <ele>593.27</ele>
        <time>2016-06-10T07:54:37Z</time>
      </trkpt>
      <trkpt lat="46.66471" lon="5.80095">
        <ele>594.23</ele>
        <time>2016-06-10T07:54:49Z</time>
      </trkpt>
      <trkpt lat="46.66479" lon="5.80109">
        <ele>594.71</ele>
        <time>2016-06-10T07:55:04Z</time>
      </trkpt>
      <trkpt lat="46.66489" lon="5.80124">
        <ele>597.12</ele>
        <time>2016-06-10T07:55:19Z</time>
      </trkpt>
      <trkpt lat="46.66492" lon="5.80127">
        <ele>597.6</ele>
        <time>2016-06-10T07:55:22Z</time>
      </trkpt>
      <trkpt lat="46.66497" lon="5.80132">
        <ele>598.56</ele>
        <time>2016-06-10T07:55:26Z</time>
      </trkpt>
      <trkpt lat="46.66502" lon="5.8015">
        <ele>599.52</ele>
        <time>2016-06-10T07:55:40Z</time>
      </trkpt>
      <trkpt lat="46.66502" lon="5.80162">
        <ele>595.67</ele>
        <time>2016-06-10T07:55:52Z</time>
      </trkpt>
      <trkpt lat="46.665" lon="5.80172">
        <ele>594.71</ele>
        <time>2016-06-10T07:56:02Z</time>
      </trkpt>
      <trkpt lat="46.66499" lon="5.80194">
        <ele>590.87</ele>
        <time>2016-06-10T07:56:15Z</time>
      </trkpt>
      <trkpt lat="46.66497" lon="5.80214">
        <ele>588.46</ele>
        <time>2016-06-10T07:56:27Z</time>
      </trkpt>
      <trkpt lat="46.66492" lon="5.80228">
        <ele>585.58</ele>
        <time>2016-06-10T07:56:37Z</time>
      </trkpt>
      <trkpt lat="46.66492" lon="5.80241">
        <ele>580.77</ele>
        <time>2016-06-10T07:56:49Z</time>
      </trkpt>
      <trkpt lat="46.66491" lon="5.80259">
        <ele>577.89</ele>
        <time>2016-06-10T07:57:02Z</time>
      </trkpt>
      <trkpt lat="46.66487" lon="5.80279">
        <ele>573.56</ele>
        <time>2016-06-10T07:57:13Z</time>
      </trkpt>
      <trkpt lat="46.66484" lon="5.80295">
        <ele>571.16</ele>
        <time>2016-06-10T07:57:28Z</time>
      </trkpt>
      <trkpt lat="46.66475" lon="5.80307">
        <ele>570.68</ele>
        <time>2016-06-10T07:57:39Z</time>
      </trkpt>
      <trkpt lat="46.66467" lon="5.80324">
        <ele>574.53</ele>
        <time>2016-06-10T07:57:50Z</time>
      </trkpt>
      <trkpt lat="46.66466" lon="5.80326">
        <ele>575.49</ele>
        <time>2016-06-10T07:57:52Z</time>
      </trkpt>
      <trkpt lat="46.66461" lon="5.80341">
        <ele>581.73</ele>
        <time>2016-06-10T07:58:03Z</time>
      </trkpt>
      <trkpt lat="46.66456" lon="5.80357">
        <ele>581.25</ele>
        <time>2016-06-10T07:58:14Z</time>
      </trkpt>
      <trkpt lat="46.66451" lon="5.80369">
        <ele>581.73</ele>
        <time>2016-06-10T07:58:26Z</time>
      </trkpt>
      <trkpt lat="46.66443" lon="5.80381">
        <ele>582.7</ele>
        <time>2016-06-10T07:58:37Z</time>
      </trkpt>
      <trkpt lat="46.66433" lon="5.80386">
        <ele>582.22</ele>
        <time>2016-06-10T07:58:47Z</time>
      </trkpt>
      <trkpt lat="46.66422" lon="5.80393">
        <ele>584.62</ele>
        <time>2016-06-10T07:58:57Z</time>
      </trkpt>
      <trkpt lat="46.66415" lon="5.80404">
        <ele>584.62</ele>
        <time>2016-06-10T07:59:09Z</time>
      </trkpt>
      <trkpt lat="46.66412" lon="5.80417">
        <ele>587.5</ele>
        <time>2016-06-10T07:59:21Z</time>
      </trkpt>
      <trkpt lat="46.66407" lon="5.80431">
        <ele>585.58</ele>
        <time>2016-06-10T07:59:32Z</time>
      </trkpt>
      <trkpt lat="46.66404" lon="5.80443">
        <ele>585.58</ele>
        <time>2016-06-10T07:59:43Z</time>
      </trkpt>
      <trkpt lat="46.66407" lon="5.80457">
        <ele>588.95</ele>
        <time>2016-06-10T07:59:57Z</time>
      </trkpt>
      <trkpt lat="46.66418" lon="5.80471">
        <ele>586.06</ele>
        <time>2016-06-10T08:00:11Z</time>
      </trkpt>
      <trkpt lat="46.66423" lon="5.80482">
        <ele>584.62</ele>
        <time>2016-06-10T08:00:22Z</time>
      </trkpt>
      <trkpt lat="46.66424" lon="5.80482">
        <ele>585.1</ele>
        <time>2016-06-10T08:00:24Z</time>
      </trkpt>
      <trkpt lat="46.66431" lon="5.80488">
        <ele>585.1</ele>
        <time>2016-06-10T08:00:35Z</time>
      </trkpt>
      <trkpt lat="46.66436" lon="5.80495">
        <ele>585.1</ele>
        <time>2016-06-10T08:00:50Z</time>
      </trkpt>
      <trkpt lat="46.66444" lon="5.80509">
        <ele>586.06</ele>
        <time>2016-06-10T08:01:01Z</time>
      </trkpt>
      <trkpt lat="46.6645" lon="5.80527">
        <ele>583.66</ele>
        <time>2016-06-10T08:01:14Z</time>
      </trkpt>
      <trkpt lat="46.66454" lon="5.80541">
        <ele>581.73</ele>
        <time>2016-06-10T08:01:29Z</time>
      </trkpt>
      <trkpt lat="46.6646" lon="5.80553">
        <ele>579.33</ele>
        <time>2016-06-10T08:01:41Z</time>
      </trkpt>
      <trkpt lat="46.66461" lon="5.80562">
        <ele>578.85</ele>
        <time>2016-06-10T08:01:54Z</time>
      </trkpt>
      <trkpt lat="46.66466" lon="5.80579">
        <ele>578.37</ele>
        <time>2016-06-10T08:02:06Z</time>
      </trkpt>
      <trkpt lat="46.6648" lon="5.80609">
        <ele>582.7</ele>
        <time>2016-06-10T08:02:22Z</time>
      </trkpt>
      <trkpt lat="46.66493" lon="5.80619">
        <ele>588.95</ele>
        <time>2016-06-10T08:02:34Z</time>
      </trkpt>
      <trkpt lat="46.665" lon="5.80626">
        <ele>596.64</ele>
        <time>2016-06-10T08:02:52Z</time>
      </trkpt>
      <trkpt lat="46.66497" lon="5.80624">
        <ele>595.67</ele>
        <time>2016-06-10T08:03:18Z</time>
      </trkpt>
      <trkpt lat="46.66498" lon="5.80623">
        <ele>596.15</ele>
        <time>2016-06-10T08:03:46Z</time>
      </trkpt>
      <trkpt lat="46.66497" lon="5.80625">
        <ele>596.15</ele>
        <time>2016-06-10T08:04:06Z</time>
      </trkpt>
      <trkpt lat="46.66496" lon="5.80625">
        <ele>596.64</ele>
        <time>2016-06-10T08:04:08Z</time>
      </trkpt>
      <trkpt lat="46.66489" lon="5.8063">
        <ele>595.67</ele>
        <time>2016-06-10T08:04:18Z</time>
      </trkpt>
      <trkpt lat="46.66484" lon="5.80641">
        <ele>593.27</ele>
        <time>2016-06-10T08:04:29Z</time>
      </trkpt>
      <trkpt lat="46.66481" lon="5.80651">
        <ele>589.43</ele>
        <time>2016-06-10T08:04:41Z</time>
      </trkpt>
      <trkpt lat="46.66474" lon="5.80663">
        <ele>584.62</ele>
        <time>2016-06-10T08:04:52Z</time>
      </trkpt>
      <trkpt lat="46.66471" lon="5.80669">
        <ele>582.7</ele>
        <time>2016-06-10T08:04:58Z</time>
      </trkpt>
      <trkpt lat="46.66468" lon="5.80672">
        <ele>582.7</ele>
        <time>2016-06-10T08:05:00Z</time>
      </trkpt>
      <trkpt lat="46.66462" lon="5.80686">
        <ele>580.77</ele>
        <time>2016-06-10T08:05:11Z</time>
      </trkpt>
      <trkpt lat="46.66457" lon="5.80694">
        <ele>579.81</ele>
        <time>2016-06-10T08:05:20Z</time>
      </trkpt>
      <trkpt lat="46.66455" lon="5.80695">
        <ele>579.81</ele>
        <time>2016-06-10T08:05:23Z</time>
      </trkpt>
      <trkpt lat="46.66446" lon="5.80709">
        <ele>580.29</ele>
        <time>2016-06-10T08:05:34Z</time>
      </trkpt>
      <trkpt lat="46.66444" lon="5.80722">
        <ele>579.33</ele>
        <time>2016-06-10T08:05:47Z</time>
      </trkpt>
      <trkpt lat="46.66441" lon="5.80735">
        <ele>578.85</ele>
        <time>2016-06-10T08:05:58Z</time>
      </trkpt>
      <trkpt lat="46.66438" lon="5.80748">
        <ele>578.37</ele>
        <time>2016-06-10T08:06:09Z</time>
      </trkpt>
      <trkpt lat="46.66434" lon="5.80759">
        <ele>577.89</ele>
        <time>2016-06-10T08:06:19Z</time>
      </trkpt>
      <trkpt lat="46.66426" lon="5.80768">
        <ele>581.25</ele>
        <time>2016-06-10T08:06:30Z</time>
      </trkpt>
      <trkpt lat="46.66419" lon="5.80778">
        <ele>580.29</ele>
        <time>2016-06-10T08:06:41Z</time>
      </trkpt>
      <trkpt lat="46.66412" lon="5.80788">
        <ele>577.41</ele>
        <time>2016-06-10T08:06:50Z</time>
      </trkpt>
      <trkpt lat="46.66408" lon="5.808">
        <ele>577.89</ele>
        <time>2016-06-10T08:07:01Z</time>
      </trkpt>
      <trkpt lat="46.66403" lon="5.8082">
        <ele>581.25</ele>
        <time>2016-06-10T08:07:14Z</time>
      </trkpt>
      <trkpt lat="46.66395" lon="5.80837">
        <ele>583.18</ele>
        <time>2016-06-10T08:07:26Z</time>
      </trkpt>
      <trkpt lat="46.66387" lon="5.80854">
        <ele>582.22</ele>
        <time>2016-06-10T08:07:39Z</time>
      </trkpt>
      <trkpt lat="46.66383" lon="5.80862">
        <ele>582.7</ele>
        <time>2016-06-10T08:07:52Z</time>
      </trkpt>
      <trkpt lat="46.66375" lon="5.80877">
        <ele>584.62</ele>
        <time>2016-06-10T08:08:05Z</time>
      </trkpt>
      <trkpt lat="46.66369" lon="5.80889">
        <ele>586.06</ele>
        <time>2016-06-10T08:08:15Z</time>
      </trkpt>
      <trkpt lat="46.66365" lon="5.80895">
        <ele>586.06</ele>
        <time>2016-06-10T08:08:20Z</time>
      </trkpt>
      <trkpt lat="46.6636" lon="5.80903">
        <ele>587.98</ele>
        <time>2016-06-10T08:08:31Z</time>
      </trkpt>
      <trkpt lat="46.66352" lon="5.80917">
        <ele>587.98</ele>
        <time>2016-06-10T08:08:45Z</time>
      </trkpt>
      <trkpt lat="46.66347" lon="5.80929">
        <ele>588.95</ele>
        <time>2016-06-10T08:08:58Z</time>
      </trkpt>
      <trkpt lat="46.66343" lon="5.80942">
        <ele>590.39</ele>
        <time>2016-06-10T08:09:11Z</time>
      </trkpt>
      <trkpt lat="46.66338" lon="5.80957">
        <ele>588.95</ele>
        <time>2016-06-10T08:09:21Z</time>
      </trkpt>
      <trkpt lat="46.66332" lon="5.8097">
        <ele>585.1</ele>
        <time>2016-06-10T08:09:32Z</time>
      </trkpt>
      <trkpt lat="46.66326" lon="5.8099">
        <ele>587.98</ele>
        <time>2016-06-10T08:09:44Z</time>
      </trkpt>
      <trkpt lat="46.6632" lon="5.81002">
        <ele>588.46</ele>
        <time>2016-06-10T08:09:55Z</time>
      </trkpt>
      <trkpt lat="46.66321" lon="5.81017">
        <ele>588.95</ele>
        <time>2016-06-10T08:10:05Z</time>
      </trkpt>
      <trkpt lat="46.6632" lon="5.81016">
        <ele>587.98</ele>
        <time>2016-06-10T08:10:21Z</time>
      </trkpt>
      <trkpt lat="46.66318" lon="5.81016">
        <ele>587.02</ele>
        <time>2016-06-10T08:10:23Z</time>
      </trkpt>
      <trkpt lat="46.66308" lon="5.81021">
        <ele>586.06</ele>
        <time>2016-06-10T08:10:34Z</time>
      </trkpt>
      <trkpt lat="46.66302" lon="5.81031">
        <ele>584.62</ele>
        <time>2016-06-10T08:10:46Z</time>
      </trkpt>
      <trkpt lat="46.66294" lon="5.81043">
        <ele>583.66</ele>
        <time>2016-06-10T08:10:58Z</time>
      </trkpt>
      <trkpt lat="46.66284" lon="5.81057">
        <ele>586.06</ele>
        <time>2016-06-10T08:11:10Z</time>
      </trkpt>
      <trkpt lat="46.66275" lon="5.81063">
        <ele>589.43</ele>
        <time>2016-06-10T08:11:21Z</time>
      </trkpt>
      <trkpt lat="46.6627" lon="5.8107">
        <ele>588.95</ele>
        <time>2016-06-10T08:11:34Z</time>
      </trkpt>
      <trkpt lat="46.66263" lon="5.81088">
        <ele>589.91</ele>
        <time>2016-06-10T08:11:49Z</time>
      </trkpt>
      <trkpt lat="46.66255" lon="5.81097">
        <ele>588.95</ele>
        <time>2016-06-10T08:11:59Z</time>
      </trkpt>
      <trkpt lat="46.66243" lon="5.81106">
        <ele>585.1</ele>
        <time>2016-06-10T08:12:11Z</time>
      </trkpt>
      <trkpt lat="46.66236" lon="5.81111">
        <ele>584.14</ele>
        <time>2016-06-10T08:12:21Z</time>
      </trkpt>
      <trkpt lat="46.66226" lon="5.81121">
        <ele>585.58</ele>
        <time>2016-06-10T08:12:33Z</time>
      </trkpt>
      <trkpt lat="46.6622" lon="5.81129">
        <ele>587.5</ele>
        <time>2016-06-10T08:12:43Z</time>
      </trkpt>
      <trkpt lat="46.66217" lon="5.81133">
        <ele>588.46</ele>
        <time>2016-06-10T08:12:46Z</time>
      </trkpt>
      <trkpt lat="46.66207" lon="5.8115">
        <ele>590.87</ele>
        <time>2016-06-10T08:13:00Z</time>
      </trkpt>
      <trkpt lat="46.66198" lon="5.81162">
        <ele>592.79</ele>
        <time>2016-06-10T08:13:12Z</time>
      </trkpt>
      <trkpt lat="46.6619" lon="5.81175">
        <ele>595.19</ele>
        <time>2016-06-10T08:13:23Z</time>
      </trkpt>
      <trkpt lat="46.66183" lon="5.81189">
        <ele>595.67</ele>
        <time>2016-06-10T08:13:37Z</time>
      </trkpt>
      <trkpt lat="46.66176" lon="5.81201">
        <ele>592.79</ele>
        <time>2016-06-10T08:13:49Z</time>
      </trkpt>
      <trkpt lat="46.66167" lon="5.8121">
        <ele>593.27</ele>
        <time>2016-06-10T08:14:02Z</time>
      </trkpt>
      <trkpt lat="46.66164" lon="5.81213">
        <ele>594.23</ele>
        <time>2016-06-10T08:14:05Z</time>
      </trkpt>
      <trkpt lat="46.66155" lon="5.81226">
        <ele>597.6</ele>
        <time>2016-06-10T08:14:19Z</time>
      </trkpt>
      <trkpt lat="46.66147" lon="5.81241">
        <ele>599.52</ele>
        <time>2016-06-10T08:14:31Z</time>
      </trkpt>
      <trkpt lat="46.66142" lon="5.81251">
        <ele>601.44</ele>
        <time>2016-06-10T08:14:42Z</time>
      </trkpt>
      <trkpt lat="46.66136" lon="5.81262">
        <ele>601.92</ele>
        <time>2016-06-10T08:14:52Z</time>
      </trkpt>
      <trkpt lat="46.66128" lon="5.81278">
        <ele>600</ele>
        <time>2016-06-10T08:15:05Z</time>
      </trkpt>
      <trkpt lat="46.66123" lon="5.81293">
        <ele>598.08</ele>
        <time>2016-06-10T08:15:17Z</time>
      </trkpt>
      <trkpt lat="46.66118" lon="5.81307">
        <ele>598.56</ele>
        <time>2016-06-10T08:15:30Z</time>
      </trkpt>
      <trkpt lat="46.66113" lon="5.8132">
        <ele>597.12</ele>
        <time>2016-06-10T08:15:40Z</time>
      </trkpt>
      <trkpt lat="46.66108" lon="5.81338">
        <ele>594.23</ele>
        <time>2016-06-10T08:15:55Z</time>
      </trkpt>
      <trkpt lat="46.66106" lon="5.81353">
        <ele>591.35</ele>
        <time>2016-06-10T08:16:06Z</time>
      </trkpt>
      <trkpt lat="46.66103" lon="5.81371">
        <ele>589.43</ele>
        <time>2016-06-10T08:16:17Z</time>
      </trkpt>
      <trkpt lat="46.66101" lon="5.81382">
        <ele>587.98</ele>
        <time>2016-06-10T08:16:26Z</time>
      </trkpt>
      <trkpt lat="46.661" lon="5.81404">
        <ele>585.58</ele>
        <time>2016-06-10T08:16:38Z</time>
      </trkpt>
      <trkpt lat="46.66097" lon="5.81417">
        <ele>586.54</ele>
        <time>2016-06-10T08:16:49Z</time>
      </trkpt>
      <trkpt lat="46.66096" lon="5.81428">
        <ele>588.46</ele>
        <time>2016-06-10T08:17:01Z</time>
      </trkpt>
      <trkpt lat="46.66097" lon="5.81437">
        <ele>586.54</ele>
        <time>2016-06-10T08:17:14Z</time>
      </trkpt>
      <trkpt lat="46.66099" lon="5.81446">
        <ele>584.62</ele>
        <time>2016-06-10T08:17:26Z</time>
      </trkpt>
      <trkpt lat="46.66101" lon="5.81459">
        <ele>584.14</ele>
        <time>2016-06-10T08:17:37Z</time>
      </trkpt>
      <trkpt lat="46.66104" lon="5.81466">
        <ele>584.62</ele>
        <time>2016-06-10T08:17:51Z</time>
      </trkpt>
      <trkpt lat="46.66111" lon="5.81486">
        <ele>586.54</ele>
        <time>2016-06-10T08:18:03Z</time>
      </trkpt>
      <trkpt lat="46.66117" lon="5.81502">
        <ele>589.91</ele>
        <time>2016-06-10T08:18:14Z</time>
      </trkpt>
      <trkpt lat="46.66125" lon="5.81517">
        <ele>589.43</ele>
        <time>2016-06-10T08:18:25Z</time>
      </trkpt>
      <trkpt lat="46.66132" lon="5.81535">
        <ele>588.95</ele>
        <time>2016-06-10T08:18:37Z</time>
      </trkpt>
      <trkpt lat="46.6614" lon="5.81552">
        <ele>589.91</ele>
        <time>2016-06-10T08:18:49Z</time>
      </trkpt>
      <trkpt lat="46.66146" lon="5.81564">
        <ele>589.91</ele>
        <time>2016-06-10T08:19:01Z</time>
      </trkpt>
      <trkpt lat="46.66154" lon="5.81576">
        <ele>589.43</ele>
        <time>2016-06-10T08:19:14Z</time>
      </trkpt>
      <trkpt lat="46.66164" lon="5.81593">
        <ele>586.54</ele>
        <time>2016-06-10T08:19:27Z</time>
      </trkpt>
      <trkpt lat="46.66168" lon="5.81596">
        <ele>585.1</ele>
        <time>2016-06-10T08:19:42Z</time>
      </trkpt>
      <trkpt lat="46.66173" lon="5.816">
        <ele>584.14</ele>
        <time>2016-06-10T08:19:59Z</time>
      </trkpt>
      <trkpt lat="46.66174" lon="5.81602">
        <ele>583.66</ele>
        <time>2016-06-10T08:20:02Z</time>
      </trkpt>
      <trkpt lat="46.66186" lon="5.81614">
        <ele>582.7</ele>
        <time>2016-06-10T08:20:16Z</time>
      </trkpt>
      <trkpt lat="46.66193" lon="5.8162">
        <ele>584.14</ele>
        <time>2016-06-10T08:20:28Z</time>
      </trkpt>
      <trkpt lat="46.66205" lon="5.81632">
        <ele>583.66</ele>
        <time>2016-06-10T08:20:41Z</time>
      </trkpt>
      <trkpt lat="46.66206" lon="5.81632">
        <ele>584.62</ele>
        <time>2016-06-10T08:20:57Z</time>
      </trkpt>
      <trkpt lat="46.66208" lon="5.81635">
        <ele>584.14</ele>
        <time>2016-06-10T08:21:09Z</time>
      </trkpt>
      <trkpt lat="46.66217" lon="5.8164">
        <ele>582.22</ele>
        <time>2016-06-10T08:21:23Z</time>
      </trkpt>
      <trkpt lat="46.6623" lon="5.81643">
        <ele>580.29</ele>
        <time>2016-06-10T08:21:36Z</time>
      </trkpt>
      <trkpt lat="46.66247" lon="5.8165">
        <ele>582.7</ele>
        <time>2016-06-10T08:21:47Z</time>
      </trkpt>
      <trkpt lat="46.66258" lon="5.81649">
        <ele>582.7</ele>
        <time>2016-06-10T08:21:57Z</time>
      </trkpt>
      <trkpt lat="46.66265" lon="5.81648">
        <ele>582.22</ele>
        <time>2016-06-10T08:22:08Z</time>
      </trkpt>
      <trkpt lat="46.66272" lon="5.81648">
        <ele>581.25</ele>
        <time>2016-06-10T08:22:20Z</time>
      </trkpt>
      <trkpt lat="46.6628" lon="5.81647">
        <ele>580.77</ele>
        <time>2016-06-10T08:22:31Z</time>
      </trkpt>
      <trkpt lat="46.66293" lon="5.81644">
        <ele>580.77</ele>
        <time>2016-06-10T08:22:42Z</time>
      </trkpt>
      <trkpt lat="46.66305" lon="5.81637">
        <ele>580.29</ele>
        <time>2016-06-10T08:22:53Z</time>
      </trkpt>
      <trkpt lat="46.66311" lon="5.81638">
        <ele>581.73</ele>
        <time>2016-06-10T08:23:07Z</time>
      </trkpt>
      <trkpt lat="46.66313" lon="5.81638">
        <ele>583.66</ele>
        <time>2016-06-10T08:23:22Z</time>
      </trkpt>
      <trkpt lat="46.66313" lon="5.81639">
        <ele>584.14</ele>
        <time>2016-06-10T08:23:37Z</time>
      </trkpt>
      <trkpt lat="46.66313" lon="5.8164">
        <ele>584.14</ele>
        <time>2016-06-10T08:23:51Z</time>
      </trkpt>
      <trkpt lat="46.66313" lon="5.81639">
        <ele>584.14</ele>
        <time>2016-06-10T08:24:09Z</time>
      </trkpt>
      <trkpt lat="46.66313" lon="5.8164">
        <ele>584.62</ele>
        <time>2016-06-10T08:24:30Z</time>
      </trkpt>
      <trkpt lat="46.66313" lon="5.81641">
        <ele>585.1</ele>
        <time>2016-06-10T08:24:52Z</time>
      </trkpt>
      <trkpt lat="46.66312" lon="5.81641">
        <ele>585.1</ele>
        <time>2016-06-10T08:25:20Z</time>
      </trkpt>
      <trkpt lat="46.66312" lon="5.81643">
        <ele>585.58</ele>
        <time>2016-06-10T08:25:36Z</time>
      </trkpt>
      <trkpt lat="46.66312" lon="5.8165">
        <ele>587.02</ele>
        <time>2016-06-10T08:25:51Z</time>
      </trkpt>
      <trkpt lat="46.66314" lon="5.81668">
        <ele>590.87</ele>
        <time>2016-06-10T08:26:06Z</time>
      </trkpt>
      <trkpt lat="46.66321" lon="5.81666">
        <ele>588.95</ele>
        <time>2016-06-10T08:26:16Z</time>
      </trkpt>
      <trkpt lat="46.66321" lon="5.81668">
        <ele>589.43</ele>
        <time>2016-06-10T08:26:30Z</time>
      </trkpt>
      <trkpt lat="46.6632" lon="5.81668">
        <ele>589.43</ele>
        <time>2016-06-10T08:27:00Z</time>
      </trkpt>
      <trkpt lat="46.6632" lon="5.81668">
        <ele>589.43</ele>
        <time>2016-06-10T08:27:16Z</time>
      </trkpt>
      <trkpt lat="46.6632" lon="5.81668">
        <ele>589.91</ele>
        <time>2016-06-10T08:27:38Z</time>
      </trkpt>
      <trkpt lat="46.66321" lon="5.81669">
        <ele>589.91</ele>
        <time>2016-06-10T08:27:57Z</time>
      </trkpt>
      <trkpt lat="46.66321" lon="5.81668">
        <ele>589.91</ele>
        <time>2016-06-10T08:28:14Z</time>
      </trkpt>
      <trkpt lat="46.66318" lon="5.81667">
        <ele>589.91</ele>
        <time>2016-06-10T08:28:31Z</time>
      </trkpt>
      <trkpt lat="46.66316" lon="5.81657">
        <ele>589.91</ele>
        <time>2016-06-10T08:28:44Z</time>
      </trkpt>
      <trkpt lat="46.66316" lon="5.81641">
        <ele>588.46</ele>
        <time>2016-06-10T08:28:57Z</time>
      </trkpt>
      <trkpt lat="46.66315" lon="5.81644">
        <ele>587.98</ele>
        <time>2016-06-10T08:29:09Z</time>
      </trkpt>
      <trkpt lat="46.66316" lon="5.81643">
        <ele>587.02</ele>
        <time>2016-06-10T08:29:27Z</time>
      </trkpt>
      <trkpt lat="46.66316" lon="5.81642">
        <ele>587.02</ele>
        <time>2016-06-10T08:29:42Z</time>
      </trkpt>
      <trkpt lat="46.66315" lon="5.81641">
        <ele>587.02</ele>
        <time>2016-06-10T08:29:56Z</time>
      </trkpt>
      <trkpt lat="46.66315" lon="5.81641">
        <ele>587.5</ele>
        <time>2016-06-10T08:30:13Z</time>
      </trkpt>
      <trkpt lat="46.66315" lon="5.8164">
        <ele>587.98</ele>
        <time>2016-06-10T08:30:25Z</time>
      </trkpt>
      <trkpt lat="46.66315" lon="5.81639">
        <ele>587.5</ele>
        <time>2016-06-10T08:30:49Z</time>
      </trkpt>
      <trkpt lat="46.66315" lon="5.81639">
        <ele>587.02</ele>
        <time>2016-06-10T08:31:25Z</time>
      </trkpt>
      <trkpt lat="46.66315" lon="5.81639">
        <ele>587.02</ele>
        <time>2016-06-10T08:31:55Z</time>
      </trkpt>
      <trkpt lat="46.66315" lon="5.81637">
        <ele>587.02</ele>
        <time>2016-06-10T08:32:25Z</time>
      </trkpt>
      <trkpt lat="46.66316" lon="5.81637">
        <ele>587.02</ele>
        <time>2016-06-10T08:32:58Z</time>
      </trkpt>
      <trkpt lat="46.66316" lon="5.81638">
        <ele>587.98</ele>
        <time>2016-06-10T08:33:28Z</time>
      </trkpt>
      <trkpt lat="46.66316" lon="5.81638">
        <ele>587.5</ele>
        <time>2016-06-10T08:33:52Z</time>
      </trkpt>
      <trkpt lat="46.66318" lon="5.81639">
        <ele>587.98</ele>
        <time>2016-06-10T08:34:11Z</time>
      </trkpt>
      <trkpt lat="46.66318" lon="5.81643">
        <ele>588.46</ele>
        <time>2016-06-10T08:34:27Z</time>
      </trkpt>
      <trkpt lat="46.66318" lon="5.81642">
        <ele>588.46</ele>
        <time>2016-06-10T08:34:54Z</time>
      </trkpt>
      <trkpt lat="46.66317" lon="5.81639">
        <ele>588.46</ele>
        <time>2016-06-10T08:35:09Z</time>
      </trkpt>
      <trkpt lat="46.66318" lon="5.81638">
        <ele>588.46</ele>
        <time>2016-06-10T08:35:35Z</time>
      </trkpt>
      <trkpt lat="46.66317" lon="5.81637">
        <ele>588.95</ele>
        <time>2016-06-10T08:36:03Z</time>
      </trkpt>
      <trkpt lat="46.66316" lon="5.81639">
        <ele>588.95</ele>
        <time>2016-06-10T08:36:24Z</time>
      </trkpt>
      <trkpt lat="46.66315" lon="5.8164">
        <ele>588.95</ele>
        <time>2016-06-10T08:36:42Z</time>
      </trkpt>
      <trkpt lat="46.66314" lon="5.81641">
        <ele>589.43</ele>
        <time>2016-06-10T08:36:59Z</time>
      </trkpt>
      <trkpt lat="46.66314" lon="5.81641">
        <ele>589.43</ele>
        <time>2016-06-10T08:37:18Z</time>
      </trkpt>
      <trkpt lat="46.66314" lon="5.81642">
        <ele>588.46</ele>
        <time>2016-06-10T08:37:33Z</time>
      </trkpt>
      <trkpt lat="46.66314" lon="5.81641">
        <ele>588.95</ele>
        <time>2016-06-10T08:37:55Z</time>
      </trkpt>
      <trkpt lat="46.66314" lon="5.81641">
        <ele>588.95</ele>
        <time>2016-06-10T08:38:18Z</time>
      </trkpt>
      <trkpt lat="46.66314" lon="5.81642">
        <ele>587.98</ele>
        <time>2016-06-10T08:38:40Z</time>
      </trkpt>
      <trkpt lat="46.66315" lon="5.81641">
        <ele>587.02</ele>
        <time>2016-06-10T08:39:03Z</time>
      </trkpt>
      <trkpt lat="46.66315" lon="5.81642">
        <ele>587.98</ele>
        <time>2016-06-10T08:39:16Z</time>
      </trkpt>
      <trkpt lat="46.66309" lon="5.81647">
        <ele>588.46</ele>
        <time>2016-06-10T08:39:31Z</time>
      </trkpt>
      <trkpt lat="46.66306" lon="5.81649">
        <ele>588.46</ele>
        <time>2016-06-10T08:39:44Z</time>
      </trkpt>
      <trkpt lat="46.66309" lon="5.8166">
        <ele>588.46</ele>
        <time>2016-06-10T08:39:57Z</time>
      </trkpt>
      <trkpt lat="46.66311" lon="5.81673">
        <ele>586.54</ele>
        <time>2016-06-10T08:40:10Z</time>
      </trkpt>
      <trkpt lat="46.66312" lon="5.8169">
        <ele>586.54</ele>
        <time>2016-06-10T08:40:21Z</time>
      </trkpt>
      <trkpt lat="46.6631" lon="5.81701">
        <ele>587.5</ele>
        <time>2016-06-10T08:40:33Z</time>
      </trkpt>
      <trkpt lat="46.66303" lon="5.81721">
        <ele>588.46</ele>
        <time>2016-06-10T08:40:48Z</time>
      </trkpt>
      <trkpt lat="46.66304" lon="5.81733">
        <ele>589.91</ele>
        <time>2016-06-10T08:41:01Z</time>
      </trkpt>
      <trkpt lat="46.66296" lon="5.81741">
        <ele>590.87</ele>
        <time>2016-06-10T08:41:14Z</time>
      </trkpt>
      <trkpt lat="46.66288" lon="5.81748">
        <ele>588.95</ele>
        <time>2016-06-10T08:41:27Z</time>
      </trkpt>
      <trkpt lat="46.66285" lon="5.81751">
        <ele>588.46</ele>
        <time>2016-06-10T08:41:30Z</time>
      </trkpt>
      <trkpt lat="46.66276" lon="5.8176">
        <ele>589.91</ele>
        <time>2016-06-10T08:41:41Z</time>
      </trkpt>
      <trkpt lat="46.6627" lon="5.81753">
        <ele>594.71</ele>
        <time>2016-06-10T08:41:54Z</time>
      </trkpt>
      <trkpt lat="46.66275" lon="5.81743">
        <ele>595.67</ele>
        <time>2016-06-10T08:42:05Z</time>
      </trkpt>
      <trkpt lat="46.66282" lon="5.81726">
        <ele>597.6</ele>
        <time>2016-06-10T08:42:19Z</time>
      </trkpt>
      <trkpt lat="46.66286" lon="5.81701">
        <ele>600.48</ele>
        <time>2016-06-10T08:42:36Z</time>
      </trkpt>
      <trkpt lat="46.66284" lon="5.81694">
        <ele>599.52</ele>
        <time>2016-06-10T08:42:50Z</time>
      </trkpt>
      <trkpt lat="46.66286" lon="5.81697">
        <ele>599.04</ele>
        <time>2016-06-10T08:43:05Z</time>
      </trkpt>
      <trkpt lat="46.66287" lon="5.81711">
        <ele>596.15</ele>
        <time>2016-06-10T08:43:20Z</time>
      </trkpt>
      <trkpt lat="46.66284" lon="5.81719">
        <ele>596.15</ele>
        <time>2016-06-10T08:43:33Z</time>
      </trkpt>
      <trkpt lat="46.66282" lon="5.81728">
        <ele>596.15</ele>
        <time>2016-06-10T08:43:40Z</time>
      </trkpt>
      <trkpt lat="46.66274" lon="5.81744">
        <ele>594.23</ele>
        <time>2016-06-10T08:43:54Z</time>
      </trkpt>
      <trkpt lat="46.6626" lon="5.81762">
        <ele>594.71</ele>
        <time>2016-06-10T08:44:07Z</time>
      </trkpt>
      <trkpt lat="46.66258" lon="5.81762">
        <ele>595.67</ele>
        <time>2016-06-10T08:44:20Z</time>
      </trkpt>
      <trkpt lat="46.66258" lon="5.81763">
        <ele>598.56</ele>
        <time>2016-06-10T08:44:52Z</time>
      </trkpt>
      <trkpt lat="46.66261" lon="5.81758">
        <ele>599.04</ele>
        <time>2016-06-10T08:45:09Z</time>
      </trkpt>
      <trkpt lat="46.66272" lon="5.81737">
        <ele>591.83</ele>
        <time>2016-06-10T08:45:21Z</time>
      </trkpt>
      <trkpt lat="46.66281" lon="5.81722">
        <ele>591.83</ele>
        <time>2016-06-10T08:45:35Z</time>
      </trkpt>
      <trkpt lat="46.6628" lon="5.81717">
        <ele>592.79</ele>
        <time>2016-06-10T08:45:39Z</time>
      </trkpt>
      <trkpt lat="46.66274" lon="5.81708">
        <ele>593.75</ele>
        <time>2016-06-10T08:45:50Z</time>
      </trkpt>
      <trkpt lat="46.66272" lon="5.81704">
        <ele>593.27</ele>
        <time>2016-06-10T08:46:04Z</time>
      </trkpt>
      <trkpt lat="46.66272" lon="5.81699">
        <ele>592.31</ele>
        <time>2016-06-10T08:46:12Z</time>
      </trkpt>
      <trkpt lat="46.66268" lon="5.81698">
        <ele>591.35</ele>
        <time>2016-06-10T08:46:23Z</time>
      </trkpt>
      <trkpt lat="46.6626" lon="5.81698">
        <ele>592.79</ele>
        <time>2016-06-10T08:46:34Z</time>
      </trkpt>
      <trkpt lat="46.6625" lon="5.81702">
        <ele>595.67</ele>
        <time>2016-06-10T08:46:48Z</time>
      </trkpt>
      <trkpt lat="46.66257" lon="5.81711">
        <ele>595.67</ele>
        <time>2016-06-10T08:47:01Z</time>
      </trkpt>
      <trkpt lat="46.66261" lon="5.81724">
        <ele>594.71</ele>
        <time>2016-06-10T08:47:12Z</time>
      </trkpt>
      <trkpt lat="46.66261" lon="5.81731">
        <ele>594.71</ele>
        <time>2016-06-10T08:47:26Z</time>
      </trkpt>
      <trkpt lat="46.66263" lon="5.81742">
        <ele>593.75</ele>
        <time>2016-06-10T08:47:40Z</time>
      </trkpt>
      <trkpt lat="46.66263" lon="5.81744">
        <ele>592.31</ele>
        <time>2016-06-10T08:48:01Z</time>
      </trkpt>
      <trkpt lat="46.66262" lon="5.81733">
        <ele>592.31</ele>
        <time>2016-06-10T08:48:15Z</time>
      </trkpt>
      <trkpt lat="46.66259" lon="5.81718">
        <ele>593.27</ele>
        <time>2016-06-10T08:48:28Z</time>
      </trkpt>
      <trkpt lat="46.66253" lon="5.81707">
        <ele>593.27</ele>
        <time>2016-06-10T08:48:39Z</time>
      </trkpt>
      <trkpt lat="46.66244" lon="5.81693">
        <ele>594.71</ele>
        <time>2016-06-10T08:48:53Z</time>
      </trkpt>
      <trkpt lat="46.66239" lon="5.81688">
        <ele>594.23</ele>
        <time>2016-06-10T08:49:06Z</time>
      </trkpt>
      <trkpt lat="46.66237" lon="5.81684">
        <ele>594.23</ele>
        <time>2016-06-10T08:49:17Z</time>
      </trkpt>
      <trkpt lat="46.66227" lon="5.81684">
        <ele>594.71</ele>
        <time>2016-06-10T08:49:29Z</time>
      </trkpt>
      <trkpt lat="46.66226" lon="5.81695">
        <ele>594.23</ele>
        <time>2016-06-10T08:49:41Z</time>
      </trkpt>
      <trkpt lat="46.66223" lon="5.81711">
        <ele>591.83</ele>
        <time>2016-06-10T08:49:52Z</time>
      </trkpt>
      <trkpt lat="46.66211" lon="5.81729">
        <ele>592.31</ele>
        <time>2016-06-10T08:50:07Z</time>
      </trkpt>
      <trkpt lat="46.66199" lon="5.81739">
        <ele>591.35</ele>
        <time>2016-06-10T08:50:19Z</time>
      </trkpt>
      <trkpt lat="46.6619" lon="5.81741">
        <ele>590.87</ele>
        <time>2016-06-10T08:50:28Z</time>
      </trkpt>
      <trkpt lat="46.66182" lon="5.81733">
        <ele>590.39</ele>
        <time>2016-06-10T08:50:40Z</time>
      </trkpt>
      <trkpt lat="46.66178" lon="5.81726">
        <ele>592.31</ele>
        <time>2016-06-10T08:50:52Z</time>
      </trkpt>
      <trkpt lat="46.66183" lon="5.81731">
        <ele>594.23</ele>
        <time>2016-06-10T08:51:04Z</time>
      </trkpt>
      <trkpt lat="46.66191" lon="5.81735">
        <ele>592.79</ele>
        <time>2016-06-10T08:51:15Z</time>
      </trkpt>
      <trkpt lat="46.66195" lon="5.81736">
        <ele>593.75</ele>
        <time>2016-06-10T08:51:27Z</time>
      </trkpt>
      <trkpt lat="46.66198" lon="5.81737">
        <ele>591.83</ele>
        <time>2016-06-10T08:51:51Z</time>
      </trkpt>
      <trkpt lat="46.66198" lon="5.81735">
        <ele>592.79</ele>
        <time>2016-06-10T08:52:09Z</time>
      </trkpt>
      <trkpt lat="46.66202" lon="5.81733">
        <ele>593.27</ele>
        <time>2016-06-10T08:52:31Z</time>
      </trkpt>
      <trkpt lat="46.66204" lon="5.81729">
        <ele>591.83</ele>
        <time>2016-06-10T08:52:43Z</time>
      </trkpt>
      <trkpt lat="46.66205" lon="5.81728">
        <ele>591.83</ele>
        <time>2016-06-10T08:52:59Z</time>
      </trkpt>
      <trkpt lat="46.66206" lon="5.81728">
        <ele>593.75</ele>
        <time>2016-06-10T08:53:20Z</time>
      </trkpt>
      <trkpt lat="46.66215" lon="5.81722">
        <ele>590.39</ele>
        <time>2016-06-10T08:53:35Z</time>
      </trkpt>
      <trkpt lat="46.66223" lon="5.81703">
        <ele>588.46</ele>
        <time>2016-06-10T08:53:49Z</time>
      </trkpt>
      <trkpt lat="46.66224" lon="5.8169">
        <ele>589.91</ele>
        <time>2016-06-10T08:54:02Z</time>
      </trkpt>
      <trkpt lat="46.66227" lon="5.81685">
        <ele>589.91</ele>
        <time>2016-06-10T08:54:22Z</time>
      </trkpt>
      <trkpt lat="46.66235" lon="5.81674">
        <ele>590.87</ele>
        <time>2016-06-10T08:54:36Z</time>
      </trkpt>
      <trkpt lat="46.66235" lon="5.81673">
        <ele>590.87</ele>
        <time>2016-06-10T08:55:06Z</time>
      </trkpt>
      <trkpt lat="46.66242" lon="5.81675">
        <ele>592.31</ele>
        <time>2016-06-10T08:55:18Z</time>
      </trkpt>
      <trkpt lat="46.66246" lon="5.81676">
        <ele>592.31</ele>
        <time>2016-06-10T08:55:25Z</time>
      </trkpt>
      <trkpt lat="46.66262" lon="5.81681">
        <ele>592.79</ele>
        <time>2016-06-10T08:55:38Z</time>
      </trkpt>
      <trkpt lat="46.66274" lon="5.81689">
        <ele>590.39</ele>
        <time>2016-06-10T08:55:48Z</time>
      </trkpt>
      <trkpt lat="46.66279" lon="5.81698">
        <ele>588.46</ele>
        <time>2016-06-10T08:55:54Z</time>
      </trkpt>
      <trkpt lat="46.6628" lon="5.81701">
        <ele>587.98</ele>
        <time>2016-06-10T08:55:56Z</time>
      </trkpt>
      <trkpt lat="46.66281" lon="5.81715">
        <ele>587.02</ele>
        <time>2016-06-10T08:56:05Z</time>
      </trkpt>
      <trkpt lat="46.66278" lon="5.81725">
        <ele>586.54</ele>
        <time>2016-06-10T08:56:12Z</time>
      </trkpt>
      <trkpt lat="46.66276" lon="5.81735">
        <ele>585.58</ele>
        <time>2016-06-10T08:56:20Z</time>
      </trkpt>
      <trkpt lat="46.66272" lon="5.81747">
        <ele>587.02</ele>
        <time>2016-06-10T08:56:34Z</time>
      </trkpt>
      <trkpt lat="46.6627" lon="5.81751">
        <ele>587.02</ele>
        <time>2016-06-10T08:56:37Z</time>
      </trkpt>
      <trkpt lat="46.66267" lon="5.81757">
        <ele>586.54</ele>
        <time>2016-06-10T08:56:42Z</time>
      </trkpt>
      <trkpt lat="46.66258" lon="5.81774">
        <ele>586.06</ele>
        <time>2016-06-10T08:56:54Z</time>
      </trkpt>
      <trkpt lat="46.66247" lon="5.81794">
        <ele>586.06</ele>
        <time>2016-06-10T08:57:07Z</time>
      </trkpt>
      <trkpt lat="46.66238" lon="5.81814">
        <ele>586.54</ele>
        <time>2016-06-10T08:57:19Z</time>
      </trkpt>
      <trkpt lat="46.66229" lon="5.81828">
        <ele>586.06</ele>
        <time>2016-06-10T08:57:30Z</time>
      </trkpt>
      <trkpt lat="46.66221" lon="5.81841">
        <ele>586.06</ele>
        <time>2016-06-10T08:57:39Z</time>
      </trkpt>
      <trkpt lat="46.66217" lon="5.81849">
        <ele>585.1</ele>
        <time>2016-06-10T08:57:45Z</time>
      </trkpt>
      <trkpt lat="46.66202" lon="5.81858">
        <ele>587.98</ele>
        <time>2016-06-10T08:57:59Z</time>
      </trkpt>
      <trkpt lat="46.66185" lon="5.81854">
        <ele>590.87</ele>
        <time>2016-06-10T08:58:14Z</time>
      </trkpt>
      <trkpt lat="46.66177" lon="5.81853">
        <ele>592.31</ele>
        <time>2016-06-10T08:58:24Z</time>
      </trkpt>
      <trkpt lat="46.66167" lon="5.81851">
        <ele>592.79</ele>
        <time>2016-06-10T08:58:36Z</time>
      </trkpt>
      <trkpt lat="46.6616" lon="5.81847">
        <ele>593.27</ele>
        <time>2016-06-10T08:58:47Z</time>
      </trkpt>
      <trkpt lat="46.66152" lon="5.81836">
        <ele>593.75</ele>
        <time>2016-06-10T08:59:00Z</time>
      </trkpt>
      <trkpt lat="46.66147" lon="5.81827">
        <ele>593.75</ele>
        <time>2016-06-10T08:59:10Z</time>
      </trkpt>
      <trkpt lat="46.66138" lon="5.8181">
        <ele>596.64</ele>
        <time>2016-06-10T08:59:23Z</time>
      </trkpt>
      <trkpt lat="46.66134" lon="5.81798">
        <ele>597.12</ele>
        <time>2016-06-10T08:59:37Z</time>
      </trkpt>
      <trkpt lat="46.6613" lon="5.81786">
        <ele>599.52</ele>
        <time>2016-06-10T08:59:49Z</time>
      </trkpt>
      <trkpt lat="46.66123" lon="5.81782">
        <ele>600.96</ele>
        <time>2016-06-10T09:00:02Z</time>
      </trkpt>
      <trkpt lat="46.66113" lon="5.81781">
        <ele>603.36</ele>
        <time>2016-06-10T09:00:16Z</time>
      </trkpt>
      <trkpt lat="46.66106" lon="5.81776">
        <ele>605.29</ele>
        <time>2016-06-10T09:00:29Z</time>
      </trkpt>
      <trkpt lat="46.66096" lon="5.8177">
        <ele>608.65</ele>
        <time>2016-06-10T09:00:42Z</time>
      </trkpt>
      <trkpt lat="46.66088" lon="5.81767">
        <ele>610.09</ele>
        <time>2016-06-10T09:00:55Z</time>
      </trkpt>
      <trkpt lat="46.66078" lon="5.81764">
        <ele>610.57</ele>
        <time>2016-06-10T09:01:08Z</time>
      </trkpt>
      <trkpt lat="46.66068" lon="5.81765">
        <ele>614.42</ele>
        <time>2016-06-10T09:01:20Z</time>
      </trkpt>
      <trkpt lat="46.6606" lon="5.81764">
        <ele>616.34</ele>
        <time>2016-06-10T09:01:34Z</time>
      </trkpt>
      <trkpt lat="46.66048" lon="5.81762">
        <ele>617.78</ele>
        <time>2016-06-10T09:01:47Z</time>
      </trkpt>
      <trkpt lat="46.66043" lon="5.81759">
        <ele>619.71</ele>
        <time>2016-06-10T09:02:00Z</time>
      </trkpt>
      <trkpt lat="46.66039" lon="5.81758">
        <ele>620.19</ele>
        <time>2016-06-10T09:02:15Z</time>
      </trkpt>
      <trkpt lat="46.66035" lon="5.81763">
        <ele>622.11</ele>
        <time>2016-06-10T09:02:28Z</time>
      </trkpt>
      <trkpt lat="46.66032" lon="5.81768">
        <ele>623.55</ele>
        <time>2016-06-10T09:02:42Z</time>
      </trkpt>
      <trkpt lat="46.66029" lon="5.81774">
        <ele>623.07</ele>
        <time>2016-06-10T09:02:53Z</time>
      </trkpt>
      <trkpt lat="46.66028" lon="5.81777">
        <ele>622.11</ele>
        <time>2016-06-10T09:03:07Z</time>
      </trkpt>
      <trkpt lat="46.66018" lon="5.81788">
        <ele>626.92</ele>
        <time>2016-06-10T09:03:21Z</time>
      </trkpt>
      <trkpt lat="46.6601" lon="5.8179">
        <ele>627.88</ele>
        <time>2016-06-10T09:03:36Z</time>
      </trkpt>
      <trkpt lat="46.66003" lon="5.81787">
        <ele>627.4</ele>
        <time>2016-06-10T09:03:49Z</time>
      </trkpt>
      <trkpt lat="46.65992" lon="5.81783">
        <ele>626.44</ele>
        <time>2016-06-10T09:04:00Z</time>
      </trkpt>
      <trkpt lat="46.65982" lon="5.8178">
        <ele>625.96</ele>
        <time>2016-06-10T09:04:13Z</time>
      </trkpt>
      <trkpt lat="46.65969" lon="5.81784">
        <ele>630.76</ele>
        <time>2016-06-10T09:04:26Z</time>
      </trkpt>
      <trkpt lat="46.65964" lon="5.81786">
        <ele>632.2</ele>
        <time>2016-06-10T09:04:38Z</time>
      </trkpt>
      <trkpt lat="46.65963" lon="5.81787">
        <ele>633.17</ele>
        <time>2016-06-10T09:04:48Z</time>
      </trkpt>
      <trkpt lat="46.65961" lon="5.81787">
        <ele>632.68</ele>
        <time>2016-06-10T09:04:55Z</time>
      </trkpt>
      <trkpt lat="46.65957" lon="5.81788">
        <ele>633.17</ele>
        <time>2016-06-10T09:05:01Z</time>
      </trkpt>
      <trkpt lat="46.65953" lon="5.81781">
        <ele>634.61</ele>
        <time>2016-06-10T09:05:10Z</time>
      </trkpt>
      <trkpt lat="46.65947" lon="5.81772">
        <ele>634.13</ele>
        <time>2016-06-10T09:05:20Z</time>
      </trkpt>
      <trkpt lat="46.65947" lon="5.81762">
        <ele>632.68</ele>
        <time>2016-06-10T09:05:32Z</time>
      </trkpt>
      <trkpt lat="46.65945" lon="5.81748">
        <ele>630.28</ele>
        <time>2016-06-10T09:05:43Z</time>
      </trkpt>
      <trkpt lat="46.65945" lon="5.81734">
        <ele>628.36</ele>
        <time>2016-06-10T09:05:56Z</time>
      </trkpt>
      <trkpt lat="46.65946" lon="5.81724">
        <ele>627.4</ele>
        <time>2016-06-10T09:06:08Z</time>
      </trkpt>
      <trkpt lat="46.65952" lon="5.81713">
        <ele>626.92</ele>
        <time>2016-06-10T09:06:20Z</time>
      </trkpt>
      <trkpt lat="46.6596" lon="5.81702">
        <ele>627.88</ele>
        <time>2016-06-10T09:06:31Z</time>
      </trkpt>
      <trkpt lat="46.65968" lon="5.81693">
        <ele>627.4</ele>
        <time>2016-06-10T09:06:48Z</time>
      </trkpt>
      <trkpt lat="46.65977" lon="5.81679">
        <ele>628.36</ele>
        <time>2016-06-10T09:07:02Z</time>
      </trkpt>
      <trkpt lat="46.6599" lon="5.8167">
        <ele>629.8</ele>
        <time>2016-06-10T09:07:12Z</time>
      </trkpt>
      <trkpt lat="46.65995" lon="5.81655">
        <ele>628.36</ele>
        <time>2016-06-10T09:07:26Z</time>
      </trkpt>
      <trkpt lat="46.65997" lon="5.81644">
        <ele>626.44</ele>
        <time>2016-06-10T09:07:38Z</time>
      </trkpt>
      <trkpt lat="46.65995" lon="5.81634">
        <ele>626.44</ele>
        <time>2016-06-10T09:07:45Z</time>
      </trkpt>
      <trkpt lat="46.65992" lon="5.81622">
        <ele>627.88</ele>
        <time>2016-06-10T09:07:56Z</time>
      </trkpt>
      <trkpt lat="46.65986" lon="5.81611">
        <ele>630.76</ele>
        <time>2016-06-10T09:08:08Z</time>
      </trkpt>
      <trkpt lat="46.6598" lon="5.81603">
        <ele>633.17</ele>
        <time>2016-06-10T09:08:20Z</time>
      </trkpt>
      <trkpt lat="46.65976" lon="5.81599">
        <ele>635.09</ele>
        <time>2016-06-10T09:08:26Z</time>
      </trkpt>
      <trkpt lat="46.65969" lon="5.81596">
        <ele>637.49</ele>
        <time>2016-06-10T09:08:40Z</time>
      </trkpt>
      <trkpt lat="46.65965" lon="5.8159">
        <ele>638.93</ele>
        <time>2016-06-10T09:08:52Z</time>
      </trkpt>
      <trkpt lat="46.65953" lon="5.8158">
        <ele>642.78</ele>
        <time>2016-06-10T09:09:05Z</time>
      </trkpt>
      <trkpt lat="46.65947" lon="5.81578">
        <ele>645.18</ele>
        <time>2016-06-10T09:09:13Z</time>
      </trkpt>
      <trkpt lat="46.65941" lon="5.81574">
        <ele>645.18</ele>
        <time>2016-06-10T09:09:23Z</time>
      </trkpt>
      <trkpt lat="46.65933" lon="5.81565">
        <ele>644.7</ele>
        <time>2016-06-10T09:09:36Z</time>
      </trkpt>
      <trkpt lat="46.65931" lon="5.81562">
        <ele>644.7</ele>
        <time>2016-06-10T09:09:39Z</time>
      </trkpt>
      <trkpt lat="46.65929" lon="5.81559">
        <ele>644.7</ele>
        <time>2016-06-10T09:09:43Z</time>
      </trkpt>
      <trkpt lat="46.65921" lon="5.81555">
        <ele>647.1</ele>
        <time>2016-06-10T09:09:54Z</time>
      </trkpt>
      <trkpt lat="46.65909" lon="5.81548">
        <ele>651.91</ele>
        <time>2016-06-10T09:10:05Z</time>
      </trkpt>
      <trkpt lat="46.65902" lon="5.81541">
        <ele>652.39</ele>
        <time>2016-06-10T09:10:13Z</time>
      </trkpt>
      <trkpt lat="46.65892" lon="5.81531">
        <ele>651.91</ele>
        <time>2016-06-10T09:10:24Z</time>
      </trkpt>
      <trkpt lat="46.65886" lon="5.81519">
        <ele>650.95</ele>
        <time>2016-06-10T09:10:35Z</time>
      </trkpt>
      <trkpt lat="46.65883" lon="5.81516">
        <ele>650.95</ele>
        <time>2016-06-10T09:10:45Z</time>
      </trkpt>
      <trkpt lat="46.65876" lon="5.81517">
        <ele>649.99</ele>
        <time>2016-06-10T09:10:57Z</time>
      </trkpt>
      <trkpt lat="46.65872" lon="5.8152">
        <ele>648.07</ele>
        <time>2016-06-10T09:11:10Z</time>
      </trkpt>
      <trkpt lat="46.65863" lon="5.8152">
        <ele>646.62</ele>
        <time>2016-06-10T09:11:21Z</time>
      </trkpt>
      <trkpt lat="46.65857" lon="5.81514">
        <ele>648.07</ele>
        <time>2016-06-10T09:11:33Z</time>
      </trkpt>
      <trkpt lat="46.65852" lon="5.81508">
        <ele>648.55</ele>
        <time>2016-06-10T09:11:47Z</time>
      </trkpt>
      <trkpt lat="46.65848" lon="5.81508">
        <ele>647.59</ele>
        <time>2016-06-10T09:12:01Z</time>
      </trkpt>
      <trkpt lat="46.65846" lon="5.81508">
        <ele>646.62</ele>
        <time>2016-06-10T09:12:16Z</time>
      </trkpt>
      <trkpt lat="46.65842" lon="5.81505">
        <ele>646.14</ele>
        <time>2016-06-10T09:12:28Z</time>
      </trkpt>
      <trkpt lat="46.65838" lon="5.81505">
        <ele>647.1</ele>
        <time>2016-06-10T09:12:42Z</time>
      </trkpt>
      <trkpt lat="46.65831" lon="5.81504">
        <ele>647.59</ele>
        <time>2016-06-10T09:12:55Z</time>
      </trkpt>
      <trkpt lat="46.65821" lon="5.81499">
        <ele>646.62</ele>
        <time>2016-06-10T09:13:08Z</time>
      </trkpt>
      <trkpt lat="46.6581" lon="5.81495">
        <ele>646.14</ele>
        <time>2016-06-10T09:13:21Z</time>
      </trkpt>
      <trkpt lat="46.65805" lon="5.81496">
        <ele>646.14</ele>
        <time>2016-06-10T09:13:32Z</time>
      </trkpt>
      <trkpt lat="46.65798" lon="5.81499">
        <ele>645.66</ele>
        <time>2016-06-10T09:13:43Z</time>
      </trkpt>
      <trkpt lat="46.6579" lon="5.81501">
        <ele>644.7</ele>
        <time>2016-06-10T09:13:52Z</time>
      </trkpt>
      <trkpt lat="46.65779" lon="5.81501">
        <ele>642.78</ele>
        <time>2016-06-10T09:14:02Z</time>
      </trkpt>
      <trkpt lat="46.65767" lon="5.81507">
        <ele>642.78</ele>
        <time>2016-06-10T09:14:14Z</time>
      </trkpt>
      <trkpt lat="46.65762" lon="5.81509">
        <ele>643.26</ele>
        <time>2016-06-10T09:14:24Z</time>
      </trkpt>
      <trkpt lat="46.65755" lon="5.81514">
        <ele>640.38</ele>
        <time>2016-06-10T09:14:34Z</time>
      </trkpt>
      <trkpt lat="46.65749" lon="5.81524">
        <ele>638.45</ele>
        <time>2016-06-10T09:14:45Z</time>
      </trkpt>
      <trkpt lat="46.65745" lon="5.81534">
        <ele>637.97</ele>
        <time>2016-06-10T09:14:56Z</time>
      </trkpt>
      <trkpt lat="46.65739" lon="5.81541">
        <ele>636.53</ele>
        <time>2016-06-10T09:15:06Z</time>
      </trkpt>
      <trkpt lat="46.65731" lon="5.81554">
        <ele>636.05</ele>
        <time>2016-06-10T09:15:17Z</time>
      </trkpt>
      <trkpt lat="46.65725" lon="5.81565">
        <ele>634.13</ele>
        <time>2016-06-10T09:15:29Z</time>
      </trkpt>
      <trkpt lat="46.65722" lon="5.8157">
        <ele>633.65</ele>
        <time>2016-06-10T09:15:42Z</time>
      </trkpt>
      <trkpt lat="46.65716" lon="5.81582">
        <ele>630.28</ele>
        <time>2016-06-10T09:15:54Z</time>
      </trkpt>
      <trkpt lat="46.65712" lon="5.81594">
        <ele>627.88</ele>
        <time>2016-06-10T09:16:04Z</time>
      </trkpt>
      <trkpt lat="46.65707" lon="5.81605">
        <ele>626.44</ele>
        <time>2016-06-10T09:16:14Z</time>
      </trkpt>
      <trkpt lat="46.65696" lon="5.81622">
        <ele>624.51</ele>
        <time>2016-06-10T09:16:28Z</time>
      </trkpt>
      <trkpt lat="46.65693" lon="5.81627">
        <ele>625.47</ele>
        <time>2016-06-10T09:16:32Z</time>
      </trkpt>
      <trkpt lat="46.65678" lon="5.81643">
        <ele>625.47</ele>
        <time>2016-06-10T09:16:46Z</time>
      </trkpt>
      <trkpt lat="46.65668" lon="5.81647">
        <ele>626.92</ele>
        <time>2016-06-10T09:16:59Z</time>
      </trkpt>
      <trkpt lat="46.65659" lon="5.81648">
        <ele>626.44</ele>
        <time>2016-06-10T09:17:10Z</time>
      </trkpt>
      <trkpt lat="46.65642" lon="5.81652">
        <ele>629.32</ele>
        <time>2016-06-10T09:17:22Z</time>
      </trkpt>
      <trkpt lat="46.65639" lon="5.81652">
        <ele>629.32</ele>
        <time>2016-06-10T09:17:28Z</time>
      </trkpt>
      <trkpt lat="46.65633" lon="5.81649">
        <ele>630.28</ele>
        <time>2016-06-10T09:17:34Z</time>
      </trkpt>
      <trkpt lat="46.65625" lon="5.81637">
        <ele>632.2</ele>
        <time>2016-06-10T09:17:46Z</time>
      </trkpt>
      <trkpt lat="46.65617" lon="5.81632">
        <ele>630.28</ele>
        <time>2016-06-10T09:17:59Z</time>
      </trkpt>
      <trkpt lat="46.65612" lon="5.81627">
        <ele>629.8</ele>
        <time>2016-06-10T09:18:05Z</time>
      </trkpt>
      <trkpt lat="46.65596" lon="5.81627">
        <ele>628.84</ele>
        <time>2016-06-10T09:18:18Z</time>
      </trkpt>
      <trkpt lat="46.6559" lon="5.81636">
        <ele>624.51</ele>
        <time>2016-06-10T09:18:30Z</time>
      </trkpt>
      <trkpt lat="46.65589" lon="5.81638">
        <ele>623.07</ele>
        <time>2016-06-10T09:18:32Z</time>
      </trkpt>
      <trkpt lat="46.65584" lon="5.81648">
        <ele>619.23</ele>
        <time>2016-06-10T09:18:44Z</time>
      </trkpt>
      <trkpt lat="46.65581" lon="5.81654">
        <ele>618.26</ele>
        <time>2016-06-10T09:18:50Z</time>
      </trkpt>
      <trkpt lat="46.65574" lon="5.81671">
        <ele>614.42</ele>
        <time>2016-06-10T09:19:01Z</time>
      </trkpt>
      <trkpt lat="46.65568" lon="5.81691">
        <ele>613.94</ele>
        <time>2016-06-10T09:19:12Z</time>
      </trkpt>
      <trkpt lat="46.65559" lon="5.8171">
        <ele>613.46</ele>
        <time>2016-06-10T09:19:23Z</time>
      </trkpt>
      <trkpt lat="46.65554" lon="5.8173">
        <ele>616.82</ele>
        <time>2016-06-10T09:19:36Z</time>
      </trkpt>
      <trkpt lat="46.65548" lon="5.8175">
        <ele>619.23</ele>
        <time>2016-06-10T09:19:47Z</time>
      </trkpt>
      <trkpt lat="46.65537" lon="5.81767">
        <ele>616.82</ele>
        <time>2016-06-10T09:20:00Z</time>
      </trkpt>
      <trkpt lat="46.65528" lon="5.81782">
        <ele>614.9</ele>
        <time>2016-06-10T09:20:12Z</time>
      </trkpt>
      <trkpt lat="46.6552" lon="5.81793">
        <ele>612.5</ele>
        <time>2016-06-10T09:20:22Z</time>
      </trkpt>
      <trkpt lat="46.65512" lon="5.81809">
        <ele>611.54</ele>
        <time>2016-06-10T09:20:34Z</time>
      </trkpt>
      <trkpt lat="46.65502" lon="5.81839">
        <ele>617.78</ele>
        <time>2016-06-10T09:20:49Z</time>
      </trkpt>
      <trkpt lat="46.65494" lon="5.81858">
        <ele>618.26</ele>
        <time>2016-06-10T09:21:02Z</time>
      </trkpt>
      <trkpt lat="46.65487" lon="5.81866">
        <ele>616.82</ele>
        <time>2016-06-10T09:21:10Z</time>
      </trkpt>
      <trkpt lat="46.65477" lon="5.8187">
        <ele>616.82</ele>
        <time>2016-06-10T09:21:20Z</time>
      </trkpt>
      <trkpt lat="46.65473" lon="5.8186">
        <ele>615.86</ele>
        <time>2016-06-10T09:21:28Z</time>
      </trkpt>
      <trkpt lat="46.65472" lon="5.81843">
        <ele>614.9</ele>
        <time>2016-06-10T09:21:39Z</time>
      </trkpt>
      <trkpt lat="46.65468" lon="5.81835">
        <ele>614.42</ele>
        <time>2016-06-10T09:21:45Z</time>
      </trkpt>
      <trkpt lat="46.65464" lon="5.81832">
        <ele>614.9</ele>
        <time>2016-06-10T09:21:50Z</time>
      </trkpt>
      <trkpt lat="46.65458" lon="5.81831">
        <ele>614.42</ele>
        <time>2016-06-10T09:21:56Z</time>
      </trkpt>
      <trkpt lat="46.65445" lon="5.81833">
        <ele>612.5</ele>
        <time>2016-06-10T09:22:09Z</time>
      </trkpt>
      <trkpt lat="46.65434" lon="5.81833">
        <ele>610.57</ele>
        <time>2016-06-10T09:22:20Z</time>
      </trkpt>
      <trkpt lat="46.65429" lon="5.81832">
        <ele>609.61</ele>
        <time>2016-06-10T09:22:24Z</time>
      </trkpt>
      <trkpt lat="46.6542" lon="5.81833">
        <ele>608.65</ele>
        <time>2016-06-10T09:22:32Z</time>
      </trkpt>
      <trkpt lat="46.65406" lon="5.81844">
        <ele>607.69</ele>
        <time>2016-06-10T09:22:46Z</time>
      </trkpt>
      <trkpt lat="46.65399" lon="5.81848">
        <ele>607.69</ele>
        <time>2016-06-10T09:22:52Z</time>
      </trkpt>
      <trkpt lat="46.65386" lon="5.81855">
        <ele>606.25</ele>
        <time>2016-06-10T09:23:04Z</time>
      </trkpt>
      <trkpt lat="46.65376" lon="5.81864">
        <ele>604.33</ele>
        <time>2016-06-10T09:23:14Z</time>
      </trkpt>
      <trkpt lat="46.65371" lon="5.81868">
        <ele>603.85</ele>
        <time>2016-06-10T09:23:24Z</time>
      </trkpt>
      <trkpt lat="46.65365" lon="5.81872">
        <ele>602.4</ele>
        <time>2016-06-10T09:23:29Z</time>
      </trkpt>
      <trkpt lat="46.65351" lon="5.81881">
        <ele>602.4</ele>
        <time>2016-06-10T09:23:43Z</time>
      </trkpt>
      <trkpt lat="46.65341" lon="5.81888">
        <ele>602.4</ele>
        <time>2016-06-10T09:23:54Z</time>
      </trkpt>
      <trkpt lat="46.65332" lon="5.81893">
        <ele>601.92</ele>
        <time>2016-06-10T09:24:03Z</time>
      </trkpt>
      <trkpt lat="46.65329" lon="5.81894">
        <ele>602.4</ele>
        <time>2016-06-10T09:24:06Z</time>
      </trkpt>
      <trkpt lat="46.65322" lon="5.81903">
        <ele>605.29</ele>
        <time>2016-06-10T09:24:13Z</time>
      </trkpt>
      <trkpt lat="46.65318" lon="5.81906">
        <ele>605.29</ele>
        <time>2016-06-10T09:24:16Z</time>
      </trkpt>
      <trkpt lat="46.65309" lon="5.8191">
        <ele>605.77</ele>
        <time>2016-06-10T09:24:24Z</time>
      </trkpt>
      <trkpt lat="46.65301" lon="5.81912">
        <ele>606.73</ele>
        <time>2016-06-10T09:24:30Z</time>
      </trkpt>
      <trkpt lat="46.65294" lon="5.81917">
        <ele>609.61</ele>
        <time>2016-06-10T09:24:36Z</time>
      </trkpt>
      <trkpt lat="46.65287" lon="5.8192">
        <ele>611.54</ele>
        <time>2016-06-10T09:24:41Z</time>
      </trkpt>
      <trkpt lat="46.65276" lon="5.81927">
        <ele>612.98</ele>
        <time>2016-06-10T09:24:50Z</time>
      </trkpt>
      <trkpt lat="46.65269" lon="5.81933">
        <ele>613.94</ele>
        <time>2016-06-10T09:24:57Z</time>
      </trkpt>
      <trkpt lat="46.65267" lon="5.81934">
        <ele>613.94</ele>
        <time>2016-06-10T09:25:00Z</time>
      </trkpt>
      <trkpt lat="46.65255" lon="5.81941">
        <ele>611.06</ele>
        <time>2016-06-10T09:25:12Z</time>
      </trkpt>
      <trkpt lat="46.65253" lon="5.81943">
        <ele>611.54</ele>
        <time>2016-06-10T09:25:14Z</time>
      </trkpt>
      <trkpt lat="46.65242" lon="5.81951">
        <ele>610.57</ele>
        <time>2016-06-10T09:25:27Z</time>
      </trkpt>
      <trkpt lat="46.65232" lon="5.81959">
        <ele>611.54</ele>
        <time>2016-06-10T09:25:40Z</time>
      </trkpt>
      <trkpt lat="46.65222" lon="5.81968">
        <ele>612.5</ele>
        <time>2016-06-10T09:25:49Z</time>
      </trkpt>
      <trkpt lat="46.65209" lon="5.81975">
        <ele>615.38</ele>
        <time>2016-06-10T09:26:00Z</time>
      </trkpt>
      <trkpt lat="46.65201" lon="5.81982">
        <ele>616.34</ele>
        <time>2016-06-10T09:26:08Z</time>
      </trkpt>
      <trkpt lat="46.65198" lon="5.81985">
        <ele>616.34</ele>
        <time>2016-06-10T09:26:11Z</time>
      </trkpt>
      <trkpt lat="46.65188" lon="5.81992">
        <ele>615.86</ele>
        <time>2016-06-10T09:26:21Z</time>
      </trkpt>
      <trkpt lat="46.65175" lon="5.82005">
        <ele>616.82</ele>
        <time>2016-06-10T09:26:36Z</time>
      </trkpt>
      <trkpt lat="46.65169" lon="5.8201">
        <ele>615.86</ele>
        <time>2016-06-10T09:26:43Z</time>
      </trkpt>
      <trkpt lat="46.65161" lon="5.82018">
        <ele>615.38</ele>
        <time>2016-06-10T09:26:52Z</time>
      </trkpt>
      <trkpt lat="46.65148" lon="5.82025">
        <ele>614.9</ele>
        <time>2016-06-10T09:27:05Z</time>
      </trkpt>
      <trkpt lat="46.65133" lon="5.82031">
        <ele>612.02</ele>
        <time>2016-06-10T09:27:21Z</time>
      </trkpt>
      <trkpt lat="46.65119" lon="5.82035">
        <ele>611.54</ele>
        <time>2016-06-10T09:27:34Z</time>
      </trkpt>
      <trkpt lat="46.65118" lon="5.82035">
        <ele>612.02</ele>
        <time>2016-06-10T09:27:35Z</time>
      </trkpt>
      <trkpt lat="46.6511" lon="5.82036">
        <ele>610.57</ele>
        <time>2016-06-10T09:27:43Z</time>
      </trkpt>
      <trkpt lat="46.65102" lon="5.82041">
        <ele>612.02</ele>
        <time>2016-06-10T09:27:50Z</time>
      </trkpt>
      <trkpt lat="46.65099" lon="5.82042">
        <ele>612.5</ele>
        <time>2016-06-10T09:27:52Z</time>
      </trkpt>
      <trkpt lat="46.65087" lon="5.82047">
        <ele>613.46</ele>
        <time>2016-06-10T09:28:03Z</time>
      </trkpt>
      <trkpt lat="46.65077" lon="5.8205">
        <ele>613.46</ele>
        <time>2016-06-10T09:28:11Z</time>
      </trkpt>
      <trkpt lat="46.6507" lon="5.82051">
        <ele>612.98</ele>
        <time>2016-06-10T09:28:18Z</time>
      </trkpt>
      <trkpt lat="46.65056" lon="5.82052">
        <ele>611.54</ele>
        <time>2016-06-10T09:28:31Z</time>
      </trkpt>
      <trkpt lat="46.65042" lon="5.82055">
        <ele>610.57</ele>
        <time>2016-06-10T09:28:44Z</time>
      </trkpt>
      <trkpt lat="46.65028" lon="5.82056">
        <ele>609.61</ele>
        <time>2016-06-10T09:28:55Z</time>
      </trkpt>
      <trkpt lat="46.65011" lon="5.82055">
        <ele>609.61</ele>
        <time>2016-06-10T09:29:10Z</time>
      </trkpt>
      <trkpt lat="46.64997" lon="5.82054">
        <ele>611.06</ele>
        <time>2016-06-10T09:29:22Z</time>
      </trkpt>
      <trkpt lat="46.64987" lon="5.82055">
        <ele>612.02</ele>
        <time>2016-06-10T09:29:30Z</time>
      </trkpt>
      <trkpt lat="46.64971" lon="5.82049">
        <ele>612.5</ele>
        <time>2016-06-10T09:29:44Z</time>
      </trkpt>
      <trkpt lat="46.64955" lon="5.8204">
        <ele>612.5</ele>
        <time>2016-06-10T09:29:59Z</time>
      </trkpt>
      <trkpt lat="46.64949" lon="5.82035">
        <ele>611.06</ele>
        <time>2016-06-10T09:30:05Z</time>
      </trkpt>
      <trkpt lat="46.64945" lon="5.82031">
        <ele>610.09</ele>
        <time>2016-06-10T09:30:09Z</time>
      </trkpt>
      <trkpt lat="46.64931" lon="5.82019">
        <ele>608.65</ele>
        <time>2016-06-10T09:30:24Z</time>
      </trkpt>
      <trkpt lat="46.64919" lon="5.82006">
        <ele>607.69</ele>
        <time>2016-06-10T09:30:38Z</time>
      </trkpt>
      <trkpt lat="46.64916" lon="5.82004">
        <ele>607.21</ele>
        <time>2016-06-10T09:30:41Z</time>
      </trkpt>
      <trkpt lat="46.64913" lon="5.82001">
        <ele>605.29</ele>
        <time>2016-06-10T09:30:46Z</time>
      </trkpt>
      <trkpt lat="46.64902" lon="5.81985">
        <ele>603.85</ele>
        <time>2016-06-10T09:30:59Z</time>
      </trkpt>
      <trkpt lat="46.64887" lon="5.81976">
        <ele>601.92</ele>
        <time>2016-06-10T09:31:13Z</time>
      </trkpt>
      <trkpt lat="46.64873" lon="5.81969">
        <ele>602.4</ele>
        <time>2016-06-10T09:31:27Z</time>
      </trkpt>
      <trkpt lat="46.64854" lon="5.81967">
        <ele>599.04</ele>
        <time>2016-06-10T09:31:42Z</time>
      </trkpt>
      <trkpt lat="46.64837" lon="5.8196">
        <ele>599.52</ele>
        <time>2016-06-10T09:31:56Z</time>
      </trkpt>
      <trkpt lat="46.64822" lon="5.8195">
        <ele>599.52</ele>
        <time>2016-06-10T09:32:09Z</time>
      </trkpt>
      <trkpt lat="46.6481" lon="5.81934">
        <ele>599.52</ele>
        <time>2016-06-10T09:32:24Z</time>
      </trkpt>
      <trkpt lat="46.64804" lon="5.81917">
        <ele>597.12</ele>
        <time>2016-06-10T09:32:37Z</time>
      </trkpt>
      <trkpt lat="46.64803" lon="5.81915">
        <ele>596.15</ele>
        <time>2016-06-10T09:32:53Z</time>
      </trkpt>
      <trkpt lat="46.64804" lon="5.81915">
        <ele>596.15</ele>
        <time>2016-06-10T09:33:09Z</time>
      </trkpt>
      <trkpt lat="46.64803" lon="5.81916">
        <ele>595.67</ele>
        <time>2016-06-10T09:33:21Z</time>
      </trkpt>
      <trkpt lat="46.64787" lon="5.81908">
        <ele>595.19</ele>
        <time>2016-06-10T09:33:35Z</time>
      </trkpt>
      <trkpt lat="46.64774" lon="5.8191">
        <ele>596.64</ele>
        <time>2016-06-10T09:33:47Z</time>
      </trkpt>
      <trkpt lat="46.64771" lon="5.81911">
        <ele>597.12</ele>
        <time>2016-06-10T09:33:50Z</time>
      </trkpt>
      <trkpt lat="46.64768" lon="5.81912">
        <ele>597.12</ele>
        <time>2016-06-10T09:33:53Z</time>
      </trkpt>
      <trkpt lat="46.64766" lon="5.81913">
        <ele>597.12</ele>
        <time>2016-06-10T09:33:55Z</time>
      </trkpt>
      <trkpt lat="46.6475" lon="5.81913">
        <ele>597.6</ele>
        <time>2016-06-10T09:34:10Z</time>
      </trkpt>
      <trkpt lat="46.6474" lon="5.81912">
        <ele>596.64</ele>
        <time>2016-06-10T09:34:23Z</time>
      </trkpt>
      <trkpt lat="46.64737" lon="5.81911">
        <ele>597.12</ele>
        <time>2016-06-10T09:34:25Z</time>
      </trkpt>
      <trkpt lat="46.64733" lon="5.81913">
        <ele>598.56</ele>
        <time>2016-06-10T09:34:29Z</time>
      </trkpt>
      <trkpt lat="46.6473" lon="5.81915">
        <ele>599.04</ele>
        <time>2016-06-10T09:34:32Z</time>
      </trkpt>
      <trkpt lat="46.64718" lon="5.81922">
        <ele>600</ele>
        <time>2016-06-10T09:34:45Z</time>
      </trkpt>
      <trkpt lat="46.64705" lon="5.81934">
        <ele>599.52</ele>
        <time>2016-06-10T09:34:59Z</time>
      </trkpt>
      <trkpt lat="46.64694" lon="5.81939">
        <ele>600.48</ele>
        <time>2016-06-10T09:35:10Z</time>
      </trkpt>
      <trkpt lat="46.64683" lon="5.81939">
        <ele>601.92</ele>
        <time>2016-06-10T09:35:20Z</time>
      </trkpt>
      <trkpt lat="46.64672" lon="5.8194">
        <ele>604.33</ele>
        <time>2016-06-10T09:35:31Z</time>
      </trkpt>
      <trkpt lat="46.6467" lon="5.8194">
        <ele>604.81</ele>
        <time>2016-06-10T09:35:33Z</time>
      </trkpt>
      <trkpt lat="46.64662" lon="5.81943">
        <ele>604.33</ele>
        <time>2016-06-10T09:35:41Z</time>
      </trkpt>
      <trkpt lat="46.64648" lon="5.8195">
        <ele>601.44</ele>
        <time>2016-06-10T09:35:57Z</time>
      </trkpt>
      <trkpt lat="46.64638" lon="5.81956">
        <ele>600</ele>
        <time>2016-06-10T09:36:08Z</time>
      </trkpt>
      <trkpt lat="46.64634" lon="5.81958">
        <ele>600.48</ele>
        <time>2016-06-10T09:36:12Z</time>
      </trkpt>
      <trkpt lat="46.64629" lon="5.81961">
        <ele>600.96</ele>
        <time>2016-06-10T09:36:17Z</time>
      </trkpt>
      <trkpt lat="46.64623" lon="5.81966">
        <ele>601.44</ele>
        <time>2016-06-10T09:36:23Z</time>
      </trkpt>
      <trkpt lat="46.64618" lon="5.81969">
        <ele>601.44</ele>
        <time>2016-06-10T09:36:28Z</time>
      </trkpt>
      <trkpt lat="46.64616" lon="5.81969">
        <ele>601.92</ele>
        <time>2016-06-10T09:36:30Z</time>
      </trkpt>
      <trkpt lat="46.6461" lon="5.81973">
        <ele>601.92</ele>
        <time>2016-06-10T09:36:35Z</time>
      </trkpt>
      <trkpt lat="46.64603" lon="5.81977">
        <ele>601.44</ele>
        <time>2016-06-10T09:36:44Z</time>
      </trkpt>
      <trkpt lat="46.6459" lon="5.81985">
        <ele>598.56</ele>
        <time>2016-06-10T09:36:58Z</time>
      </trkpt>
      <trkpt lat="46.64579" lon="5.81994">
        <ele>597.12</ele>
        <time>2016-06-10T09:37:10Z</time>
      </trkpt>
      <trkpt lat="46.64566" lon="5.82003">
        <ele>597.6</ele>
        <time>2016-06-10T09:37:21Z</time>
      </trkpt>
      <trkpt lat="46.6456" lon="5.82009">
        <ele>598.56</ele>
        <time>2016-06-10T09:37:28Z</time>
      </trkpt>
      <trkpt lat="46.64549" lon="5.82012">
        <ele>593.75</ele>
        <time>2016-06-10T09:37:41Z</time>
      </trkpt>
      <trkpt lat="46.64535" lon="5.82011">
        <ele>589.91</ele>
        <time>2016-06-10T09:37:54Z</time>
      </trkpt>
      <trkpt lat="46.64523" lon="5.82008">
        <ele>588.95</ele>
        <time>2016-06-10T09:38:05Z</time>
      </trkpt>
      <trkpt lat="46.6452" lon="5.82007">
        <ele>588.46</ele>
        <time>2016-06-10T09:38:08Z</time>
      </trkpt>
      <trkpt lat="46.64519" lon="5.82006">
        <ele>588.46</ele>
        <time>2016-06-10T09:38:10Z</time>
      </trkpt>
      <trkpt lat="46.64505" lon="5.82003">
        <ele>594.71</ele>
        <time>2016-06-10T09:38:21Z</time>
      </trkpt>
      <trkpt lat="46.64498" lon="5.82004">
        <ele>595.19</ele>
        <time>2016-06-10T09:38:28Z</time>
      </trkpt>
      <trkpt lat="46.64489" lon="5.82001">
        <ele>593.75</ele>
        <time>2016-06-10T09:38:37Z</time>
      </trkpt>
      <trkpt lat="46.64476" lon="5.81999">
        <ele>594.23</ele>
        <time>2016-06-10T09:38:50Z</time>
      </trkpt>
      <trkpt lat="46.64476" lon="5.81999">
        <ele>594.23</ele>
        <time>2016-06-10T09:38:51Z</time>
      </trkpt>
      <trkpt lat="46.64474" lon="5.81999">
        <ele>594.23</ele>
        <time>2016-06-10T09:38:53Z</time>
      </trkpt>
      <trkpt lat="46.64461" lon="5.82004">
        <ele>596.15</ele>
        <time>2016-06-10T09:39:05Z</time>
      </trkpt>
      <trkpt lat="46.64449" lon="5.82013">
        <ele>599.52</ele>
        <time>2016-06-10T09:39:17Z</time>
      </trkpt>
      <trkpt lat="46.64442" lon="5.82019">
        <ele>599.52</ele>
        <time>2016-06-10T09:39:27Z</time>
      </trkpt>
      <trkpt lat="46.64437" lon="5.82022">
        <ele>600.48</ele>
        <time>2016-06-10T09:39:32Z</time>
      </trkpt>
      <trkpt lat="46.64423" lon="5.82035">
        <ele>603.85</ele>
        <time>2016-06-10T09:39:45Z</time>
      </trkpt>
      <trkpt lat="46.64415" lon="5.82041">
        <ele>604.81</ele>
        <time>2016-06-10T09:39:53Z</time>
      </trkpt>
      <trkpt lat="46.64413" lon="5.82043">
        <ele>604.81</ele>
        <time>2016-06-10T09:40:03Z</time>
      </trkpt>
      <trkpt lat="46.64404" lon="5.82051">
        <ele>605.29</ele>
        <time>2016-06-10T09:40:15Z</time>
      </trkpt>
      <trkpt lat="46.64391" lon="5.82057">
        <ele>605.77</ele>
        <time>2016-06-10T09:40:27Z</time>
      </trkpt>
      <trkpt lat="46.64386" lon="5.82059">
        <ele>604.81</ele>
        <time>2016-06-10T09:40:39Z</time>
      </trkpt>
      <trkpt lat="46.64386" lon="5.82059">
        <ele>604.81</ele>
        <time>2016-06-10T09:40:40Z</time>
      </trkpt>
      <trkpt lat="46.64381" lon="5.82062">
        <ele>603.36</ele>
        <time>2016-06-10T09:40:48Z</time>
      </trkpt>
      <trkpt lat="46.64369" lon="5.82064">
        <ele>601.92</ele>
        <time>2016-06-10T09:41:02Z</time>
      </trkpt>
      <trkpt lat="46.64356" lon="5.82066">
        <ele>601.44</ele>
        <time>2016-06-10T09:41:14Z</time>
      </trkpt>
      <trkpt lat="46.64339" lon="5.82069">
        <ele>604.33</ele>
        <time>2016-06-10T09:41:27Z</time>
      </trkpt>
      <trkpt lat="46.64327" lon="5.8207">
        <ele>601.92</ele>
        <time>2016-06-10T09:41:41Z</time>
      </trkpt>
      <trkpt lat="46.64318" lon="5.82072">
        <ele>599.52</ele>
        <time>2016-06-10T09:41:51Z</time>
      </trkpt>
      <trkpt lat="46.64315" lon="5.82072">
        <ele>599.52</ele>
        <time>2016-06-10T09:41:54Z</time>
      </trkpt>
      <trkpt lat="46.64311" lon="5.8207">
        <ele>599.04</ele>
        <time>2016-06-10T09:41:57Z</time>
      </trkpt>
      <trkpt lat="46.64306" lon="5.82067">
        <ele>599.52</ele>
        <time>2016-06-10T09:42:02Z</time>
      </trkpt>
      <trkpt lat="46.64293" lon="5.82063">
        <ele>602.4</ele>
        <time>2016-06-10T09:42:14Z</time>
      </trkpt>
      <trkpt lat="46.64288" lon="5.82061">
        <ele>604.33</ele>
        <time>2016-06-10T09:42:29Z</time>
      </trkpt>
      <trkpt lat="46.64283" lon="5.82059">
        <ele>607.21</ele>
        <time>2016-06-10T09:42:43Z</time>
      </trkpt>
      <trkpt lat="46.64281" lon="5.82058">
        <ele>608.65</ele>
        <time>2016-06-10T09:43:02Z</time>
      </trkpt>
      <trkpt lat="46.64279" lon="5.82058">
        <ele>609.61</ele>
        <time>2016-06-10T09:43:14Z</time>
      </trkpt>
      <trkpt lat="46.64273" lon="5.82055">
        <ele>609.13</ele>
        <time>2016-06-10T09:43:20Z</time>
      </trkpt>
      <trkpt lat="46.6426" lon="5.82052">
        <ele>609.13</ele>
        <time>2016-06-10T09:43:31Z</time>
      </trkpt>
      <trkpt lat="46.64251" lon="5.82051">
        <ele>607.21</ele>
        <time>2016-06-10T09:43:43Z</time>
      </trkpt>
      <trkpt lat="46.64245" lon="5.82054">
        <ele>608.65</ele>
        <time>2016-06-10T09:43:56Z</time>
      </trkpt>
      <trkpt lat="46.64241" lon="5.82055">
        <ele>610.09</ele>
        <time>2016-06-10T09:44:00Z</time>
      </trkpt>
      <trkpt lat="46.64235" lon="5.82055">
        <ele>610.09</ele>
        <time>2016-06-10T09:44:06Z</time>
      </trkpt>
      <trkpt lat="46.64221" lon="5.82057">
        <ele>612.02</ele>
        <time>2016-06-10T09:44:17Z</time>
      </trkpt>
      <trkpt lat="46.64213" lon="5.82055">
        <ele>611.06</ele>
        <time>2016-06-10T09:44:31Z</time>
      </trkpt>
      <trkpt lat="46.64202" lon="5.82055">
        <ele>611.54</ele>
        <time>2016-06-10T09:44:45Z</time>
      </trkpt>
      <trkpt lat="46.64194" lon="5.82051">
        <ele>615.38</ele>
        <time>2016-06-10T09:44:55Z</time>
      </trkpt>
      <trkpt lat="46.64194" lon="5.82052">
        <ele>615.86</ele>
        <time>2016-06-10T09:44:57Z</time>
      </trkpt>
      <trkpt lat="46.64188" lon="5.82046">
        <ele>619.71</ele>
        <time>2016-06-10T09:45:10Z</time>
      </trkpt>
      <trkpt lat="46.64179" lon="5.82044">
        <ele>618.75</ele>
        <time>2016-06-10T09:45:23Z</time>
      </trkpt>
      <trkpt lat="46.6417" lon="5.82042">
        <ele>617.3</ele>
        <time>2016-06-10T09:45:35Z</time>
      </trkpt>
      <trkpt lat="46.64163" lon="5.82037">
        <ele>619.71</ele>
        <time>2016-06-10T09:45:47Z</time>
      </trkpt>
      <trkpt lat="46.64157" lon="5.82032">
        <ele>621.63</ele>
        <time>2016-06-10T09:46:03Z</time>
      </trkpt>
      <trkpt lat="46.64156" lon="5.8203">
        <ele>622.59</ele>
        <time>2016-06-10T09:46:21Z</time>
      </trkpt>
      <trkpt lat="46.64156" lon="5.82028">
        <ele>624.51</ele>
        <time>2016-06-10T09:46:38Z</time>
      </trkpt>
      <trkpt lat="46.64156" lon="5.82018">
        <ele>626.44</ele>
        <time>2016-06-10T09:47:04Z</time>
      </trkpt>
      <trkpt lat="46.64154" lon="5.82005">
        <ele>626.44</ele>
        <time>2016-06-10T09:47:15Z</time>
      </trkpt>
      <trkpt lat="46.64155" lon="5.81987">
        <ele>624.99</ele>
        <time>2016-06-10T09:47:29Z</time>
      </trkpt>
      <trkpt lat="46.64155" lon="5.81969">
        <ele>623.55</ele>
        <time>2016-06-10T09:47:42Z</time>
      </trkpt>
      <trkpt lat="46.64152" lon="5.8194">
        <ele>625.47</ele>
        <time>2016-06-10T09:47:56Z</time>
      </trkpt>
      <trkpt lat="46.64149" lon="5.81914">
        <ele>624.03</ele>
        <time>2016-06-10T09:48:11Z</time>
      </trkpt>
      <trkpt lat="46.6415" lon="5.81897">
        <ele>620.67</ele>
        <time>2016-06-10T09:48:24Z</time>
      </trkpt>
      <trkpt lat="46.64154" lon="5.81878">
        <ele>617.78</ele>
        <time>2016-06-10T09:48:38Z</time>
      </trkpt>
      <trkpt lat="46.64155" lon="5.81863">
        <ele>616.82</ele>
        <time>2016-06-10T09:48:51Z</time>
      </trkpt>
      <trkpt lat="46.64159" lon="5.8185">
        <ele>615.86</ele>
        <time>2016-06-10T09:48:58Z</time>
      </trkpt>
      <trkpt lat="46.64162" lon="5.81836">
        <ele>612.98</ele>
        <time>2016-06-10T09:49:10Z</time>
      </trkpt>
      <trkpt lat="46.64162" lon="5.8182">
        <ele>610.57</ele>
        <time>2016-06-10T09:49:23Z</time>
      </trkpt>
      <trkpt lat="46.64162" lon="5.81799">
        <ele>611.06</ele>
        <time>2016-06-10T09:49:37Z</time>
      </trkpt>
      <trkpt lat="46.64155" lon="5.81785">
        <ele>609.13</ele>
        <time>2016-06-10T09:49:50Z</time>
      </trkpt>
      <trkpt lat="46.64144" lon="5.81761">
        <ele>609.13</ele>
        <time>2016-06-10T09:50:02Z</time>
      </trkpt>
      <trkpt lat="46.64136" lon="5.8175">
        <ele>608.17</ele>
        <time>2016-06-10T09:50:14Z</time>
      </trkpt>
      <trkpt lat="46.64125" lon="5.81736">
        <ele>608.65</ele>
        <time>2016-06-10T09:50:26Z</time>
      </trkpt>
      <trkpt lat="46.64117" lon="5.81725">
        <ele>606.73</ele>
        <time>2016-06-10T09:50:38Z</time>
      </trkpt>
      <trkpt lat="46.64108" lon="5.81709">
        <ele>604.33</ele>
        <time>2016-06-10T09:50:52Z</time>
      </trkpt>
      <trkpt lat="46.64104" lon="5.81698">
        <ele>601.92</ele>
        <time>2016-06-10T09:51:05Z</time>
      </trkpt>
      <trkpt lat="46.641" lon="5.81688">
        <ele>596.64</ele>
        <time>2016-06-10T09:51:18Z</time>
      </trkpt>
      <trkpt lat="46.64096" lon="5.81672">
        <ele>593.27</ele>
        <time>2016-06-10T09:51:31Z</time>
      </trkpt>
      <trkpt lat="46.64095" lon="5.81667">
        <ele>591.83</ele>
        <time>2016-06-10T09:51:36Z</time>
      </trkpt>
      <trkpt lat="46.64089" lon="5.81642">
        <ele>593.75</ele>
        <time>2016-06-10T09:51:50Z</time>
      </trkpt>
      <trkpt lat="46.64081" lon="5.81619">
        <ele>591.35</ele>
        <time>2016-06-10T09:52:05Z</time>
      </trkpt>
      <trkpt lat="46.6408" lon="5.81602">
        <ele>587.5</ele>
        <time>2016-06-10T09:52:19Z</time>
      </trkpt>
      <trkpt lat="46.64079" lon="5.81574">
        <ele>587.98</ele>
        <time>2016-06-10T09:52:34Z</time>
      </trkpt>
      <trkpt lat="46.64074" lon="5.81564">
        <ele>585.58</ele>
        <time>2016-06-10T09:52:46Z</time>
      </trkpt>
      <trkpt lat="46.64065" lon="5.81551">
        <ele>587.98</ele>
        <time>2016-06-10T09:52:57Z</time>
      </trkpt>
      <trkpt lat="46.64053" lon="5.81543">
        <ele>587.5</ele>
        <time>2016-06-10T09:53:10Z</time>
      </trkpt>
      <trkpt lat="46.64042" lon="5.81537">
        <ele>586.54</ele>
        <time>2016-06-10T09:53:21Z</time>
      </trkpt>
      <trkpt lat="46.64037" lon="5.81535">
        <ele>586.06</ele>
        <time>2016-06-10T09:53:31Z</time>
      </trkpt>
      <trkpt lat="46.64035" lon="5.81533">
        <ele>587.02</ele>
        <time>2016-06-10T09:53:42Z</time>
      </trkpt>
      <trkpt lat="46.64029" lon="5.81531">
        <ele>587.02</ele>
        <time>2016-06-10T09:53:58Z</time>
      </trkpt>
      <trkpt lat="46.64018" lon="5.81536">
        <ele>587.98</ele>
        <time>2016-06-10T09:54:12Z</time>
      </trkpt>
      <trkpt lat="46.64002" lon="5.81552">
        <ele>592.31</ele>
        <time>2016-06-10T09:54:27Z</time>
      </trkpt>
      <trkpt lat="46.6399" lon="5.81562">
        <ele>593.75</ele>
        <time>2016-06-10T09:54:42Z</time>
      </trkpt>
      <trkpt lat="46.63983" lon="5.81568">
        <ele>594.23</ele>
        <time>2016-06-10T09:54:55Z</time>
      </trkpt>
      <trkpt lat="46.63976" lon="5.81578">
        <ele>596.64</ele>
        <time>2016-06-10T09:55:12Z</time>
      </trkpt>
      <trkpt lat="46.63972" lon="5.81582">
        <ele>598.08</ele>
        <time>2016-06-10T09:55:30Z</time>
      </trkpt>
      <trkpt lat="46.63966" lon="5.81588">
        <ele>597.12</ele>
        <time>2016-06-10T09:55:45Z</time>
      </trkpt>
      <trkpt lat="46.63956" lon="5.816">
        <ele>597.12</ele>
        <time>2016-06-10T09:55:57Z</time>
      </trkpt>
      <trkpt lat="46.63944" lon="5.8161">
        <ele>597.12</ele>
        <time>2016-06-10T09:56:11Z</time>
      </trkpt>
      <trkpt lat="46.63938" lon="5.81618">
        <ele>596.15</ele>
        <time>2016-06-10T09:56:23Z</time>
      </trkpt>
      <trkpt lat="46.63929" lon="5.81625">
        <ele>597.12</ele>
        <time>2016-06-10T09:56:37Z</time>
      </trkpt>
      <trkpt lat="46.63919" lon="5.81631">
        <ele>595.19</ele>
        <time>2016-06-10T09:56:50Z</time>
      </trkpt>
      <trkpt lat="46.63911" lon="5.81641">
        <ele>595.19</ele>
        <time>2016-06-10T09:57:06Z</time>
      </trkpt>
      <trkpt lat="46.63904" lon="5.81648">
        <ele>591.35</ele>
        <time>2016-06-10T09:57:18Z</time>
      </trkpt>
      <trkpt lat="46.63896" lon="5.81658">
        <ele>588.95</ele>
        <time>2016-06-10T09:57:30Z</time>
      </trkpt>
      <trkpt lat="46.63883" lon="5.81671">
        <ele>587.5</ele>
        <time>2016-06-10T09:57:44Z</time>
      </trkpt>
      <trkpt lat="46.63873" lon="5.81681">
        <ele>590.39</ele>
        <time>2016-06-10T09:57:57Z</time>
      </trkpt>
      <trkpt lat="46.63859" lon="5.81691">
        <ele>593.27</ele>
        <time>2016-06-10T09:58:11Z</time>
      </trkpt>
      <trkpt lat="46.63851" lon="5.81698">
        <ele>592.79</ele>
        <time>2016-06-10T09:58:26Z</time>
      </trkpt>
      <trkpt lat="46.63844" lon="5.81706">
        <ele>591.83</ele>
        <time>2016-06-10T09:58:42Z</time>
      </trkpt>
      <trkpt lat="46.6384" lon="5.8171">
        <ele>594.23</ele>
        <time>2016-06-10T09:59:08Z</time>
      </trkpt>
      <trkpt lat="46.63834" lon="5.81712">
        <ele>595.19</ele>
        <time>2016-06-10T09:59:29Z</time>
      </trkpt>
      <trkpt lat="46.63831" lon="5.81716">
        <ele>595.67</ele>
        <time>2016-06-10T09:59:49Z</time>
      </trkpt>
      <trkpt lat="46.63825" lon="5.81724">
        <ele>596.15</ele>
        <time>2016-06-10T10:00:03Z</time>
      </trkpt>
      <trkpt lat="46.63816" lon="5.81734">
        <ele>596.64</ele>
        <time>2016-06-10T10:00:16Z</time>
      </trkpt>
      <trkpt lat="46.63796" lon="5.8175">
        <ele>598.56</ele>
        <time>2016-06-10T10:00:30Z</time>
      </trkpt>
      <trkpt lat="46.63784" lon="5.81756">
        <ele>599.52</ele>
        <time>2016-06-10T10:00:45Z</time>
      </trkpt>
      <trkpt lat="46.63776" lon="5.81758">
        <ele>598.08</ele>
        <time>2016-06-10T10:00:55Z</time>
      </trkpt>
      <trkpt lat="46.63763" lon="5.81766">
        <ele>601.44</ele>
        <time>2016-06-10T10:01:07Z</time>
      </trkpt>
      <trkpt lat="46.63762" lon="5.81769">
        <ele>602.4</ele>
        <time>2016-06-10T10:01:19Z</time>
      </trkpt>
      <trkpt lat="46.63758" lon="5.81777">
        <ele>600.96</ele>
        <time>2016-06-10T10:01:32Z</time>
      </trkpt>
      <trkpt lat="46.63756" lon="5.81788">
        <ele>600</ele>
        <time>2016-06-10T10:01:48Z</time>
      </trkpt>
      <trkpt lat="46.63753" lon="5.81793">
        <ele>600.96</ele>
        <time>2016-06-10T10:02:14Z</time>
      </trkpt>
      <trkpt lat="46.63748" lon="5.818">
        <ele>603.85</ele>
        <time>2016-06-10T10:02:35Z</time>
      </trkpt>
      <trkpt lat="46.63732" lon="5.81812">
        <ele>606.25</ele>
        <time>2016-06-10T10:02:51Z</time>
      </trkpt>
      <trkpt lat="46.63731" lon="5.81815">
        <ele>606.25</ele>
        <time>2016-06-10T10:03:14Z</time>
      </trkpt>
      <trkpt lat="46.63732" lon="5.81824">
        <ele>606.25</ele>
        <time>2016-06-10T10:03:28Z</time>
      </trkpt>
      <trkpt lat="46.63728" lon="5.81827">
        <ele>606.25</ele>
        <time>2016-06-10T10:03:45Z</time>
      </trkpt>
      <trkpt lat="46.63727" lon="5.81829">
        <ele>606.25</ele>
        <time>2016-06-10T10:04:02Z</time>
      </trkpt>
      <trkpt lat="46.63723" lon="5.8183">
        <ele>604.33</ele>
        <time>2016-06-10T10:04:13Z</time>
      </trkpt>
      <trkpt lat="46.63717" lon="5.81832">
        <ele>602.88</ele>
        <time>2016-06-10T10:04:23Z</time>
      </trkpt>
      <trkpt lat="46.63704" lon="5.81838">
        <ele>602.4</ele>
        <time>2016-06-10T10:04:36Z</time>
      </trkpt>
      <trkpt lat="46.63693" lon="5.8185">
        <ele>601.92</ele>
        <time>2016-06-10T10:04:49Z</time>
      </trkpt>
      <trkpt lat="46.63684" lon="5.81859">
        <ele>603.36</ele>
        <time>2016-06-10T10:05:00Z</time>
      </trkpt>
      <trkpt lat="46.63674" lon="5.81866">
        <ele>602.88</ele>
        <time>2016-06-10T10:05:12Z</time>
      </trkpt>
      <trkpt lat="46.63659" lon="5.81873">
        <ele>601.92</ele>
        <time>2016-06-10T10:05:25Z</time>
      </trkpt>
      <trkpt lat="46.63652" lon="5.81876">
        <ele>602.4</ele>
        <time>2016-06-10T10:05:37Z</time>
      </trkpt>
      <trkpt lat="46.63651" lon="5.81877">
        <ele>601.92</ele>
        <time>2016-06-10T10:05:39Z</time>
      </trkpt>
      <trkpt lat="46.63634" lon="5.81881">
        <ele>598.56</ele>
        <time>2016-06-10T10:05:51Z</time>
      </trkpt>
      <trkpt lat="46.63622" lon="5.81888">
        <ele>595.19</ele>
        <time>2016-06-10T10:06:03Z</time>
      </trkpt>
      <trkpt lat="46.63611" lon="5.81894">
        <ele>592.31</ele>
        <time>2016-06-10T10:06:13Z</time>
      </trkpt>
      <trkpt lat="46.63601" lon="5.81899">
        <ele>593.75</ele>
        <time>2016-06-10T10:06:23Z</time>
      </trkpt>
      <trkpt lat="46.63594" lon="5.81907">
        <ele>594.71</ele>
        <time>2016-06-10T10:06:36Z</time>
      </trkpt>
      <trkpt lat="46.63588" lon="5.81912">
        <ele>595.19</ele>
        <time>2016-06-10T10:06:49Z</time>
      </trkpt>
      <trkpt lat="46.63582" lon="5.8192">
        <ele>595.67</ele>
        <time>2016-06-10T10:07:04Z</time>
      </trkpt>
      <trkpt lat="46.63578" lon="5.81924">
        <ele>593.75</ele>
        <time>2016-06-10T10:07:18Z</time>
      </trkpt>
      <trkpt lat="46.63572" lon="5.81928">
        <ele>590.87</ele>
        <time>2016-06-10T10:07:29Z</time>
      </trkpt>
      <trkpt lat="46.63558" lon="5.81937">
        <ele>586.06</ele>
        <time>2016-06-10T10:07:40Z</time>
      </trkpt>
      <trkpt lat="46.63541" lon="5.81944">
        <ele>577.89</ele>
        <time>2016-06-10T10:07:53Z</time>
      </trkpt>
      <trkpt lat="46.63528" lon="5.81955">
        <ele>570.68</ele>
        <time>2016-06-10T10:08:05Z</time>
      </trkpt>
      <trkpt lat="46.63513" lon="5.81967">
        <ele>565.39</ele>
        <time>2016-06-10T10:08:16Z</time>
      </trkpt>
      <trkpt lat="46.63507" lon="5.81973">
        <ele>563.47</ele>
        <time>2016-06-10T10:08:19Z</time>
      </trkpt>
      <trkpt lat="46.63486" lon="5.81983">
        <ele>568.28</ele>
        <time>2016-06-10T10:08:33Z</time>
      </trkpt>
      <trkpt lat="46.63474" lon="5.81987">
        <ele>571.16</ele>
        <time>2016-06-10T10:08:47Z</time>
      </trkpt>
      <trkpt lat="46.6346" lon="5.81988">
        <ele>575.97</ele>
        <time>2016-06-10T10:08:58Z</time>
      </trkpt>
      <trkpt lat="46.63447" lon="5.81997">
        <ele>577.89</ele>
        <time>2016-06-10T10:09:10Z</time>
      </trkpt>
      <trkpt lat="46.63434" lon="5.82009">
        <ele>577.89</ele>
        <time>2016-06-10T10:09:24Z</time>
      </trkpt>
      <trkpt lat="46.63423" lon="5.82021">
        <ele>575.49</ele>
        <time>2016-06-10T10:09:38Z</time>
      </trkpt>
      <trkpt lat="46.63411" lon="5.82024">
        <ele>576.93</ele>
        <time>2016-06-10T10:09:49Z</time>
      </trkpt>
      <trkpt lat="46.63394" lon="5.82031">
        <ele>581.73</ele>
        <time>2016-06-10T10:09:59Z</time>
      </trkpt>
      <trkpt lat="46.63389" lon="5.82035">
        <ele>581.25</ele>
        <time>2016-06-10T10:10:07Z</time>
      </trkpt>
      <trkpt lat="46.63383" lon="5.82036">
        <ele>581.25</ele>
        <time>2016-06-10T10:10:12Z</time>
      </trkpt>
      <trkpt lat="46.63372" lon="5.82039">
        <ele>578.85</ele>
        <time>2016-06-10T10:10:25Z</time>
      </trkpt>
      <trkpt lat="46.63362" lon="5.82039">
        <ele>578.85</ele>
        <time>2016-06-10T10:10:35Z</time>
      </trkpt>
      <trkpt lat="46.63345" lon="5.82044">
        <ele>581.25</ele>
        <time>2016-06-10T10:10:48Z</time>
      </trkpt>
      <trkpt lat="46.63328" lon="5.82049">
        <ele>586.54</ele>
        <time>2016-06-10T10:11:00Z</time>
      </trkpt>
      <trkpt lat="46.63321" lon="5.82048">
        <ele>583.18</ele>
        <time>2016-06-10T10:11:10Z</time>
      </trkpt>
      <trkpt lat="46.63306" lon="5.82048">
        <ele>583.18</ele>
        <time>2016-06-10T10:11:24Z</time>
      </trkpt>
      <trkpt lat="46.63299" lon="5.82051">
        <ele>583.66</ele>
        <time>2016-06-10T10:11:37Z</time>
      </trkpt>
      <trkpt lat="46.63291" lon="5.82053">
        <ele>582.7</ele>
        <time>2016-06-10T10:11:47Z</time>
      </trkpt>
      <trkpt lat="46.63288" lon="5.82054">
        <ele>582.22</ele>
        <time>2016-06-10T10:11:51Z</time>
      </trkpt>
      <trkpt lat="46.63269" lon="5.82058">
        <ele>580.77</ele>
        <time>2016-06-10T10:12:03Z</time>
      </trkpt>
      <trkpt lat="46.63257" lon="5.82061">
        <ele>578.85</ele>
        <time>2016-06-10T10:12:14Z</time>
      </trkpt>
      <trkpt lat="46.63248" lon="5.82062">
        <ele>579.81</ele>
        <time>2016-06-10T10:12:28Z</time>
      </trkpt>
      <trkpt lat="46.63239" lon="5.82054">
        <ele>579.33</ele>
        <time>2016-06-10T10:12:40Z</time>
      </trkpt>
      <trkpt lat="46.63226" lon="5.82045">
        <ele>580.77</ele>
        <time>2016-06-10T10:12:51Z</time>
      </trkpt>
      <trkpt lat="46.63213" lon="5.82046">
        <ele>580.77</ele>
        <time>2016-06-10T10:13:04Z</time>
      </trkpt>
      <trkpt lat="46.63197" lon="5.82044">
        <ele>586.06</ele>
        <time>2016-06-10T10:13:17Z</time>
      </trkpt>
      <trkpt lat="46.6319" lon="5.82041">
        <ele>587.5</ele>
        <time>2016-06-10T10:13:27Z</time>
      </trkpt>
      <trkpt lat="46.63185" lon="5.82042">
        <ele>587.98</ele>
        <time>2016-06-10T10:13:39Z</time>
      </trkpt>
      <trkpt lat="46.63175" lon="5.82047">
        <ele>587.5</ele>
        <time>2016-06-10T10:13:50Z</time>
      </trkpt>
      <trkpt lat="46.63164" lon="5.82049">
        <ele>585.1</ele>
        <time>2016-06-10T10:14:03Z</time>
      </trkpt>
      <trkpt lat="46.63153" lon="5.82055">
        <ele>589.43</ele>
        <time>2016-06-10T10:14:16Z</time>
      </trkpt>
      <trkpt lat="46.63147" lon="5.82059">
        <ele>594.23</ele>
        <time>2016-06-10T10:14:27Z</time>
      </trkpt>
      <trkpt lat="46.6314" lon="5.82068">
        <ele>597.12</ele>
        <time>2016-06-10T10:14:41Z</time>
      </trkpt>
      <trkpt lat="46.63128" lon="5.8208">
        <ele>600</ele>
        <time>2016-06-10T10:14:54Z</time>
      </trkpt>
      <trkpt lat="46.63118" lon="5.8209">
        <ele>602.88</ele>
        <time>2016-06-10T10:15:06Z</time>
      </trkpt>
      <trkpt lat="46.63111" lon="5.82099">
        <ele>603.85</ele>
        <time>2016-06-10T10:15:18Z</time>
      </trkpt>
      <trkpt lat="46.63108" lon="5.82102">
        <ele>603.85</ele>
        <time>2016-06-10T10:15:28Z</time>
      </trkpt>
      <trkpt lat="46.63105" lon="5.82107">
        <ele>603.85</ele>
        <time>2016-06-10T10:15:38Z</time>
      </trkpt>
      <trkpt lat="46.63104" lon="5.82107">
        <ele>603.85</ele>
        <time>2016-06-10T10:15:39Z</time>
      </trkpt>
      <trkpt lat="46.63094" lon="5.82122">
        <ele>606.25</ele>
        <time>2016-06-10T10:15:51Z</time>
      </trkpt>
      <trkpt lat="46.63085" lon="5.82133">
        <ele>605.29</ele>
        <time>2016-06-10T10:16:05Z</time>
      </trkpt>
      <trkpt lat="46.63076" lon="5.82144">
        <ele>603.85</ele>
        <time>2016-06-10T10:16:15Z</time>
      </trkpt>
      <trkpt lat="46.63064" lon="5.82159">
        <ele>602.88</ele>
        <time>2016-06-10T10:16:30Z</time>
      </trkpt>
      <trkpt lat="46.63057" lon="5.82172">
        <ele>604.33</ele>
        <time>2016-06-10T10:16:44Z</time>
      </trkpt>
      <trkpt lat="46.63051" lon="5.82182">
        <ele>606.25</ele>
        <time>2016-06-10T10:16:56Z</time>
      </trkpt>
      <trkpt lat="46.63047" lon="5.82188">
        <ele>607.21</ele>
        <time>2016-06-10T10:17:10Z</time>
      </trkpt>
      <trkpt lat="46.63043" lon="5.82196">
        <ele>607.69</ele>
        <time>2016-06-10T10:17:22Z</time>
      </trkpt>
      <trkpt lat="46.63039" lon="5.82204">
        <ele>607.21</ele>
        <time>2016-06-10T10:17:34Z</time>
      </trkpt>
      <trkpt lat="46.63033" lon="5.82215">
        <ele>604.81</ele>
        <time>2016-06-10T10:17:49Z</time>
      </trkpt>
      <trkpt lat="46.63022" lon="5.82225">
        <ele>603.85</ele>
        <time>2016-06-10T10:18:03Z</time>
      </trkpt>
      <trkpt lat="46.63006" lon="5.82237">
        <ele>600</ele>
        <time>2016-06-10T10:18:14Z</time>
      </trkpt>
      <trkpt lat="46.6299" lon="5.82263">
        <ele>600</ele>
        <time>2016-06-10T10:18:26Z</time>
      </trkpt>
      <trkpt lat="46.62982" lon="5.82283">
        <ele>602.88</ele>
        <time>2016-06-10T10:18:42Z</time>
      </trkpt>
      <trkpt lat="46.62981" lon="5.82284">
        <ele>603.36</ele>
        <time>2016-06-10T10:19:04Z</time>
      </trkpt>
      <trkpt lat="46.62981" lon="5.82284">
        <ele>603.36</ele>
        <time>2016-06-10T10:19:05Z</time>
      </trkpt>
      <trkpt lat="46.62985" lon="5.82304">
        <ele>608.17</ele>
        <time>2016-06-10T10:19:18Z</time>
      </trkpt>
      <trkpt lat="46.62986" lon="5.82323">
        <ele>612.5</ele>
        <time>2016-06-10T10:19:30Z</time>
      </trkpt>
      <trkpt lat="46.62983" lon="5.82343">
        <ele>612.5</ele>
        <time>2016-06-10T10:19:43Z</time>
      </trkpt>
      <trkpt lat="46.62979" lon="5.82361">
        <ele>613.46</ele>
        <time>2016-06-10T10:19:55Z</time>
      </trkpt>
      <trkpt lat="46.62978" lon="5.82377">
        <ele>614.42</ele>
        <time>2016-06-10T10:20:07Z</time>
      </trkpt>
      <trkpt lat="46.62978" lon="5.82393">
        <ele>615.38</ele>
        <time>2016-06-10T10:20:20Z</time>
      </trkpt>
      <trkpt lat="46.62978" lon="5.82409">
        <ele>615.86</ele>
        <time>2016-06-10T10:20:31Z</time>
      </trkpt>
      <trkpt lat="46.62978" lon="5.82422">
        <ele>612.5</ele>
        <time>2016-06-10T10:20:43Z</time>
      </trkpt>
      <trkpt lat="46.62983" lon="5.82441">
        <ele>610.09</ele>
        <time>2016-06-10T10:20:56Z</time>
      </trkpt>
      <trkpt lat="46.62986" lon="5.82448">
        <ele>608.65</ele>
        <time>2016-06-10T10:21:04Z</time>
      </trkpt>
      <trkpt lat="46.62991" lon="5.82459">
        <ele>607.69</ele>
        <time>2016-06-10T10:21:15Z</time>
      </trkpt>
      <trkpt lat="46.62995" lon="5.82467">
        <ele>608.17</ele>
        <time>2016-06-10T10:21:21Z</time>
      </trkpt>
      <trkpt lat="46.63002" lon="5.82481">
        <ele>609.61</ele>
        <time>2016-06-10T10:21:33Z</time>
      </trkpt>
      <trkpt lat="46.63009" lon="5.82497">
        <ele>612.02</ele>
        <time>2016-06-10T10:21:45Z</time>
      </trkpt>
      <trkpt lat="46.63015" lon="5.82511">
        <ele>614.9</ele>
        <time>2016-06-10T10:21:55Z</time>
      </trkpt>
      <trkpt lat="46.63013" lon="5.82523">
        <ele>612.5</ele>
        <time>2016-06-10T10:22:08Z</time>
      </trkpt>
      <trkpt lat="46.63012" lon="5.82532">
        <ele>612.98</ele>
        <time>2016-06-10T10:22:15Z</time>
      </trkpt>
      <trkpt lat="46.63008" lon="5.82549">
        <ele>611.54</ele>
        <time>2016-06-10T10:22:28Z</time>
      </trkpt>
      <trkpt lat="46.63005" lon="5.82561">
        <ele>612.02</ele>
        <time>2016-06-10T10:22:38Z</time>
      </trkpt>
      <trkpt lat="46.62997" lon="5.82567">
        <ele>604.81</ele>
        <time>2016-06-10T10:22:49Z</time>
      </trkpt>
      <trkpt lat="46.62993" lon="5.82579">
        <ele>601.92</ele>
        <time>2016-06-10T10:23:00Z</time>
      </trkpt>
      <trkpt lat="46.62992" lon="5.8259">
        <ele>600.96</ele>
        <time>2016-06-10T10:23:12Z</time>
      </trkpt>
      <trkpt lat="46.6299" lon="5.82603">
        <ele>599.04</ele>
        <time>2016-06-10T10:23:22Z</time>
      </trkpt>
      <trkpt lat="46.62986" lon="5.82615">
        <ele>600</ele>
        <time>2016-06-10T10:23:33Z</time>
      </trkpt>
      <trkpt lat="46.62978" lon="5.82629">
        <ele>602.88</ele>
        <time>2016-06-10T10:23:45Z</time>
      </trkpt>
      <trkpt lat="46.62972" lon="5.82645">
        <ele>608.65</ele>
        <time>2016-06-10T10:23:55Z</time>
      </trkpt>
      <trkpt lat="46.62964" lon="5.82653">
        <ele>612.02</ele>
        <time>2016-06-10T10:24:06Z</time>
      </trkpt>
      <trkpt lat="46.62962" lon="5.82657">
        <ele>618.26</ele>
        <time>2016-06-10T10:24:20Z</time>
      </trkpt>
      <trkpt lat="46.62956" lon="5.82663">
        <ele>619.23</ele>
        <time>2016-06-10T10:24:33Z</time>
      </trkpt>
      <trkpt lat="46.62954" lon="5.82662">
        <ele>622.11</ele>
        <time>2016-06-10T10:24:51Z</time>
      </trkpt>
      <trkpt lat="46.62945" lon="5.82663">
        <ele>625.47</ele>
        <time>2016-06-10T10:25:03Z</time>
      </trkpt>
      <trkpt lat="46.6294" lon="5.82666">
        <ele>626.44</ele>
        <time>2016-06-10T10:25:10Z</time>
      </trkpt>
      <trkpt lat="46.62935" lon="5.82671">
        <ele>628.36</ele>
        <time>2016-06-10T10:25:14Z</time>
      </trkpt>
      <trkpt lat="46.62924" lon="5.82687">
        <ele>634.61</ele>
        <time>2016-06-10T10:25:25Z</time>
      </trkpt>
      <trkpt lat="46.62917" lon="5.82697">
        <ele>637.01</ele>
        <time>2016-06-10T10:25:40Z</time>
      </trkpt>
      <trkpt lat="46.62907" lon="5.82708">
        <ele>637.01</ele>
        <time>2016-06-10T10:25:55Z</time>
      </trkpt>
      <trkpt lat="46.62905" lon="5.82709">
        <ele>637.01</ele>
        <time>2016-06-10T10:25:57Z</time>
      </trkpt>
      <trkpt lat="46.62896" lon="5.82717">
        <ele>637.49</ele>
        <time>2016-06-10T10:26:08Z</time>
      </trkpt>
      <trkpt lat="46.62883" lon="5.82725">
        <ele>640.38</ele>
        <time>2016-06-10T10:26:22Z</time>
      </trkpt>
      <trkpt lat="46.62875" lon="5.82732">
        <ele>641.82</ele>
        <time>2016-06-10T10:26:34Z</time>
      </trkpt>
      <trkpt lat="46.62863" lon="5.82739">
        <ele>642.78</ele>
        <time>2016-06-10T10:26:47Z</time>
      </trkpt>
      <trkpt lat="46.6286" lon="5.82743">
        <ele>643.74</ele>
        <time>2016-06-10T10:26:51Z</time>
      </trkpt>
      <trkpt lat="46.62854" lon="5.82747">
        <ele>645.18</ele>
        <time>2016-06-10T10:26:58Z</time>
      </trkpt>
      <trkpt lat="46.62848" lon="5.8275">
        <ele>647.1</ele>
        <time>2016-06-10T10:27:04Z</time>
      </trkpt>
      <trkpt lat="46.62836" lon="5.82759">
        <ele>649.03</ele>
        <time>2016-06-10T10:27:17Z</time>
      </trkpt>
      <trkpt lat="46.62831" lon="5.82766">
        <ele>649.99</ele>
        <time>2016-06-10T10:27:29Z</time>
      </trkpt>
      <trkpt lat="46.62827" lon="5.8277">
        <ele>650.47</ele>
        <time>2016-06-10T10:27:35Z</time>
      </trkpt>
      <trkpt lat="46.62819" lon="5.82779">
        <ele>650.47</ele>
        <time>2016-06-10T10:27:45Z</time>
      </trkpt>
      <trkpt lat="46.62812" lon="5.82788">
        <ele>652.39</ele>
        <time>2016-06-10T10:27:57Z</time>
      </trkpt>
      <trkpt lat="46.62812" lon="5.82789">
        <ele>652.39</ele>
        <time>2016-06-10T10:27:58Z</time>
      </trkpt>
      <trkpt lat="46.62805" lon="5.82802">
        <ele>651.43</ele>
        <time>2016-06-10T10:28:11Z</time>
      </trkpt>
      <trkpt lat="46.62803" lon="5.82802">
        <ele>649.99</ele>
        <time>2016-06-10T10:28:29Z</time>
      </trkpt>
      <trkpt lat="46.62803" lon="5.82799">
        <ele>649.99</ele>
        <time>2016-06-10T10:28:43Z</time>
      </trkpt>
      <trkpt lat="46.62804" lon="5.82799">
        <ele>649.99</ele>
        <time>2016-06-10T10:28:57Z</time>
      </trkpt>
      <trkpt lat="46.62804" lon="5.82798">
        <ele>649.99</ele>
        <time>2016-06-10T10:29:17Z</time>
      </trkpt>
      <trkpt lat="46.62804" lon="5.82798">
        <ele>649.51</ele>
        <time>2016-06-10T10:29:30Z</time>
      </trkpt>
      <trkpt lat="46.62804" lon="5.82798">
        <ele>649.51</ele>
        <time>2016-06-10T10:29:42Z</time>
      </trkpt>
      <trkpt lat="46.62805" lon="5.82799">
        <ele>649.51</ele>
        <time>2016-06-10T10:29:57Z</time>
      </trkpt>
      <trkpt lat="46.62805" lon="5.828">
        <ele>649.99</ele>
        <time>2016-06-10T10:30:18Z</time>
      </trkpt>
      <trkpt lat="46.62805" lon="5.828">
        <ele>650.47</ele>
        <time>2016-06-10T10:30:39Z</time>
      </trkpt>
      <trkpt lat="46.62805" lon="5.82801">
        <ele>650.47</ele>
        <time>2016-06-10T10:31:01Z</time>
      </trkpt>
      <trkpt lat="46.62805" lon="5.82802">
        <ele>650.47</ele>
        <time>2016-06-10T10:31:21Z</time>
      </trkpt>
      <trkpt lat="46.62805" lon="5.82803">
        <ele>651.43</ele>
        <time>2016-06-10T10:31:52Z</time>
      </trkpt>
      <trkpt lat="46.62805" lon="5.82803">
        <ele>650.47</ele>
        <time>2016-06-10T10:32:22Z</time>
      </trkpt>
      <trkpt lat="46.62805" lon="5.82803">
        <ele>650.47</ele>
        <time>2016-06-10T10:32:51Z</time>
      </trkpt>
      <trkpt lat="46.62805" lon="5.82803">
        <ele>650.47</ele>
        <time>2016-06-10T10:33:18Z</time>
      </trkpt>
      <trkpt lat="46.62805" lon="5.82803">
        <ele>650.47</ele>
        <time>2016-06-10T10:33:46Z</time>
      </trkpt>
      <trkpt lat="46.62806" lon="5.82802">
        <ele>650.47</ele>
        <time>2016-06-10T10:34:06Z</time>
      </trkpt>
      <trkpt lat="46.62806" lon="5.82802">
        <ele>650.95</ele>
        <time>2016-06-10T10:34:39Z</time>
      </trkpt>
      <trkpt lat="46.62806" lon="5.82802">
        <ele>650.95</ele>
        <time>2016-06-10T10:35:01Z</time>
      </trkpt>
      <trkpt lat="46.62806" lon="5.82802">
        <ele>650.47</ele>
        <time>2016-06-10T10:35:35Z</time>
      </trkpt>
      <trkpt lat="46.62805" lon="5.82802">
        <ele>650.95</ele>
        <time>2016-06-10T10:36:03Z</time>
      </trkpt>
      <trkpt lat="46.62805" lon="5.82802">
        <ele>650.95</ele>
        <time>2016-06-10T10:36:27Z</time>
      </trkpt>
      <trkpt lat="46.62805" lon="5.82803">
        <ele>651.43</ele>
        <time>2016-06-10T10:36:57Z</time>
      </trkpt>
      <trkpt lat="46.62805" lon="5.82803">
        <ele>651.43</ele>
        <time>2016-06-10T10:37:31Z</time>
      </trkpt>
      <trkpt lat="46.62805" lon="5.82803">
        <ele>651.43</ele>
        <time>2016-06-10T10:38:03Z</time>
      </trkpt>
      <trkpt lat="46.62806" lon="5.82803">
        <ele>651.43</ele>
        <time>2016-06-10T10:38:27Z</time>
      </trkpt>
      <trkpt lat="46.62805" lon="5.82802">
        <ele>651.43</ele>
        <time>2016-06-10T10:39:02Z</time>
      </trkpt>
      <trkpt lat="46.62806" lon="5.828">
        <ele>651.43</ele>
        <time>2016-06-10T10:39:29Z</time>
      </trkpt>
      <trkpt lat="46.62806" lon="5.82801">
        <ele>651.91</ele>
        <time>2016-06-10T10:39:56Z</time>
      </trkpt>
      <trkpt lat="46.62806" lon="5.828">
        <ele>651.91</ele>
        <time>2016-06-10T10:40:21Z</time>
      </trkpt>
      <trkpt lat="46.62806" lon="5.82801">
        <ele>651.91</ele>
        <time>2016-06-10T10:40:53Z</time>
      </trkpt>
      <trkpt lat="46.62806" lon="5.82801">
        <ele>651.91</ele>
        <time>2016-06-10T10:41:20Z</time>
      </trkpt>
      <trkpt lat="46.62806" lon="5.82802">
        <ele>651.91</ele>
        <time>2016-06-10T10:41:51Z</time>
      </trkpt>
      <trkpt lat="46.62804" lon="5.82801">
        <ele>652.39</ele>
        <time>2016-06-10T10:42:21Z</time>
      </trkpt>
      <trkpt lat="46.62805" lon="5.828">
        <ele>652.87</ele>
        <time>2016-06-10T10:42:34Z</time>
      </trkpt>
      <trkpt lat="46.62805" lon="5.82799">
        <ele>652.39</ele>
        <time>2016-06-10T10:42:57Z</time>
      </trkpt>
      <trkpt lat="46.62805" lon="5.82799">
        <ele>652.39</ele>
        <time>2016-06-10T10:43:14Z</time>
      </trkpt>
      <trkpt lat="46.62805" lon="5.82798">
        <ele>652.39</ele>
        <time>2016-06-10T10:43:30Z</time>
      </trkpt>
      <trkpt lat="46.62805" lon="5.82797">
        <ele>651.91</ele>
        <time>2016-06-10T10:43:44Z</time>
      </trkpt>
      <trkpt lat="46.62805" lon="5.82798">
        <ele>651.91</ele>
        <time>2016-06-10T10:44:02Z</time>
      </trkpt>
      <trkpt lat="46.62805" lon="5.82799">
        <ele>651.91</ele>
        <time>2016-06-10T10:44:14Z</time>
      </trkpt>
      <trkpt lat="46.62806" lon="5.82797">
        <ele>651.43</ele>
        <time>2016-06-10T10:44:31Z</time>
      </trkpt>
      <trkpt lat="46.62806" lon="5.82795">
        <ele>651.43</ele>
        <time>2016-06-10T10:44:56Z</time>
      </trkpt>
      <trkpt lat="46.62806" lon="5.82795">
        <ele>651.43</ele>
        <time>2016-06-10T10:45:19Z</time>
      </trkpt>
      <trkpt lat="46.62807" lon="5.82795">
        <ele>651.43</ele>
        <time>2016-06-10T10:45:39Z</time>
      </trkpt>
      <trkpt lat="46.62807" lon="5.82795">
        <ele>651.43</ele>
        <time>2016-06-10T10:45:55Z</time>
      </trkpt>
      <trkpt lat="46.62808" lon="5.82795">
        <ele>650.95</ele>
        <time>2016-06-10T10:46:15Z</time>
      </trkpt>
      <trkpt lat="46.62802" lon="5.82797">
        <ele>650.95</ele>
        <time>2016-06-10T10:46:22Z</time>
      </trkpt>
      <trkpt lat="46.62787" lon="5.82801">
        <ele>651.91</ele>
        <time>2016-06-10T10:46:36Z</time>
      </trkpt>
      <trkpt lat="46.62774" lon="5.82804">
        <ele>653.35</ele>
        <time>2016-06-10T10:46:48Z</time>
      </trkpt>
      <trkpt lat="46.6276" lon="5.82807">
        <ele>654.31</ele>
        <time>2016-06-10T10:47:00Z</time>
      </trkpt>
      <trkpt lat="46.62746" lon="5.82817">
        <ele>655.28</ele>
        <time>2016-06-10T10:47:14Z</time>
      </trkpt>
      <trkpt lat="46.62739" lon="5.82822">
        <ele>654.31</ele>
        <time>2016-06-10T10:47:22Z</time>
      </trkpt>
      <trkpt lat="46.62724" lon="5.82829">
        <ele>655.28</ele>
        <time>2016-06-10T10:47:35Z</time>
      </trkpt>
      <trkpt lat="46.62712" lon="5.82839">
        <ele>654.8</ele>
        <time>2016-06-10T10:47:46Z</time>
      </trkpt>
      <trkpt lat="46.62708" lon="5.8284">
        <ele>654.8</ele>
        <time>2016-06-10T10:47:49Z</time>
      </trkpt>
      <trkpt lat="46.62693" lon="5.82848">
        <ele>654.31</ele>
        <time>2016-06-10T10:48:02Z</time>
      </trkpt>
      <trkpt lat="46.62682" lon="5.82856">
        <ele>655.28</ele>
        <time>2016-06-10T10:48:13Z</time>
      </trkpt>
      <trkpt lat="46.6268" lon="5.82856">
        <ele>655.76</ele>
        <time>2016-06-10T10:48:15Z</time>
      </trkpt>
      <trkpt lat="46.62667" lon="5.82862">
        <ele>659.12</ele>
        <time>2016-06-10T10:48:25Z</time>
      </trkpt>
      <trkpt lat="46.62653" lon="5.82868">
        <ele>659.6</ele>
        <time>2016-06-10T10:48:39Z</time>
      </trkpt>
      <trkpt lat="46.62638" lon="5.82877">
        <ele>659.6</ele>
        <time>2016-06-10T10:48:52Z</time>
      </trkpt>
      <trkpt lat="46.62634" lon="5.82881">
        <ele>660.08</ele>
        <time>2016-06-10T10:48:56Z</time>
      </trkpt>
      <trkpt lat="46.62622" lon="5.82888">
        <ele>659.12</ele>
        <time>2016-06-10T10:49:08Z</time>
      </trkpt>
      <trkpt lat="46.62612" lon="5.82893">
        <ele>659.12</ele>
        <time>2016-06-10T10:49:19Z</time>
      </trkpt>
      <trkpt lat="46.62602" lon="5.82899">
        <ele>660.08</ele>
        <time>2016-06-10T10:49:29Z</time>
      </trkpt>
      <trkpt lat="46.62591" lon="5.82908">
        <ele>661.52</ele>
        <time>2016-06-10T10:49:40Z</time>
      </trkpt>
      <trkpt lat="46.62588" lon="5.82909">
        <ele>662.01</ele>
        <time>2016-06-10T10:49:42Z</time>
      </trkpt>
      <trkpt lat="46.62582" lon="5.82914">
        <ele>663.45</ele>
        <time>2016-06-10T10:49:47Z</time>
      </trkpt>
      <trkpt lat="46.62571" lon="5.82917">
        <ele>664.89</ele>
        <time>2016-06-10T10:49:57Z</time>
      </trkpt>
      <trkpt lat="46.62568" lon="5.82918">
        <ele>665.37</ele>
        <time>2016-06-10T10:49:59Z</time>
      </trkpt>
      <trkpt lat="46.62559" lon="5.82923">
        <ele>665.37</ele>
        <time>2016-06-10T10:50:08Z</time>
      </trkpt>
      <trkpt lat="46.62551" lon="5.82929">
        <ele>663.93</ele>
        <time>2016-06-10T10:50:18Z</time>
      </trkpt>
      <trkpt lat="46.62541" lon="5.82936">
        <ele>663.45</ele>
        <time>2016-06-10T10:50:26Z</time>
      </trkpt>
      <trkpt lat="46.62525" lon="5.82942">
        <ele>665.85</ele>
        <time>2016-06-10T10:50:40Z</time>
      </trkpt>
      <trkpt lat="46.62514" lon="5.8295">
        <ele>666.33</ele>
        <time>2016-06-10T10:50:51Z</time>
      </trkpt>
      <trkpt lat="46.62507" lon="5.82953">
        <ele>665.85</ele>
        <time>2016-06-10T10:50:57Z</time>
      </trkpt>
      <trkpt lat="46.625" lon="5.82956">
        <ele>666.33</ele>
        <time>2016-06-10T10:51:04Z</time>
      </trkpt>
      <trkpt lat="46.62491" lon="5.82958">
        <ele>666.33</ele>
        <time>2016-06-10T10:51:12Z</time>
      </trkpt>
      <trkpt lat="46.62475" lon="5.82955">
        <ele>665.85</ele>
        <time>2016-06-10T10:51:26Z</time>
      </trkpt>
      <trkpt lat="46.62462" lon="5.82948">
        <ele>665.85</ele>
        <time>2016-06-10T10:51:37Z</time>
      </trkpt>
      <trkpt lat="46.62455" lon="5.82943">
        <ele>665.37</ele>
        <time>2016-06-10T10:51:44Z</time>
      </trkpt>
      <trkpt lat="46.62441" lon="5.82938">
        <ele>664.41</ele>
        <time>2016-06-10T10:51:59Z</time>
      </trkpt>
      <trkpt lat="46.62426" lon="5.82929">
        <ele>661.52</ele>
        <time>2016-06-10T10:52:14Z</time>
      </trkpt>
      <trkpt lat="46.62422" lon="5.82926">
        <ele>660.56</ele>
        <time>2016-06-10T10:52:18Z</time>
      </trkpt>
      <trkpt lat="46.6241" lon="5.8292">
        <ele>661.04</ele>
        <time>2016-06-10T10:52:31Z</time>
      </trkpt>
      <trkpt lat="46.62396" lon="5.82912">
        <ele>663.93</ele>
        <time>2016-06-10T10:52:43Z</time>
      </trkpt>
      <trkpt lat="46.62385" lon="5.82906">
        <ele>663.93</ele>
        <time>2016-06-10T10:52:53Z</time>
      </trkpt>
      <trkpt lat="46.62373" lon="5.82901">
        <ele>662.97</ele>
        <time>2016-06-10T10:53:05Z</time>
      </trkpt>
      <trkpt lat="46.62359" lon="5.82895">
        <ele>664.41</ele>
        <time>2016-06-10T10:53:18Z</time>
      </trkpt>
      <trkpt lat="46.62352" lon="5.82894">
        <ele>663.45</ele>
        <time>2016-06-10T10:53:26Z</time>
      </trkpt>
      <trkpt lat="46.62349" lon="5.82894">
        <ele>662.97</ele>
        <time>2016-06-10T10:53:30Z</time>
      </trkpt>
      <trkpt lat="46.62333" lon="5.82897">
        <ele>666.81</ele>
        <time>2016-06-10T10:53:45Z</time>
      </trkpt>
      <trkpt lat="46.6233" lon="5.829">
        <ele>669.7</ele>
        <time>2016-06-10T10:53:55Z</time>
      </trkpt>
      <trkpt lat="46.6233" lon="5.829">
        <ele>671.14</ele>
        <time>2016-06-10T10:54:04Z</time>
      </trkpt>
      <trkpt lat="46.62327" lon="5.82904">
        <ele>673.06</ele>
        <time>2016-06-10T10:54:17Z</time>
      </trkpt>
      <trkpt lat="46.62326" lon="5.82905">
        <ele>674.98</ele>
        <time>2016-06-10T10:54:36Z</time>
      </trkpt>
      <trkpt lat="46.62326" lon="5.82906">
        <ele>675.46</ele>
        <time>2016-06-10T10:55:02Z</time>
      </trkpt>
      <trkpt lat="46.62326" lon="5.82905">
        <ele>675.46</ele>
        <time>2016-06-10T10:55:25Z</time>
      </trkpt>
      <trkpt lat="46.62326" lon="5.82906">
        <ele>675.46</ele>
        <time>2016-06-10T10:55:46Z</time>
      </trkpt>
      <trkpt lat="46.62328" lon="5.82907">
        <ele>674.5</ele>
        <time>2016-06-10T10:56:09Z</time>
      </trkpt>
      <trkpt lat="46.62327" lon="5.82907">
        <ele>674.5</ele>
        <time>2016-06-10T10:56:27Z</time>
      </trkpt>
      <trkpt lat="46.62321" lon="5.82909">
        <ele>674.02</ele>
        <time>2016-06-10T10:56:45Z</time>
      </trkpt>
      <trkpt lat="46.62318" lon="5.8291">
        <ele>672.58</ele>
        <time>2016-06-10T10:56:49Z</time>
      </trkpt>
      <trkpt lat="46.62316" lon="5.82912">
        <ele>672.1</ele>
        <time>2016-06-10T10:56:51Z</time>
      </trkpt>
      <trkpt lat="46.62305" lon="5.82919">
        <ele>670.66</ele>
        <time>2016-06-10T10:57:03Z</time>
      </trkpt>
      <trkpt lat="46.62299" lon="5.82923">
        <ele>669.7</ele>
        <time>2016-06-10T10:57:09Z</time>
      </trkpt>
      <trkpt lat="46.62288" lon="5.82935">
        <ele>666.81</ele>
        <time>2016-06-10T10:57:22Z</time>
      </trkpt>
      <trkpt lat="46.62277" lon="5.82947">
        <ele>662.49</ele>
        <time>2016-06-10T10:57:33Z</time>
      </trkpt>
      <trkpt lat="46.62266" lon="5.82954">
        <ele>665.37</ele>
        <time>2016-06-10T10:57:44Z</time>
      </trkpt>
      <trkpt lat="46.62251" lon="5.82967">
        <ele>668.73</ele>
        <time>2016-06-10T10:58:00Z</time>
      </trkpt>
      <trkpt lat="46.62242" lon="5.82975">
        <ele>670.18</ele>
        <time>2016-06-10T10:58:15Z</time>
      </trkpt>
      <trkpt lat="46.62237" lon="5.8298">
        <ele>672.58</ele>
        <time>2016-06-10T10:58:26Z</time>
      </trkpt>
      <trkpt lat="46.62232" lon="5.82976">
        <ele>675.94</ele>
        <time>2016-06-10T10:58:37Z</time>
      </trkpt>
      <trkpt lat="46.62232" lon="5.82978">
        <ele>677.39</ele>
        <time>2016-06-10T10:58:46Z</time>
      </trkpt>
      <trkpt lat="46.6222" lon="5.82969">
        <ele>679.79</ele>
        <time>2016-06-10T10:58:56Z</time>
      </trkpt>
      <trkpt lat="46.62203" lon="5.82948">
        <ele>680.75</ele>
        <time>2016-06-10T10:59:12Z</time>
      </trkpt>
      <trkpt lat="46.62196" lon="5.82931">
        <ele>675.94</ele>
        <time>2016-06-10T10:59:26Z</time>
      </trkpt>
      <trkpt lat="46.6219" lon="5.82924">
        <ele>674.98</ele>
        <time>2016-06-10T10:59:32Z</time>
      </trkpt>
      <trkpt lat="46.6218" lon="5.82921">
        <ele>673.54</ele>
        <time>2016-06-10T10:59:42Z</time>
      </trkpt>
      <trkpt lat="46.62164" lon="5.82936">
        <ele>677.39</ele>
        <time>2016-06-10T10:59:57Z</time>
      </trkpt>
      <trkpt lat="46.62154" lon="5.82948">
        <ele>678.83</ele>
        <time>2016-06-10T11:00:08Z</time>
      </trkpt>
      <trkpt lat="46.62147" lon="5.82955">
        <ele>679.79</ele>
        <time>2016-06-10T11:00:16Z</time>
      </trkpt>
      <trkpt lat="46.62141" lon="5.82959">
        <ele>679.79</ele>
        <time>2016-06-10T11:00:22Z</time>
      </trkpt>
      <trkpt lat="46.62122" lon="5.82961">
        <ele>682.19</ele>
        <time>2016-06-10T11:00:37Z</time>
      </trkpt>
      <trkpt lat="46.62106" lon="5.82959">
        <ele>682.19</ele>
        <time>2016-06-10T11:00:53Z</time>
      </trkpt>
      <trkpt lat="46.6209" lon="5.82965">
        <ele>682.19</ele>
        <time>2016-06-10T11:01:06Z</time>
      </trkpt>
      <trkpt lat="46.62077" lon="5.82972">
        <ele>680.75</ele>
        <time>2016-06-10T11:01:18Z</time>
      </trkpt>
      <trkpt lat="46.62059" lon="5.82977">
        <ele>680.75</ele>
        <time>2016-06-10T11:01:33Z</time>
      </trkpt>
      <trkpt lat="46.62049" lon="5.82976">
        <ele>680.27</ele>
        <time>2016-06-10T11:01:46Z</time>
      </trkpt>
      <trkpt lat="46.62035" lon="5.82977">
        <ele>679.31</ele>
        <time>2016-06-10T11:01:56Z</time>
      </trkpt>
      <trkpt lat="46.62025" lon="5.8298">
        <ele>677.39</ele>
        <time>2016-06-10T11:02:05Z</time>
      </trkpt>
      <trkpt lat="46.62013" lon="5.82983">
        <ele>675.94</ele>
        <time>2016-06-10T11:02:16Z</time>
      </trkpt>
      <trkpt lat="46.62" lon="5.8299">
        <ele>673.06</ele>
        <time>2016-06-10T11:02:28Z</time>
      </trkpt>
      <trkpt lat="46.61987" lon="5.82999">
        <ele>670.66</ele>
        <time>2016-06-10T11:02:42Z</time>
      </trkpt>
      <trkpt lat="46.61977" lon="5.83001">
        <ele>668.25</ele>
        <time>2016-06-10T11:02:52Z</time>
      </trkpt>
      <trkpt lat="46.61967" lon="5.83007">
        <ele>666.33</ele>
        <time>2016-06-10T11:03:05Z</time>
      </trkpt>
      <trkpt lat="46.6195" lon="5.83014">
        <ele>664.89</ele>
        <time>2016-06-10T11:03:17Z</time>
      </trkpt>
      <trkpt lat="46.61936" lon="5.83018">
        <ele>665.37</ele>
        <time>2016-06-10T11:03:30Z</time>
      </trkpt>
      <trkpt lat="46.61915" lon="5.83033">
        <ele>673.06</ele>
        <time>2016-06-10T11:03:44Z</time>
      </trkpt>
      <trkpt lat="46.61898" lon="5.83044">
        <ele>674.98</ele>
        <time>2016-06-10T11:03:57Z</time>
      </trkpt>
      <trkpt lat="46.61885" lon="5.83054">
        <ele>677.39</ele>
        <time>2016-06-10T11:04:10Z</time>
      </trkpt>
      <trkpt lat="46.61871" lon="5.83069">
        <ele>676.91</ele>
        <time>2016-06-10T11:04:25Z</time>
      </trkpt>
      <trkpt lat="46.61869" lon="5.83074">
        <ele>675.94</ele>
        <time>2016-06-10T11:04:28Z</time>
      </trkpt>
      <trkpt lat="46.61864" lon="5.83083">
        <ele>675.46</ele>
        <time>2016-06-10T11:04:34Z</time>
      </trkpt>
      <trkpt lat="46.61858" lon="5.83096">
        <ele>672.58</ele>
        <time>2016-06-10T11:04:44Z</time>
      </trkpt>
      <trkpt lat="46.61851" lon="5.83108">
        <ele>670.18</ele>
        <time>2016-06-10T11:04:54Z</time>
      </trkpt>
      <trkpt lat="46.61843" lon="5.83129">
        <ele>668.73</ele>
        <time>2016-06-10T11:05:07Z</time>
      </trkpt>
      <trkpt lat="46.61835" lon="5.8315">
        <ele>667.29</ele>
        <time>2016-06-10T11:05:20Z</time>
      </trkpt>
      <trkpt lat="46.61831" lon="5.83161">
        <ele>665.85</ele>
        <time>2016-06-10T11:05:28Z</time>
      </trkpt>
      <trkpt lat="46.61828" lon="5.83169">
        <ele>666.33</ele>
        <time>2016-06-10T11:05:33Z</time>
      </trkpt>
      <trkpt lat="46.6182" lon="5.83184">
        <ele>666.33</ele>
        <time>2016-06-10T11:05:43Z</time>
      </trkpt>
      <trkpt lat="46.61814" lon="5.83206">
        <ele>666.81</ele>
        <time>2016-06-10T11:05:56Z</time>
      </trkpt>
      <trkpt lat="46.61807" lon="5.83222">
        <ele>668.25</ele>
        <time>2016-06-10T11:06:07Z</time>
      </trkpt>
      <trkpt lat="46.61799" lon="5.83239">
        <ele>668.73</ele>
        <time>2016-06-10T11:06:19Z</time>
      </trkpt>
      <trkpt lat="46.61796" lon="5.83247">
        <ele>669.22</ele>
        <time>2016-06-10T11:06:25Z</time>
      </trkpt>
      <trkpt lat="46.61791" lon="5.83257">
        <ele>667.77</ele>
        <time>2016-06-10T11:06:35Z</time>
      </trkpt>
      <trkpt lat="46.61784" lon="5.83275">
        <ele>666.81</ele>
        <time>2016-06-10T11:06:47Z</time>
      </trkpt>
      <trkpt lat="46.61775" lon="5.83297">
        <ele>668.73</ele>
        <time>2016-06-10T11:06:59Z</time>
      </trkpt>
      <trkpt lat="46.61769" lon="5.8331">
        <ele>667.29</ele>
        <time>2016-06-10T11:07:10Z</time>
      </trkpt>
      <trkpt lat="46.61762" lon="5.83324">
        <ele>666.81</ele>
        <time>2016-06-10T11:07:20Z</time>
      </trkpt>
      <trkpt lat="46.61758" lon="5.83345">
        <ele>662.01</ele>
        <time>2016-06-10T11:07:33Z</time>
      </trkpt>
      <trkpt lat="46.61752" lon="5.8336">
        <ele>655.28</ele>
        <time>2016-06-10T11:07:44Z</time>
      </trkpt>
      <trkpt lat="46.61746" lon="5.83378">
        <ele>652.39</ele>
        <time>2016-06-10T11:07:54Z</time>
      </trkpt>
      <trkpt lat="46.61743" lon="5.83392">
        <ele>649.99</ele>
        <time>2016-06-10T11:08:06Z</time>
      </trkpt>
      <trkpt lat="46.61737" lon="5.83406">
        <ele>647.59</ele>
        <time>2016-06-10T11:08:17Z</time>
      </trkpt>
      <trkpt lat="46.61732" lon="5.8342">
        <ele>647.59</ele>
        <time>2016-06-10T11:08:26Z</time>
      </trkpt>
      <trkpt lat="46.61722" lon="5.83439">
        <ele>648.07</ele>
        <time>2016-06-10T11:08:41Z</time>
      </trkpt>
      <trkpt lat="46.61716" lon="5.8345">
        <ele>646.14</ele>
        <time>2016-06-10T11:08:53Z</time>
      </trkpt>
      <trkpt lat="46.61712" lon="5.83458">
        <ele>645.66</ele>
        <time>2016-06-10T11:08:59Z</time>
      </trkpt>
      <trkpt lat="46.61706" lon="5.83481">
        <ele>642.78</ele>
        <time>2016-06-10T11:09:11Z</time>
      </trkpt>
      <trkpt lat="46.61703" lon="5.83499">
        <ele>639.41</ele>
        <time>2016-06-10T11:09:26Z</time>
      </trkpt>
      <trkpt lat="46.61702" lon="5.83498">
        <ele>638.93</ele>
        <time>2016-06-10T11:09:43Z</time>
      </trkpt>
      <trkpt lat="46.61702" lon="5.83506">
        <ele>637.49</ele>
        <time>2016-06-10T11:09:57Z</time>
      </trkpt>
      <trkpt lat="46.61701" lon="5.83526">
        <ele>636.05</ele>
        <time>2016-06-10T11:10:08Z</time>
      </trkpt>
      <trkpt lat="46.61703" lon="5.8354">
        <ele>635.57</ele>
        <time>2016-06-10T11:10:18Z</time>
      </trkpt>
      <trkpt lat="46.61707" lon="5.83556">
        <ele>632.2</ele>
        <time>2016-06-10T11:10:30Z</time>
      </trkpt>
      <trkpt lat="46.61711" lon="5.83574">
        <ele>626.92</ele>
        <time>2016-06-10T11:10:41Z</time>
      </trkpt>
      <trkpt lat="46.6171" lon="5.83597">
        <ele>623.07</ele>
        <time>2016-06-10T11:10:52Z</time>
      </trkpt>
      <trkpt lat="46.61701" lon="5.83618">
        <ele>624.03</ele>
        <time>2016-06-10T11:11:06Z</time>
      </trkpt>
      <trkpt lat="46.61694" lon="5.83638">
        <ele>624.99</ele>
        <time>2016-06-10T11:11:19Z</time>
      </trkpt>
      <trkpt lat="46.61688" lon="5.8365">
        <ele>626.92</ele>
        <time>2016-06-10T11:11:26Z</time>
      </trkpt>
      <trkpt lat="46.61681" lon="5.83671">
        <ele>625.47</ele>
        <time>2016-06-10T11:11:39Z</time>
      </trkpt>
      <trkpt lat="46.61682" lon="5.83686">
        <ele>622.11</ele>
        <time>2016-06-10T11:11:49Z</time>
      </trkpt>
      <trkpt lat="46.61682" lon="5.83693">
        <ele>620.67</ele>
        <time>2016-06-10T11:11:53Z</time>
      </trkpt>
      <trkpt lat="46.61679" lon="5.83717">
        <ele>619.71</ele>
        <time>2016-06-10T11:12:07Z</time>
      </trkpt>
      <trkpt lat="46.61678" lon="5.83734">
        <ele>616.34</ele>
        <time>2016-06-10T11:12:19Z</time>
      </trkpt>
      <trkpt lat="46.61679" lon="5.83751">
        <ele>612.02</ele>
        <time>2016-06-10T11:12:31Z</time>
      </trkpt>
      <trkpt lat="46.61681" lon="5.83768">
        <ele>605.77</ele>
        <time>2016-06-10T11:12:42Z</time>
      </trkpt>
      <trkpt lat="46.61681" lon="5.83782">
        <ele>602.4</ele>
        <time>2016-06-10T11:12:53Z</time>
      </trkpt>
      <trkpt lat="46.61683" lon="5.83798">
        <ele>598.56</ele>
        <time>2016-06-10T11:13:05Z</time>
      </trkpt>
      <trkpt lat="46.61683" lon="5.8382">
        <ele>595.67</ele>
        <time>2016-06-10T11:13:17Z</time>
      </trkpt>
      <trkpt lat="46.61681" lon="5.83842">
        <ele>592.31</ele>
        <time>2016-06-10T11:13:29Z</time>
      </trkpt>
      <trkpt lat="46.61677" lon="5.83869">
        <ele>594.71</ele>
        <time>2016-06-10T11:13:43Z</time>
      </trkpt>
      <trkpt lat="46.61673" lon="5.83886">
        <ele>596.15</ele>
        <time>2016-06-10T11:13:55Z</time>
      </trkpt>
      <trkpt lat="46.61673" lon="5.83909">
        <ele>592.31</ele>
        <time>2016-06-10T11:14:08Z</time>
      </trkpt>
      <trkpt lat="46.6167" lon="5.83931">
        <ele>589.43</ele>
        <time>2016-06-10T11:14:21Z</time>
      </trkpt>
      <trkpt lat="46.61669" lon="5.83949">
        <ele>588.46</ele>
        <time>2016-06-10T11:14:33Z</time>
      </trkpt>
      <trkpt lat="46.61669" lon="5.83968">
        <ele>587.5</ele>
        <time>2016-06-10T11:14:44Z</time>
      </trkpt>
      <trkpt lat="46.61668" lon="5.83996">
        <ele>587.5</ele>
        <time>2016-06-10T11:14:57Z</time>
      </trkpt>
      <trkpt lat="46.6167" lon="5.84013">
        <ele>587.5</ele>
        <time>2016-06-10T11:15:07Z</time>
      </trkpt>
      <trkpt lat="46.61674" lon="5.8403">
        <ele>585.1</ele>
        <time>2016-06-10T11:15:17Z</time>
      </trkpt>
      <trkpt lat="46.61675" lon="5.84046">
        <ele>583.66</ele>
        <time>2016-06-10T11:15:29Z</time>
      </trkpt>
      <trkpt lat="46.61674" lon="5.84052">
        <ele>583.18</ele>
        <time>2016-06-10T11:15:32Z</time>
      </trkpt>
      <trkpt lat="46.61672" lon="5.84068">
        <ele>581.25</ele>
        <time>2016-06-10T11:15:43Z</time>
      </trkpt>
      <trkpt lat="46.61672" lon="5.84082">
        <ele>580.29</ele>
        <time>2016-06-10T11:15:52Z</time>
      </trkpt>
      <trkpt lat="46.6167" lon="5.84106">
        <ele>575.49</ele>
        <time>2016-06-10T11:16:03Z</time>
      </trkpt>
      <trkpt lat="46.61668" lon="5.84129">
        <ele>576.45</ele>
        <time>2016-06-10T11:16:16Z</time>
      </trkpt>
      <trkpt lat="46.61667" lon="5.84147">
        <ele>577.89</ele>
        <time>2016-06-10T11:16:27Z</time>
      </trkpt>
      <trkpt lat="46.61666" lon="5.84164">
        <ele>579.33</ele>
        <time>2016-06-10T11:16:37Z</time>
      </trkpt>
      <trkpt lat="46.61666" lon="5.84182">
        <ele>579.33</ele>
        <time>2016-06-10T11:16:46Z</time>
      </trkpt>
      <trkpt lat="46.61665" lon="5.84199">
        <ele>578.85</ele>
        <time>2016-06-10T11:16:58Z</time>
      </trkpt>
      <trkpt lat="46.61665" lon="5.8421">
        <ele>579.81</ele>
        <time>2016-06-10T11:17:03Z</time>
      </trkpt>
      <trkpt lat="46.61665" lon="5.84229">
        <ele>577.89</ele>
        <time>2016-06-10T11:17:14Z</time>
      </trkpt>
      <trkpt lat="46.61667" lon="5.84238">
        <ele>576.45</ele>
        <time>2016-06-10T11:17:24Z</time>
      </trkpt>
      <trkpt lat="46.61668" lon="5.84256">
        <ele>575.49</ele>
        <time>2016-06-10T11:17:38Z</time>
      </trkpt>
      <trkpt lat="46.61663" lon="5.84277">
        <ele>576.45</ele>
        <time>2016-06-10T11:17:50Z</time>
      </trkpt>
      <trkpt lat="46.61662" lon="5.84306">
        <ele>575.97</ele>
        <time>2016-06-10T11:18:04Z</time>
      </trkpt>
      <trkpt lat="46.6166" lon="5.8433">
        <ele>575.49</ele>
        <time>2016-06-10T11:18:18Z</time>
      </trkpt>
      <trkpt lat="46.61659" lon="5.84333">
        <ele>574.53</ele>
        <time>2016-06-10T11:18:20Z</time>
      </trkpt>
      <trkpt lat="46.61658" lon="5.84347">
        <ele>570.68</ele>
        <time>2016-06-10T11:18:32Z</time>
      </trkpt>
      <trkpt lat="46.61655" lon="5.84365">
        <ele>567.32</ele>
        <time>2016-06-10T11:18:45Z</time>
      </trkpt>
      <trkpt lat="46.61654" lon="5.84387">
        <ele>564.43</ele>
        <time>2016-06-10T11:18:58Z</time>
      </trkpt>
      <trkpt lat="46.6165" lon="5.84408">
        <ele>563.95</ele>
        <time>2016-06-10T11:19:09Z</time>
      </trkpt>
      <trkpt lat="46.61647" lon="5.8443">
        <ele>561.07</ele>
        <time>2016-06-10T11:19:21Z</time>
      </trkpt>
      <trkpt lat="46.61643" lon="5.8445">
        <ele>560.59</ele>
        <time>2016-06-10T11:19:34Z</time>
      </trkpt>
      <trkpt lat="46.61641" lon="5.84472">
        <ele>558.18</ele>
        <time>2016-06-10T11:19:46Z</time>
      </trkpt>
      <trkpt lat="46.61635" lon="5.84492">
        <ele>557.22</ele>
        <time>2016-06-10T11:19:58Z</time>
      </trkpt>
      <trkpt lat="46.6163" lon="5.84513">
        <ele>558.18</ele>
        <time>2016-06-10T11:20:12Z</time>
      </trkpt>
      <trkpt lat="46.61628" lon="5.84534">
        <ele>554.82</ele>
        <time>2016-06-10T11:20:26Z</time>
      </trkpt>
      <trkpt lat="46.61625" lon="5.84544">
        <ele>553.86</ele>
        <time>2016-06-10T11:20:33Z</time>
      </trkpt>
      <trkpt lat="46.61621" lon="5.84563">
        <ele>554.34</ele>
        <time>2016-06-10T11:20:46Z</time>
      </trkpt>
      <trkpt lat="46.61612" lon="5.84583">
        <ele>556.74</ele>
        <time>2016-06-10T11:20:58Z</time>
      </trkpt>
      <trkpt lat="46.61606" lon="5.84597">
        <ele>556.26</ele>
        <time>2016-06-10T11:21:09Z</time>
      </trkpt>
      <trkpt lat="46.61595" lon="5.84617">
        <ele>557.22</ele>
        <time>2016-06-10T11:21:22Z</time>
      </trkpt>
      <trkpt lat="46.61585" lon="5.84637">
        <ele>559.62</ele>
        <time>2016-06-10T11:21:35Z</time>
      </trkpt>
      <trkpt lat="46.61576" lon="5.84658">
        <ele>562.51</ele>
        <time>2016-06-10T11:21:49Z</time>
      </trkpt>
      <trkpt lat="46.61568" lon="5.84674">
        <ele>561.55</ele>
        <time>2016-06-10T11:22:03Z</time>
      </trkpt>
      <trkpt lat="46.61557" lon="5.84691">
        <ele>560.59</ele>
        <time>2016-06-10T11:22:18Z</time>
      </trkpt>
      <trkpt lat="46.61547" lon="5.847">
        <ele>558.18</ele>
        <time>2016-06-10T11:22:31Z</time>
      </trkpt>
      <trkpt lat="46.6154" lon="5.84708">
        <ele>552.41</ele>
        <time>2016-06-10T11:22:43Z</time>
      </trkpt>
      <trkpt lat="46.61529" lon="5.84729">
        <ele>546.65</ele>
        <time>2016-06-10T11:22:55Z</time>
      </trkpt>
      <trkpt lat="46.61522" lon="5.8475">
        <ele>542.32</ele>
        <time>2016-06-10T11:23:10Z</time>
      </trkpt>
      <trkpt lat="46.61515" lon="5.84762">
        <ele>535.11</ele>
        <time>2016-06-10T11:23:23Z</time>
      </trkpt>
      <trkpt lat="46.61505" lon="5.84782">
        <ele>528.38</ele>
        <time>2016-06-10T11:23:35Z</time>
      </trkpt>
      <trkpt lat="46.61496" lon="5.84796">
        <ele>520.21</ele>
        <time>2016-06-10T11:23:48Z</time>
      </trkpt>
      <trkpt lat="46.61489" lon="5.84812">
        <ele>516.37</ele>
        <time>2016-06-10T11:24:01Z</time>
      </trkpt>
      <trkpt lat="46.61472" lon="5.84827">
        <ele>521.17</ele>
        <time>2016-06-10T11:24:18Z</time>
      </trkpt>
      <trkpt lat="46.61461" lon="5.84839">
        <ele>521.65</ele>
        <time>2016-06-10T11:24:31Z</time>
      </trkpt>
      <trkpt lat="46.61449" lon="5.84846">
        <ele>520.21</ele>
        <time>2016-06-10T11:24:44Z</time>
      </trkpt>
      <trkpt lat="46.61431" lon="5.84857">
        <ele>521.17</ele>
        <time>2016-06-10T11:24:59Z</time>
      </trkpt>
      <trkpt lat="46.6142" lon="5.84872">
        <ele>519.25</ele>
        <time>2016-06-10T11:25:10Z</time>
      </trkpt>
      <trkpt lat="46.61414" lon="5.84883">
        <ele>518.29</ele>
        <time>2016-06-10T11:25:21Z</time>
      </trkpt>
      <trkpt lat="46.61408" lon="5.84901">
        <ele>509.64</ele>
        <time>2016-06-10T11:25:34Z</time>
      </trkpt>
      <trkpt lat="46.614" lon="5.84918">
        <ele>506.27</ele>
        <time>2016-06-10T11:25:46Z</time>
      </trkpt>
      <trkpt lat="46.61396" lon="5.8492">
        <ele>507.23</ele>
        <time>2016-06-10T11:26:00Z</time>
      </trkpt>
      <trkpt lat="46.61393" lon="5.84921">
        <ele>504.83</ele>
        <time>2016-06-10T11:26:04Z</time>
      </trkpt>
      <trkpt lat="46.61384" lon="5.84932">
        <ele>503.39</ele>
        <time>2016-06-10T11:26:17Z</time>
      </trkpt>
      <trkpt lat="46.61376" lon="5.84948">
        <ele>508.19</ele>
        <time>2016-06-10T11:26:29Z</time>
      </trkpt>
      <trkpt lat="46.61367" lon="5.8497">
        <ele>511.08</ele>
        <time>2016-06-10T11:26:42Z</time>
      </trkpt>
      <trkpt lat="46.61361" lon="5.84983">
        <ele>509.64</ele>
        <time>2016-06-10T11:26:53Z</time>
      </trkpt>
      <trkpt lat="46.61357" lon="5.84996">
        <ele>510.12</ele>
        <time>2016-06-10T11:27:04Z</time>
      </trkpt>
      <trkpt lat="46.61355" lon="5.85004">
        <ele>509.16</ele>
        <time>2016-06-10T11:27:10Z</time>
      </trkpt>
      <trkpt lat="46.61351" lon="5.85022">
        <ele>509.16</ele>
        <time>2016-06-10T11:27:21Z</time>
      </trkpt>
      <trkpt lat="46.61346" lon="5.85041">
        <ele>507.71</ele>
        <time>2016-06-10T11:27:34Z</time>
      </trkpt>
      <trkpt lat="46.61341" lon="5.8505">
        <ele>509.16</ele>
        <time>2016-06-10T11:27:45Z</time>
      </trkpt>
      <trkpt lat="46.61337" lon="5.85046">
        <ele>508.67</ele>
        <time>2016-06-10T11:27:56Z</time>
      </trkpt>
      <trkpt lat="46.61329" lon="5.85042">
        <ele>506.75</ele>
        <time>2016-06-10T11:28:15Z</time>
      </trkpt>
      <trkpt lat="46.61334" lon="5.85047">
        <ele>507.23</ele>
        <time>2016-06-10T11:28:22Z</time>
      </trkpt>
      <trkpt lat="46.61339" lon="5.85053">
        <ele>505.79</ele>
        <time>2016-06-10T11:28:29Z</time>
      </trkpt>
      <trkpt lat="46.61345" lon="5.85073">
        <ele>504.35</ele>
        <time>2016-06-10T11:28:41Z</time>
      </trkpt>
      <trkpt lat="46.61349" lon="5.85089">
        <ele>503.87</ele>
        <time>2016-06-10T11:28:52Z</time>
      </trkpt>
      <trkpt lat="46.61348" lon="5.85101">
        <ele>503.87</ele>
        <time>2016-06-10T11:29:01Z</time>
      </trkpt>
      <trkpt lat="46.61351" lon="5.85114">
        <ele>501.95</ele>
        <time>2016-06-10T11:29:14Z</time>
      </trkpt>
      <trkpt lat="46.61355" lon="5.85125">
        <ele>499.54</ele>
        <time>2016-06-10T11:29:28Z</time>
      </trkpt>
      <trkpt lat="46.61355" lon="5.8513">
        <ele>500.02</ele>
        <time>2016-06-10T11:29:31Z</time>
      </trkpt>
      <trkpt lat="46.61355" lon="5.85133">
        <ele>500.5</ele>
        <time>2016-06-10T11:29:33Z</time>
      </trkpt>
      <trkpt lat="46.61355" lon="5.85154">
        <ele>502.91</ele>
        <time>2016-06-10T11:29:46Z</time>
      </trkpt>
      <trkpt lat="46.61362" lon="5.85159">
        <ele>503.39</ele>
        <time>2016-06-10T11:29:58Z</time>
      </trkpt>
      <trkpt lat="46.61368" lon="5.85175">
        <ele>500.5</ele>
        <time>2016-06-10T11:30:10Z</time>
      </trkpt>
      <trkpt lat="46.61372" lon="5.85196">
        <ele>506.75</ele>
        <time>2016-06-10T11:30:24Z</time>
      </trkpt>
      <trkpt lat="46.61375" lon="5.85206">
        <ele>507.71</ele>
        <time>2016-06-10T11:30:37Z</time>
      </trkpt>
      <trkpt lat="46.61376" lon="5.85209">
        <ele>507.71</ele>
        <time>2016-06-10T11:30:55Z</time>
      </trkpt>
      <trkpt lat="46.61377" lon="5.85213">
        <ele>510.6</ele>
        <time>2016-06-10T11:31:20Z</time>
      </trkpt>
      <trkpt lat="46.61378" lon="5.85223">
        <ele>515.88</ele>
        <time>2016-06-10T11:31:45Z</time>
      </trkpt>
      <trkpt lat="46.61372" lon="5.8522">
        <ele>522.61</ele>
        <time>2016-06-10T11:32:03Z</time>
      </trkpt>
      <trkpt lat="46.61375" lon="5.85223">
        <ele>522.61</ele>
        <time>2016-06-10T11:32:19Z</time>
      </trkpt>
      <trkpt lat="46.61386" lon="5.8524">
        <ele>519.25</ele>
        <time>2016-06-10T11:32:30Z</time>
      </trkpt>
      <trkpt lat="46.61391" lon="5.85274">
        <ele>524.54</ele>
        <time>2016-06-10T11:32:47Z</time>
      </trkpt>
      <trkpt lat="46.61394" lon="5.85291">
        <ele>527.9</ele>
        <time>2016-06-10T11:32:59Z</time>
      </trkpt>
      <trkpt lat="46.61398" lon="5.85305">
        <ele>527.9</ele>
        <time>2016-06-10T11:33:11Z</time>
      </trkpt>
      <trkpt lat="46.614" lon="5.85315">
        <ele>525.98</ele>
        <time>2016-06-10T11:33:22Z</time>
      </trkpt>
      <trkpt lat="46.61404" lon="5.85329">
        <ele>522.61</ele>
        <time>2016-06-10T11:33:35Z</time>
      </trkpt>
      <trkpt lat="46.61409" lon="5.85339">
        <ele>522.61</ele>
        <time>2016-06-10T11:33:45Z</time>
      </trkpt>
      <trkpt lat="46.61403" lon="5.8534">
        <ele>528.86</ele>
        <time>2016-06-10T11:33:58Z</time>
      </trkpt>
      <trkpt lat="46.61402" lon="5.85344">
        <ele>531.75</ele>
        <time>2016-06-10T11:34:11Z</time>
      </trkpt>
      <trkpt lat="46.61401" lon="5.85346">
        <ele>532.23</ele>
        <time>2016-06-10T11:34:24Z</time>
      </trkpt>
      <trkpt lat="46.61403" lon="5.85347">
        <ele>532.23</ele>
        <time>2016-06-10T11:34:43Z</time>
      </trkpt>
      <trkpt lat="46.61405" lon="5.85347">
        <ele>531.75</ele>
        <time>2016-06-10T11:35:05Z</time>
      </trkpt>
      <trkpt lat="46.61406" lon="5.85348">
        <ele>532.23</ele>
        <time>2016-06-10T11:35:30Z</time>
      </trkpt>
      <trkpt lat="46.61405" lon="5.85345">
        <ele>529.34</ele>
        <time>2016-06-10T11:35:50Z</time>
      </trkpt>
      <trkpt lat="46.61406" lon="5.85343">
        <ele>530.79</ele>
        <time>2016-06-10T11:36:00Z</time>
      </trkpt>
      <trkpt lat="46.61405" lon="5.85345">
        <ele>529.82</ele>
        <time>2016-06-10T11:36:16Z</time>
      </trkpt>
      <trkpt lat="46.61412" lon="5.85356">
        <ele>526.46</ele>
        <time>2016-06-10T11:36:26Z</time>
      </trkpt>
      <trkpt lat="46.61411" lon="5.85367">
        <ele>527.42</ele>
        <time>2016-06-10T11:36:39Z</time>
      </trkpt>
      <trkpt lat="46.61409" lon="5.85372">
        <ele>526.94</ele>
        <time>2016-06-10T11:36:50Z</time>
      </trkpt>
      <trkpt lat="46.61413" lon="5.85386">
        <ele>527.42</ele>
        <time>2016-06-10T11:37:02Z</time>
      </trkpt>
      <trkpt lat="46.61411" lon="5.85397">
        <ele>529.82</ele>
        <time>2016-06-10T11:37:13Z</time>
      </trkpt>
      <trkpt lat="46.61409" lon="5.85407">
        <ele>530.79</ele>
        <time>2016-06-10T11:37:27Z</time>
      </trkpt>
      <trkpt lat="46.61403" lon="5.85418">
        <ele>532.23</ele>
        <time>2016-06-10T11:37:41Z</time>
      </trkpt>
      <trkpt lat="46.61398" lon="5.85429">
        <ele>534.63</ele>
        <time>2016-06-10T11:37:56Z</time>
      </trkpt>
      <trkpt lat="46.61396" lon="5.85434">
        <ele>537.03</ele>
        <time>2016-06-10T11:38:09Z</time>
      </trkpt>
      <trkpt lat="46.6139" lon="5.85446">
        <ele>540.88</ele>
        <time>2016-06-10T11:38:30Z</time>
      </trkpt>
      <trkpt lat="46.61391" lon="5.8545">
        <ele>540.4</ele>
        <time>2016-06-10T11:38:51Z</time>
      </trkpt>
      <trkpt lat="46.61402" lon="5.85433">
        <ele>528.38</ele>
        <time>2016-06-10T11:39:04Z</time>
      </trkpt>
      <trkpt lat="46.61403" lon="5.85436">
        <ele>529.34</ele>
        <time>2016-06-10T11:39:12Z</time>
      </trkpt>
      <trkpt lat="46.61404" lon="5.85446">
        <ele>529.34</ele>
        <time>2016-06-10T11:39:23Z</time>
      </trkpt>
      <trkpt lat="46.61406" lon="5.85453">
        <ele>528.86</ele>
        <time>2016-06-10T11:39:37Z</time>
      </trkpt>
      <trkpt lat="46.61407" lon="5.8546">
        <ele>527.9</ele>
        <time>2016-06-10T11:39:47Z</time>
      </trkpt>
      <trkpt lat="46.614" lon="5.85473">
        <ele>529.34</ele>
        <time>2016-06-10T11:40:01Z</time>
      </trkpt>
      <trkpt lat="46.61398" lon="5.85476">
        <ele>530.79</ele>
        <time>2016-06-10T11:40:21Z</time>
      </trkpt>
      <trkpt lat="46.61397" lon="5.85476">
        <ele>531.27</ele>
        <time>2016-06-10T11:40:38Z</time>
      </trkpt>
      <trkpt lat="46.61397" lon="5.85478">
        <ele>532.23</ele>
        <time>2016-06-10T11:40:50Z</time>
      </trkpt>
      <trkpt lat="46.614" lon="5.85483">
        <ele>535.59</ele>
        <time>2016-06-10T11:41:13Z</time>
      </trkpt>
      <trkpt lat="46.61409" lon="5.85465">
        <ele>540.88</ele>
        <time>2016-06-10T11:41:25Z</time>
      </trkpt>
      <trkpt lat="46.61413" lon="5.85455">
        <ele>542.8</ele>
        <time>2016-06-10T11:41:33Z</time>
      </trkpt>
      <trkpt lat="46.61417" lon="5.85435">
        <ele>545.69</ele>
        <time>2016-06-10T11:41:45Z</time>
      </trkpt>
      <trkpt lat="46.61421" lon="5.8543">
        <ele>546.17</ele>
        <time>2016-06-10T11:41:58Z</time>
      </trkpt>
      <trkpt lat="46.61429" lon="5.85418">
        <ele>550.01</ele>
        <time>2016-06-10T11:42:10Z</time>
      </trkpt>
      <trkpt lat="46.61433" lon="5.85413">
        <ele>551.45</ele>
        <time>2016-06-10T11:42:22Z</time>
      </trkpt>
      <trkpt lat="46.61434" lon="5.85409">
        <ele>552.9</ele>
        <time>2016-06-10T11:42:35Z</time>
      </trkpt>
      <trkpt lat="46.61436" lon="5.85406">
        <ele>553.86</ele>
        <time>2016-06-10T11:42:49Z</time>
      </trkpt>
      <trkpt lat="46.61439" lon="5.85401">
        <ele>554.82</ele>
        <time>2016-06-10T11:43:00Z</time>
      </trkpt>
      <trkpt lat="46.61445" lon="5.85394">
        <ele>556.74</ele>
        <time>2016-06-10T11:43:13Z</time>
      </trkpt>
      <trkpt lat="46.61448" lon="5.8539">
        <ele>558.18</ele>
        <time>2016-06-10T11:43:25Z</time>
      </trkpt>
      <trkpt lat="46.61452" lon="5.85385">
        <ele>559.62</ele>
        <time>2016-06-10T11:43:37Z</time>
      </trkpt>
      <trkpt lat="46.61457" lon="5.85377">
        <ele>562.51</ele>
        <time>2016-06-10T11:43:47Z</time>
      </trkpt>
      <trkpt lat="46.61459" lon="5.85379">
        <ele>565.39</ele>
        <time>2016-06-10T11:43:57Z</time>
      </trkpt>
      <trkpt lat="46.61462" lon="5.85385">
        <ele>562.03</ele>
        <time>2016-06-10T11:44:07Z</time>
      </trkpt>
      <trkpt lat="46.61465" lon="5.85392">
        <ele>559.14</ele>
        <time>2016-06-10T11:44:20Z</time>
      </trkpt>
      <trkpt lat="46.61464" lon="5.85402">
        <ele>557.7</ele>
        <time>2016-06-10T11:44:33Z</time>
      </trkpt>
      <trkpt lat="46.61467" lon="5.8541">
        <ele>557.7</ele>
        <time>2016-06-10T11:44:46Z</time>
      </trkpt>
      <trkpt lat="46.61468" lon="5.85423">
        <ele>556.74</ele>
        <time>2016-06-10T11:44:58Z</time>
      </trkpt>
      <trkpt lat="46.61466" lon="5.85434">
        <ele>555.3</ele>
        <time>2016-06-10T11:45:11Z</time>
      </trkpt>
      <trkpt lat="46.61463" lon="5.85449">
        <ele>554.82</ele>
        <time>2016-06-10T11:45:25Z</time>
      </trkpt>
      <trkpt lat="46.6146" lon="5.8546">
        <ele>554.34</ele>
        <time>2016-06-10T11:45:35Z</time>
      </trkpt>
      <trkpt lat="46.6146" lon="5.85469">
        <ele>552.41</ele>
        <time>2016-06-10T11:45:49Z</time>
      </trkpt>
      <trkpt lat="46.61457" lon="5.85477">
        <ele>551.45</ele>
        <time>2016-06-10T11:46:01Z</time>
      </trkpt>
      <trkpt lat="46.61457" lon="5.85478">
        <ele>551.45</ele>
        <time>2016-06-10T11:46:03Z</time>
      </trkpt>
      <trkpt lat="46.61454" lon="5.85491">
        <ele>554.34</ele>
        <time>2016-06-10T11:46:14Z</time>
      </trkpt>
      <trkpt lat="46.61428" lon="5.8553">
        <ele>588.46</ele>
        <time>2016-06-10T11:46:26Z</time>
      </trkpt>
      <trkpt lat="46.61421" lon="5.85535">
        <ele>592.79</ele>
        <time>2016-06-10T11:46:37Z</time>
      </trkpt>
      <trkpt lat="46.61416" lon="5.85535">
        <ele>594.71</ele>
        <time>2016-06-10T11:46:49Z</time>
      </trkpt>
      <trkpt lat="46.61411" lon="5.85536">
        <ele>595.67</ele>
        <time>2016-06-10T11:46:57Z</time>
      </trkpt>
      <trkpt lat="46.61404" lon="5.85536">
        <ele>596.64</ele>
        <time>2016-06-10T11:47:10Z</time>
      </trkpt>
      <trkpt lat="46.614" lon="5.85531">
        <ele>592.79</ele>
        <time>2016-06-10T11:47:21Z</time>
      </trkpt>
      <trkpt lat="46.61397" lon="5.8553">
        <ele>591.35</ele>
        <time>2016-06-10T11:47:31Z</time>
      </trkpt>
      <trkpt lat="46.61392" lon="5.85533">
        <ele>586.54</ele>
        <time>2016-06-10T11:47:41Z</time>
      </trkpt>
      <trkpt lat="46.6139" lon="5.85529">
        <ele>586.54</ele>
        <time>2016-06-10T11:47:54Z</time>
      </trkpt>
      <trkpt lat="46.61394" lon="5.85526">
        <ele>588.46</ele>
        <time>2016-06-10T11:48:04Z</time>
      </trkpt>
      <trkpt lat="46.61401" lon="5.85532">
        <ele>587.98</ele>
        <time>2016-06-10T11:48:16Z</time>
      </trkpt>
      <trkpt lat="46.61406" lon="5.8554">
        <ele>586.06</ele>
        <time>2016-06-10T11:48:26Z</time>
      </trkpt>
      <trkpt lat="46.61408" lon="5.85549">
        <ele>584.62</ele>
        <time>2016-06-10T11:48:38Z</time>
      </trkpt>
      <trkpt lat="46.61411" lon="5.85566">
        <ele>584.14</ele>
        <time>2016-06-10T11:48:48Z</time>
      </trkpt>
      <trkpt lat="46.61404" lon="5.85581">
        <ele>585.1</ele>
        <time>2016-06-10T11:49:02Z</time>
      </trkpt>
      <trkpt lat="46.61402" lon="5.85596">
        <ele>583.66</ele>
        <time>2016-06-10T11:49:14Z</time>
      </trkpt>
      <trkpt lat="46.61401" lon="5.856">
        <ele>584.62</ele>
        <time>2016-06-10T11:49:29Z</time>
      </trkpt>
      <trkpt lat="46.61402" lon="5.85602">
        <ele>585.58</ele>
        <time>2016-06-10T11:49:49Z</time>
      </trkpt>
      <trkpt lat="46.614" lon="5.85608">
        <ele>586.06</ele>
        <time>2016-06-10T11:50:17Z</time>
      </trkpt>
      <trkpt lat="46.61397" lon="5.85613">
        <ele>586.06</ele>
        <time>2016-06-10T11:50:41Z</time>
      </trkpt>
      <trkpt lat="46.61399" lon="5.85615">
        <ele>587.5</ele>
        <time>2016-06-10T11:50:56Z</time>
      </trkpt>
      <trkpt lat="46.61401" lon="5.85616">
        <ele>589.91</ele>
        <time>2016-06-10T11:51:23Z</time>
      </trkpt>
      <trkpt lat="46.61402" lon="5.85616">
        <ele>590.87</ele>
        <time>2016-06-10T11:51:48Z</time>
      </trkpt>
      <trkpt lat="46.61403" lon="5.85617">
        <ele>590.87</ele>
        <time>2016-06-10T11:52:05Z</time>
      </trkpt>
      <trkpt lat="46.61404" lon="5.85625">
        <ele>590.87</ele>
        <time>2016-06-10T11:52:17Z</time>
      </trkpt>
      <trkpt lat="46.61407" lon="5.85634">
        <ele>591.35</ele>
        <time>2016-06-10T11:52:29Z</time>
      </trkpt>
      <trkpt lat="46.61409" lon="5.85639">
        <ele>591.83</ele>
        <time>2016-06-10T11:52:43Z</time>
      </trkpt>
      <trkpt lat="46.61408" lon="5.85641">
        <ele>592.31</ele>
        <time>2016-06-10T11:52:58Z</time>
      </trkpt>
      <trkpt lat="46.61406" lon="5.85644">
        <ele>592.79</ele>
        <time>2016-06-10T11:53:11Z</time>
      </trkpt>
      <trkpt lat="46.61404" lon="5.85651">
        <ele>593.75</ele>
        <time>2016-06-10T11:53:29Z</time>
      </trkpt>
      <trkpt lat="46.61404" lon="5.85668">
        <ele>596.64</ele>
        <time>2016-06-10T11:53:43Z</time>
      </trkpt>
      <trkpt lat="46.61406" lon="5.85675">
        <ele>597.12</ele>
        <time>2016-06-10T11:54:00Z</time>
      </trkpt>
      <trkpt lat="46.61406" lon="5.85685">
        <ele>599.04</ele>
        <time>2016-06-10T11:54:13Z</time>
      </trkpt>
      <trkpt lat="46.61403" lon="5.85691">
        <ele>601.44</ele>
        <time>2016-06-10T11:54:28Z</time>
      </trkpt>
      <trkpt lat="46.61405" lon="5.85695">
        <ele>603.36</ele>
        <time>2016-06-10T11:54:43Z</time>
      </trkpt>
      <trkpt lat="46.61401" lon="5.85707">
        <ele>605.77</ele>
        <time>2016-06-10T11:54:55Z</time>
      </trkpt>
      <trkpt lat="46.61398" lon="5.85716">
        <ele>610.57</ele>
        <time>2016-06-10T11:55:10Z</time>
      </trkpt>
      <trkpt lat="46.61398" lon="5.85723">
        <ele>614.9</ele>
        <time>2016-06-10T11:55:22Z</time>
      </trkpt>
      <trkpt lat="46.61394" lon="5.85727">
        <ele>616.82</ele>
        <time>2016-06-10T11:55:37Z</time>
      </trkpt>
      <trkpt lat="46.61395" lon="5.85741">
        <ele>618.26</ele>
        <time>2016-06-10T11:55:49Z</time>
      </trkpt>
      <trkpt lat="46.61393" lon="5.85757">
        <ele>619.71</ele>
        <time>2016-06-10T11:56:06Z</time>
      </trkpt>
      <trkpt lat="46.61395" lon="5.8577">
        <ele>622.59</ele>
        <time>2016-06-10T11:56:21Z</time>
      </trkpt>
      <trkpt lat="46.6139" lon="5.85785">
        <ele>624.99</ele>
        <time>2016-06-10T11:56:36Z</time>
      </trkpt>
      <trkpt lat="46.6139" lon="5.85796">
        <ele>626.92</ele>
        <time>2016-06-10T11:56:50Z</time>
      </trkpt>
      <trkpt lat="46.61391" lon="5.85807">
        <ele>629.32</ele>
        <time>2016-06-10T11:57:03Z</time>
      </trkpt>
      <trkpt lat="46.6139" lon="5.85808">
        <ele>629.8</ele>
        <time>2016-06-10T11:57:04Z</time>
      </trkpt>
      <trkpt lat="46.6139" lon="5.85817">
        <ele>630.76</ele>
        <time>2016-06-10T11:57:18Z</time>
      </trkpt>
      <trkpt lat="46.6139" lon="5.85828">
        <ele>630.28</ele>
        <time>2016-06-10T11:57:35Z</time>
      </trkpt>
      <trkpt lat="46.61387" lon="5.85831">
        <ele>629.8</ele>
        <time>2016-06-10T11:57:50Z</time>
      </trkpt>
      <trkpt lat="46.61388" lon="5.85834">
        <ele>628.84</ele>
        <time>2016-06-10T11:58:03Z</time>
      </trkpt>
      <trkpt lat="46.61388" lon="5.8584">
        <ele>628.84</ele>
        <time>2016-06-10T11:58:19Z</time>
      </trkpt>
      <trkpt lat="46.61388" lon="5.85843">
        <ele>630.28</ele>
        <time>2016-06-10T11:58:34Z</time>
      </trkpt>
      <trkpt lat="46.61388" lon="5.8585">
        <ele>630.76</ele>
        <time>2016-06-10T11:58:48Z</time>
      </trkpt>
      <trkpt lat="46.6139" lon="5.85858">
        <ele>632.68</ele>
        <time>2016-06-10T11:59:03Z</time>
      </trkpt>
      <trkpt lat="46.61389" lon="5.85862">
        <ele>633.65</ele>
        <time>2016-06-10T11:59:21Z</time>
      </trkpt>
      <trkpt lat="46.61391" lon="5.85868">
        <ele>635.09</ele>
        <time>2016-06-10T11:59:40Z</time>
      </trkpt>
      <trkpt lat="46.61392" lon="5.85871">
        <ele>634.61</ele>
        <time>2016-06-10T11:59:55Z</time>
      </trkpt>
      <trkpt lat="46.6139" lon="5.8588">
        <ele>633.17</ele>
        <time>2016-06-10T12:00:11Z</time>
      </trkpt>
      <trkpt lat="46.61398" lon="5.85883">
        <ele>631.24</ele>
        <time>2016-06-10T12:00:29Z</time>
      </trkpt>
      <trkpt lat="46.61408" lon="5.85892">
        <ele>631.72</ele>
        <time>2016-06-10T12:00:46Z</time>
      </trkpt>
      <trkpt lat="46.61421" lon="5.85904">
        <ele>637.49</ele>
        <time>2016-06-10T12:01:00Z</time>
      </trkpt>
      <trkpt lat="46.61423" lon="5.85907">
        <ele>641.34</ele>
        <time>2016-06-10T12:01:15Z</time>
      </trkpt>
      <trkpt lat="46.61421" lon="5.8591">
        <ele>643.26</ele>
        <time>2016-06-10T12:01:39Z</time>
      </trkpt>
      <trkpt lat="46.6142" lon="5.85909">
        <ele>645.18</ele>
        <time>2016-06-10T12:01:47Z</time>
      </trkpt>
      <trkpt lat="46.61404" lon="5.85903">
        <ele>648.07</ele>
        <time>2016-06-10T12:02:00Z</time>
      </trkpt>
      <trkpt lat="46.61399" lon="5.859">
        <ele>649.51</ele>
        <time>2016-06-10T12:02:12Z</time>
      </trkpt>
      <trkpt lat="46.61396" lon="5.85899">
        <ele>649.03</ele>
        <time>2016-06-10T12:02:27Z</time>
      </trkpt>
      <trkpt lat="46.61394" lon="5.85896">
        <ele>649.51</ele>
        <time>2016-06-10T12:02:43Z</time>
      </trkpt>
      <trkpt lat="46.61388" lon="5.85889">
        <ele>649.51</ele>
        <time>2016-06-10T12:02:56Z</time>
      </trkpt>
      <trkpt lat="46.61385" lon="5.85884">
        <ele>649.99</ele>
        <time>2016-06-10T12:03:10Z</time>
      </trkpt>
      <trkpt lat="46.61382" lon="5.8588">
        <ele>650.47</ele>
        <time>2016-06-10T12:03:28Z</time>
      </trkpt>
      <trkpt lat="46.61376" lon="5.85878">
        <ele>652.39</ele>
        <time>2016-06-10T12:03:45Z</time>
      </trkpt>
      <trkpt lat="46.61375" lon="5.8588">
        <ele>652.39</ele>
        <time>2016-06-10T12:04:03Z</time>
      </trkpt>
      <trkpt lat="46.61376" lon="5.85884">
        <ele>653.83</ele>
        <time>2016-06-10T12:04:17Z</time>
      </trkpt>
      <trkpt lat="46.61378" lon="5.85886">
        <ele>653.83</ele>
        <time>2016-06-10T12:04:33Z</time>
      </trkpt>
      <trkpt lat="46.61382" lon="5.8589">
        <ele>652.39</ele>
        <time>2016-06-10T12:04:46Z</time>
      </trkpt>
      <trkpt lat="46.61382" lon="5.85899">
        <ele>650.47</ele>
        <time>2016-06-10T12:04:52Z</time>
      </trkpt>
      <trkpt lat="46.61394" lon="5.85918">
        <ele>648.55</ele>
        <time>2016-06-10T12:05:07Z</time>
      </trkpt>
      <trkpt lat="46.61411" lon="5.85938">
        <ele>655.28</ele>
        <time>2016-06-10T12:05:21Z</time>
      </trkpt>
      <trkpt lat="46.61411" lon="5.85939">
        <ele>655.28</ele>
        <time>2016-06-10T12:05:22Z</time>
      </trkpt>
      <trkpt lat="46.6141" lon="5.85945">
        <ele>655.76</ele>
        <time>2016-06-10T12:05:33Z</time>
      </trkpt>
      <trkpt lat="46.61418" lon="5.85954">
        <ele>653.35</ele>
        <time>2016-06-10T12:05:44Z</time>
      </trkpt>
      <trkpt lat="46.61419" lon="5.85955">
        <ele>652.87</ele>
        <time>2016-06-10T12:05:49Z</time>
      </trkpt>
      <trkpt lat="46.61416" lon="5.85966">
        <ele>651.43</ele>
        <time>2016-06-10T12:05:57Z</time>
      </trkpt>
      <trkpt lat="46.61423" lon="5.85982">
        <ele>647.1</ele>
        <time>2016-06-10T12:06:09Z</time>
      </trkpt>
      <trkpt lat="46.61432" lon="5.85993">
        <ele>646.14</ele>
        <time>2016-06-10T12:06:21Z</time>
      </trkpt>
      <trkpt lat="46.61445" lon="5.86009">
        <ele>649.99</ele>
        <time>2016-06-10T12:06:33Z</time>
      </trkpt>
      <trkpt lat="46.61448" lon="5.86015">
        <ele>652.87</ele>
        <time>2016-06-10T12:06:44Z</time>
      </trkpt>
      <trkpt lat="46.61449" lon="5.86023">
        <ele>656.24</ele>
        <time>2016-06-10T12:06:55Z</time>
      </trkpt>
      <trkpt lat="46.61449" lon="5.86028">
        <ele>658.16</ele>
        <time>2016-06-10T12:07:09Z</time>
      </trkpt>
      <trkpt lat="46.6145" lon="5.8603">
        <ele>658.64</ele>
        <time>2016-06-10T12:07:23Z</time>
      </trkpt>
      <trkpt lat="46.61453" lon="5.86037">
        <ele>656.24</ele>
        <time>2016-06-10T12:07:36Z</time>
      </trkpt>
      <trkpt lat="46.61462" lon="5.86048">
        <ele>657.68</ele>
        <time>2016-06-10T12:07:47Z</time>
      </trkpt>
      <trkpt lat="46.61465" lon="5.86056">
        <ele>658.16</ele>
        <time>2016-06-10T12:08:00Z</time>
      </trkpt>
      <trkpt lat="46.61469" lon="5.86062">
        <ele>659.6</ele>
        <time>2016-06-10T12:08:13Z</time>
      </trkpt>
      <trkpt lat="46.61471" lon="5.86065">
        <ele>659.6</ele>
        <time>2016-06-10T12:08:26Z</time>
      </trkpt>
      <trkpt lat="46.61475" lon="5.86071">
        <ele>661.52</ele>
        <time>2016-06-10T12:08:39Z</time>
      </trkpt>
      <trkpt lat="46.61477" lon="5.8608">
        <ele>663.45</ele>
        <time>2016-06-10T12:08:53Z</time>
      </trkpt>
      <trkpt lat="46.61479" lon="5.86083">
        <ele>665.85</ele>
        <time>2016-06-10T12:09:07Z</time>
      </trkpt>
      <trkpt lat="46.6148" lon="5.86091">
        <ele>662.97</ele>
        <time>2016-06-10T12:09:22Z</time>
      </trkpt>
      <trkpt lat="46.61481" lon="5.861">
        <ele>662.01</ele>
        <time>2016-06-10T12:09:34Z</time>
      </trkpt>
      <trkpt lat="46.61486" lon="5.86104">
        <ele>659.6</ele>
        <time>2016-06-10T12:09:47Z</time>
      </trkpt>
      <trkpt lat="46.61487" lon="5.86114">
        <ele>657.68</ele>
        <time>2016-06-10T12:09:58Z</time>
      </trkpt>
      <trkpt lat="46.61489" lon="5.86118">
        <ele>658.16</ele>
        <time>2016-06-10T12:10:11Z</time>
      </trkpt>
      <trkpt lat="46.61491" lon="5.86121">
        <ele>659.12</ele>
        <time>2016-06-10T12:10:26Z</time>
      </trkpt>
      <trkpt lat="46.61493" lon="5.86125">
        <ele>661.52</ele>
        <time>2016-06-10T12:10:46Z</time>
      </trkpt>
      <trkpt lat="46.61501" lon="5.86143">
        <ele>662.01</ele>
        <time>2016-06-10T12:11:00Z</time>
      </trkpt>
      <trkpt lat="46.61503" lon="5.86147">
        <ele>662.49</ele>
        <time>2016-06-10T12:11:03Z</time>
      </trkpt>
      <trkpt lat="46.61501" lon="5.86166">
        <ele>664.41</ele>
        <time>2016-06-10T12:11:16Z</time>
      </trkpt>
      <trkpt lat="46.61503" lon="5.86168">
        <ele>664.89</ele>
        <time>2016-06-10T12:11:22Z</time>
      </trkpt>
      <trkpt lat="46.61499" lon="5.8617">
        <ele>665.85</ele>
        <time>2016-06-10T12:11:36Z</time>
      </trkpt>
      <trkpt lat="46.61502" lon="5.86173">
        <ele>665.85</ele>
        <time>2016-06-10T12:11:59Z</time>
      </trkpt>
      <trkpt lat="46.61502" lon="5.86174">
        <ele>666.33</ele>
        <time>2016-06-10T12:12:19Z</time>
      </trkpt>
      <trkpt lat="46.61502" lon="5.86175">
        <ele>666.33</ele>
        <time>2016-06-10T12:12:21Z</time>
      </trkpt>
      <trkpt lat="46.61505" lon="5.86184">
        <ele>666.33</ele>
        <time>2016-06-10T12:12:32Z</time>
      </trkpt>
      <trkpt lat="46.61508" lon="5.86192">
        <ele>667.29</ele>
        <time>2016-06-10T12:12:47Z</time>
      </trkpt>
      <trkpt lat="46.6151" lon="5.86199">
        <ele>667.29</ele>
        <time>2016-06-10T12:13:04Z</time>
      </trkpt>
      <trkpt lat="46.61516" lon="5.86205">
        <ele>667.29</ele>
        <time>2016-06-10T12:13:19Z</time>
      </trkpt>
      <trkpt lat="46.61521" lon="5.86204">
        <ele>669.7</ele>
        <time>2016-06-10T12:13:46Z</time>
      </trkpt>
      <trkpt lat="46.6152" lon="5.86205">
        <ele>672.1</ele>
        <time>2016-06-10T12:14:11Z</time>
      </trkpt>
      <trkpt lat="46.6152" lon="5.86208">
        <ele>674.5</ele>
        <time>2016-06-10T12:14:31Z</time>
      </trkpt>
      <trkpt lat="46.61518" lon="5.8621">
        <ele>676.91</ele>
        <time>2016-06-10T12:14:48Z</time>
      </trkpt>
      <trkpt lat="46.61511" lon="5.86207">
        <ele>680.75</ele>
        <time>2016-06-10T12:15:02Z</time>
      </trkpt>
      <trkpt lat="46.61509" lon="5.86206">
        <ele>681.71</ele>
        <time>2016-06-10T12:15:07Z</time>
      </trkpt>
      <trkpt lat="46.61503" lon="5.862">
        <ele>679.31</ele>
        <time>2016-06-10T12:15:17Z</time>
      </trkpt>
      <trkpt lat="46.61499" lon="5.86198">
        <ele>678.83</ele>
        <time>2016-06-10T12:15:31Z</time>
      </trkpt>
      <trkpt lat="46.61496" lon="5.86205">
        <ele>678.35</ele>
        <time>2016-06-10T12:15:47Z</time>
      </trkpt>
      <trkpt lat="46.61491" lon="5.86225">
        <ele>677.87</ele>
        <time>2016-06-10T12:15:59Z</time>
      </trkpt>
      <trkpt lat="46.615" lon="5.86238">
        <ele>679.79</ele>
        <time>2016-06-10T12:16:14Z</time>
      </trkpt>
      <trkpt lat="46.61504" lon="5.86245">
        <ele>679.31</ele>
        <time>2016-06-10T12:16:27Z</time>
      </trkpt>
      <trkpt lat="46.6151" lon="5.86253">
        <ele>680.75</ele>
        <time>2016-06-10T12:16:38Z</time>
      </trkpt>
      <trkpt lat="46.6152" lon="5.86262">
        <ele>680.27</ele>
        <time>2016-06-10T12:16:53Z</time>
      </trkpt>
      <trkpt lat="46.61527" lon="5.86266">
        <ele>679.31</ele>
        <time>2016-06-10T12:17:05Z</time>
      </trkpt>
      <trkpt lat="46.61531" lon="5.86272">
        <ele>679.31</ele>
        <time>2016-06-10T12:17:16Z</time>
      </trkpt>
      <trkpt lat="46.61535" lon="5.86286">
        <ele>678.83</ele>
        <time>2016-06-10T12:17:32Z</time>
      </trkpt>
      <trkpt lat="46.61528" lon="5.86311">
        <ele>679.31</ele>
        <time>2016-06-10T12:17:46Z</time>
      </trkpt>
      <trkpt lat="46.61528" lon="5.86313">
        <ele>679.31</ele>
        <time>2016-06-10T12:17:47Z</time>
      </trkpt>
      <trkpt lat="46.61533" lon="5.86315">
        <ele>680.75</ele>
        <time>2016-06-10T12:17:54Z</time>
      </trkpt>
      <trkpt lat="46.61546" lon="5.86337">
        <ele>682.67</ele>
        <time>2016-06-10T12:18:06Z</time>
      </trkpt>
      <trkpt lat="46.6154" lon="5.86347">
        <ele>686.04</ele>
        <time>2016-06-10T12:18:21Z</time>
      </trkpt>
      <trkpt lat="46.61534" lon="5.86352">
        <ele>687</ele>
        <time>2016-06-10T12:18:34Z</time>
      </trkpt>
      <trkpt lat="46.61532" lon="5.86354">
        <ele>688.44</ele>
        <time>2016-06-10T12:18:49Z</time>
      </trkpt>
      <trkpt lat="46.6153" lon="5.86353">
        <ele>688.44</ele>
        <time>2016-06-10T12:19:07Z</time>
      </trkpt>
      <trkpt lat="46.61529" lon="5.86358">
        <ele>688.92</ele>
        <time>2016-06-10T12:19:19Z</time>
      </trkpt>
      <trkpt lat="46.61527" lon="5.86362">
        <ele>689.4</ele>
        <time>2016-06-10T12:19:35Z</time>
      </trkpt>
      <trkpt lat="46.61522" lon="5.86373">
        <ele>690.84</ele>
        <time>2016-06-10T12:19:48Z</time>
      </trkpt>
      <trkpt lat="46.61522" lon="5.86379">
        <ele>691.81</ele>
        <time>2016-06-10T12:19:54Z</time>
      </trkpt>
      <trkpt lat="46.61524" lon="5.86387">
        <ele>692.29</ele>
        <time>2016-06-10T12:20:05Z</time>
      </trkpt>
      <trkpt lat="46.61522" lon="5.86397">
        <ele>695.65</ele>
        <time>2016-06-10T12:20:19Z</time>
      </trkpt>
      <trkpt lat="46.61526" lon="5.86408">
        <ele>695.65</ele>
        <time>2016-06-10T12:20:32Z</time>
      </trkpt>
      <trkpt lat="46.6153" lon="5.8642">
        <ele>694.69</ele>
        <time>2016-06-10T12:20:45Z</time>
      </trkpt>
      <trkpt lat="46.61524" lon="5.86428">
        <ele>692.77</ele>
        <time>2016-06-10T12:20:59Z</time>
      </trkpt>
      <trkpt lat="46.61515" lon="5.86434">
        <ele>693.73</ele>
        <time>2016-06-10T12:21:14Z</time>
      </trkpt>
      <trkpt lat="46.61508" lon="5.86446">
        <ele>696.13</ele>
        <time>2016-06-10T12:21:28Z</time>
      </trkpt>
      <trkpt lat="46.61509" lon="5.86459">
        <ele>698.05</ele>
        <time>2016-06-10T12:21:44Z</time>
      </trkpt>
      <trkpt lat="46.61507" lon="5.86461">
        <ele>699.02</ele>
        <time>2016-06-10T12:22:03Z</time>
      </trkpt>
      <trkpt lat="46.61505" lon="5.86466">
        <ele>698.05</ele>
        <time>2016-06-10T12:22:22Z</time>
      </trkpt>
      <trkpt lat="46.6151" lon="5.86477">
        <ele>697.57</ele>
        <time>2016-06-10T12:22:32Z</time>
      </trkpt>
      <trkpt lat="46.61507" lon="5.86491">
        <ele>698.05</ele>
        <time>2016-06-10T12:22:42Z</time>
      </trkpt>
      <trkpt lat="46.61505" lon="5.86498">
        <ele>698.05</ele>
        <time>2016-06-10T12:22:56Z</time>
      </trkpt>
      <trkpt lat="46.61505" lon="5.86506">
        <ele>697.09</ele>
        <time>2016-06-10T12:23:07Z</time>
      </trkpt>
      <trkpt lat="46.61507" lon="5.86518">
        <ele>697.57</ele>
        <time>2016-06-10T12:23:20Z</time>
      </trkpt>
      <trkpt lat="46.61504" lon="5.86527">
        <ele>695.65</ele>
        <time>2016-06-10T12:23:26Z</time>
      </trkpt>
      <trkpt lat="46.61512" lon="5.86541">
        <ele>695.65</ele>
        <time>2016-06-10T12:23:36Z</time>
      </trkpt>
      <trkpt lat="46.61514" lon="5.86554">
        <ele>693.73</ele>
        <time>2016-06-10T12:23:46Z</time>
      </trkpt>
      <trkpt lat="46.61509" lon="5.86559">
        <ele>689.4</ele>
        <time>2016-06-10T12:24:01Z</time>
      </trkpt>
      <trkpt lat="46.61507" lon="5.86567">
        <ele>689.4</ele>
        <time>2016-06-10T12:24:13Z</time>
      </trkpt>
      <trkpt lat="46.61507" lon="5.8657">
        <ele>689.88</ele>
        <time>2016-06-10T12:24:16Z</time>
      </trkpt>
      <trkpt lat="46.61501" lon="5.86584">
        <ele>690.84</ele>
        <time>2016-06-10T12:24:27Z</time>
      </trkpt>
      <trkpt lat="46.61504" lon="5.86596">
        <ele>689.88</ele>
        <time>2016-06-10T12:24:39Z</time>
      </trkpt>
      <trkpt lat="46.61506" lon="5.86603">
        <ele>690.36</ele>
        <time>2016-06-10T12:24:50Z</time>
      </trkpt>
      <trkpt lat="46.61507" lon="5.86604">
        <ele>692.77</ele>
        <time>2016-06-10T12:25:10Z</time>
      </trkpt>
      <trkpt lat="46.61508" lon="5.8661">
        <ele>693.73</ele>
        <time>2016-06-10T12:25:28Z</time>
      </trkpt>
      <trkpt lat="46.61509" lon="5.86627">
        <ele>693.25</ele>
        <time>2016-06-10T12:25:43Z</time>
      </trkpt>
      <trkpt lat="46.6151" lon="5.86637">
        <ele>691.33</ele>
        <time>2016-06-10T12:25:56Z</time>
      </trkpt>
      <trkpt lat="46.61501" lon="5.86638">
        <ele>689.88</ele>
        <time>2016-06-10T12:26:15Z</time>
      </trkpt>
      <trkpt lat="46.615" lon="5.86641">
        <ele>689.4</ele>
        <time>2016-06-10T12:26:28Z</time>
      </trkpt>
      <trkpt lat="46.61498" lon="5.86643">
        <ele>693.25</ele>
        <time>2016-06-10T12:26:40Z</time>
      </trkpt>
      <trkpt lat="46.61496" lon="5.86646">
        <ele>693.25</ele>
        <time>2016-06-10T12:26:52Z</time>
      </trkpt>
      <trkpt lat="46.61491" lon="5.86661">
        <ele>695.17</ele>
        <time>2016-06-10T12:27:06Z</time>
      </trkpt>
      <trkpt lat="46.61491" lon="5.86667">
        <ele>695.65</ele>
        <time>2016-06-10T12:27:22Z</time>
      </trkpt>
      <trkpt lat="46.6149" lon="5.86667">
        <ele>696.61</ele>
        <time>2016-06-10T12:27:43Z</time>
      </trkpt>
      <trkpt lat="46.61485" lon="5.86665">
        <ele>698.05</ele>
        <time>2016-06-10T12:27:50Z</time>
      </trkpt>
      <trkpt lat="46.61478" lon="5.86665">
        <ele>701.9</ele>
        <time>2016-06-10T12:28:00Z</time>
      </trkpt>
      <trkpt lat="46.61478" lon="5.86666">
        <ele>701.9</ele>
        <time>2016-06-10T12:28:01Z</time>
      </trkpt>
      <trkpt lat="46.61467" lon="5.86683">
        <ele>700.94</ele>
        <time>2016-06-10T12:28:14Z</time>
      </trkpt>
      <trkpt lat="46.61459" lon="5.86691">
        <ele>701.9</ele>
        <time>2016-06-10T12:28:26Z</time>
      </trkpt>
      <trkpt lat="46.61453" lon="5.86706">
        <ele>702.38</ele>
        <time>2016-06-10T12:28:38Z</time>
      </trkpt>
      <trkpt lat="46.61452" lon="5.86725">
        <ele>699.98</ele>
        <time>2016-06-10T12:28:48Z</time>
      </trkpt>
      <trkpt lat="46.61451" lon="5.86729">
        <ele>699.98</ele>
        <time>2016-06-10T12:28:51Z</time>
      </trkpt>
      <trkpt lat="46.61448" lon="5.86747">
        <ele>700.94</ele>
        <time>2016-06-10T12:29:02Z</time>
      </trkpt>
      <trkpt lat="46.61442" lon="5.86759">
        <ele>699.02</ele>
        <time>2016-06-10T12:29:13Z</time>
      </trkpt>
      <trkpt lat="46.61438" lon="5.8677">
        <ele>697.09</ele>
        <time>2016-06-10T12:29:23Z</time>
      </trkpt>
      <trkpt lat="46.61432" lon="5.86773">
        <ele>695.17</ele>
        <time>2016-06-10T12:29:35Z</time>
      </trkpt>
      <trkpt lat="46.61437" lon="5.86774">
        <ele>694.21</ele>
        <time>2016-06-10T12:29:47Z</time>
      </trkpt>
      <trkpt lat="46.61436" lon="5.86777">
        <ele>694.69</ele>
        <time>2016-06-10T12:29:51Z</time>
      </trkpt>
      <trkpt lat="46.61431" lon="5.86784">
        <ele>695.17</ele>
        <time>2016-06-10T12:29:54Z</time>
      </trkpt>
      <trkpt lat="46.61423" lon="5.86791">
        <ele>695.65</ele>
        <time>2016-06-10T12:29:58Z</time>
      </trkpt>
      <trkpt lat="46.61417" lon="5.86804">
        <ele>700.46</ele>
        <time>2016-06-10T12:30:08Z</time>
      </trkpt>
      <trkpt lat="46.61406" lon="5.86819">
        <ele>700.46</ele>
        <time>2016-06-10T12:30:17Z</time>
      </trkpt>
      <trkpt lat="46.61402" lon="5.86828">
        <ele>695.17</ele>
        <time>2016-06-10T12:30:30Z</time>
      </trkpt>
      <trkpt lat="46.614" lon="5.86833">
        <ele>693.73</ele>
        <time>2016-06-10T12:30:41Z</time>
      </trkpt>
      <trkpt lat="46.614" lon="5.86835">
        <ele>693.73</ele>
        <time>2016-06-10T12:30:46Z</time>
      </trkpt>
      <trkpt lat="46.614" lon="5.86841">
        <ele>693.25</ele>
        <time>2016-06-10T12:30:58Z</time>
      </trkpt>
      <trkpt lat="46.61401" lon="5.86843">
        <ele>694.21</ele>
        <time>2016-06-10T12:31:15Z</time>
      </trkpt>
      <trkpt lat="46.61402" lon="5.86844">
        <ele>695.65</ele>
        <time>2016-06-10T12:31:29Z</time>
      </trkpt>
      <trkpt lat="46.61399" lon="5.8685">
        <ele>695.65</ele>
        <time>2016-06-10T12:31:38Z</time>
      </trkpt>
      <trkpt lat="46.61398" lon="5.86854">
        <ele>695.17</ele>
        <time>2016-06-10T12:31:48Z</time>
      </trkpt>
      <trkpt lat="46.61402" lon="5.86861">
        <ele>699.5</ele>
        <time>2016-06-10T12:31:58Z</time>
      </trkpt>
      <trkpt lat="46.61404" lon="5.86868">
        <ele>700.94</ele>
        <time>2016-06-10T12:32:09Z</time>
      </trkpt>
      <trkpt lat="46.61408" lon="5.86883">
        <ele>700.94</ele>
        <time>2016-06-10T12:32:21Z</time>
      </trkpt>
      <trkpt lat="46.61414" lon="5.86888">
        <ele>703.34</ele>
        <time>2016-06-10T12:32:34Z</time>
      </trkpt>
      <trkpt lat="46.61418" lon="5.86893">
        <ele>713.92</ele>
        <time>2016-06-10T12:32:58Z</time>
      </trkpt>
      <trkpt lat="46.61418" lon="5.86893">
        <ele>714.4</ele>
        <time>2016-06-10T12:33:22Z</time>
      </trkpt>
      <trkpt lat="46.6142" lon="5.86891">
        <ele>714.4</ele>
        <time>2016-06-10T12:33:35Z</time>
      </trkpt>
      <trkpt lat="46.61418" lon="5.86889">
        <ele>712.47</ele>
        <time>2016-06-10T12:33:47Z</time>
      </trkpt>
      <trkpt lat="46.61414" lon="5.86882">
        <ele>709.59</ele>
        <time>2016-06-10T12:33:59Z</time>
      </trkpt>
      <trkpt lat="46.61407" lon="5.8687">
        <ele>712.95</ele>
        <time>2016-06-10T12:34:11Z</time>
      </trkpt>
      <trkpt lat="46.61402" lon="5.86871">
        <ele>711.99</ele>
        <time>2016-06-10T12:34:16Z</time>
      </trkpt>
      <trkpt lat="46.61392" lon="5.86875">
        <ele>711.03</ele>
        <time>2016-06-10T12:34:30Z</time>
      </trkpt>
      <trkpt lat="46.61389" lon="5.86877">
        <ele>711.03</ele>
        <time>2016-06-10T12:34:43Z</time>
      </trkpt>
      <trkpt lat="46.61385" lon="5.86882">
        <ele>711.51</ele>
        <time>2016-06-10T12:34:58Z</time>
      </trkpt>
      <trkpt lat="46.61379" lon="5.86897">
        <ele>711.03</ele>
        <time>2016-06-10T12:35:11Z</time>
      </trkpt>
      <trkpt lat="46.61375" lon="5.86905">
        <ele>711.51</ele>
        <time>2016-06-10T12:35:23Z</time>
      </trkpt>
      <trkpt lat="46.61366" lon="5.86914">
        <ele>711.99</ele>
        <time>2016-06-10T12:35:35Z</time>
      </trkpt>
      <trkpt lat="46.61359" lon="5.86927">
        <ele>712.95</ele>
        <time>2016-06-10T12:35:43Z</time>
      </trkpt>
      <trkpt lat="46.61351" lon="5.86943">
        <ele>711.51</ele>
        <time>2016-06-10T12:35:54Z</time>
      </trkpt>
      <trkpt lat="46.61352" lon="5.86956">
        <ele>713.44</ele>
        <time>2016-06-10T12:36:05Z</time>
      </trkpt>
      <trkpt lat="46.61352" lon="5.8697">
        <ele>714.4</ele>
        <time>2016-06-10T12:36:17Z</time>
      </trkpt>
      <trkpt lat="46.61352" lon="5.86983">
        <ele>711.99</ele>
        <time>2016-06-10T12:36:30Z</time>
      </trkpt>
      <trkpt lat="46.61351" lon="5.86997">
        <ele>713.44</ele>
        <time>2016-06-10T12:36:40Z</time>
      </trkpt>
      <trkpt lat="46.61342" lon="5.8702">
        <ele>711.51</ele>
        <time>2016-06-10T12:36:52Z</time>
      </trkpt>
      <trkpt lat="46.61342" lon="5.87036">
        <ele>711.99</ele>
        <time>2016-06-10T12:37:03Z</time>
      </trkpt>
      <trkpt lat="46.61343" lon="5.87038">
        <ele>712.47</ele>
        <time>2016-06-10T12:37:04Z</time>
      </trkpt>
      <trkpt lat="46.61344" lon="5.87042">
        <ele>713.44</ele>
        <time>2016-06-10T12:37:06Z</time>
      </trkpt>
      <trkpt lat="46.61342" lon="5.87057">
        <ele>713.44</ele>
        <time>2016-06-10T12:37:18Z</time>
      </trkpt>
      <trkpt lat="46.61339" lon="5.87073">
        <ele>713.44</ele>
        <time>2016-06-10T12:37:29Z</time>
      </trkpt>
      <trkpt lat="46.61338" lon="5.87086">
        <ele>717.28</ele>
        <time>2016-06-10T12:37:40Z</time>
      </trkpt>
      <trkpt lat="46.61337" lon="5.87099">
        <ele>716.32</ele>
        <time>2016-06-10T12:37:51Z</time>
      </trkpt>
      <trkpt lat="46.6133" lon="5.87111">
        <ele>711.03</ele>
        <time>2016-06-10T12:38:01Z</time>
      </trkpt>
      <trkpt lat="46.61326" lon="5.87127">
        <ele>708.15</ele>
        <time>2016-06-10T12:38:14Z</time>
      </trkpt>
      <trkpt lat="46.61329" lon="5.87143">
        <ele>710.55</ele>
        <time>2016-06-10T12:38:27Z</time>
      </trkpt>
      <trkpt lat="46.6133" lon="5.87161">
        <ele>712.47</ele>
        <time>2016-06-10T12:38:41Z</time>
      </trkpt>
      <trkpt lat="46.61325" lon="5.87192">
        <ele>716.32</ele>
        <time>2016-06-10T12:38:55Z</time>
      </trkpt>
      <trkpt lat="46.61321" lon="5.87208">
        <ele>714.4</ele>
        <time>2016-06-10T12:39:05Z</time>
      </trkpt>
      <trkpt lat="46.61323" lon="5.87223">
        <ele>712.95</ele>
        <time>2016-06-10T12:39:16Z</time>
      </trkpt>
      <trkpt lat="46.61324" lon="5.87225">
        <ele>713.44</ele>
        <time>2016-06-10T12:39:17Z</time>
      </trkpt>
      <trkpt lat="46.61328" lon="5.87234">
        <ele>713.44</ele>
        <time>2016-06-10T12:39:29Z</time>
      </trkpt>
      <trkpt lat="46.61329" lon="5.87238">
        <ele>712.95</ele>
        <time>2016-06-10T12:39:32Z</time>
      </trkpt>
      <trkpt lat="46.61331" lon="5.87251">
        <ele>713.92</ele>
        <time>2016-06-10T12:39:40Z</time>
      </trkpt>
      <trkpt lat="46.61333" lon="5.87267">
        <ele>710.55</ele>
        <time>2016-06-10T12:39:52Z</time>
      </trkpt>
      <trkpt lat="46.61333" lon="5.87282">
        <ele>707.19</ele>
        <time>2016-06-10T12:40:04Z</time>
      </trkpt>
      <trkpt lat="46.61334" lon="5.87285">
        <ele>707.19</ele>
        <time>2016-06-10T12:40:06Z</time>
      </trkpt>
      <trkpt lat="46.61333" lon="5.87295">
        <ele>706.23</ele>
        <time>2016-06-10T12:40:14Z</time>
      </trkpt>
      <trkpt lat="46.61334" lon="5.87312">
        <ele>706.23</ele>
        <time>2016-06-10T12:40:25Z</time>
      </trkpt>
      <trkpt lat="46.61335" lon="5.87315">
        <ele>707.19</ele>
        <time>2016-06-10T12:40:27Z</time>
      </trkpt>
      <trkpt lat="46.61336" lon="5.87318">
        <ele>707.67</ele>
        <time>2016-06-10T12:40:29Z</time>
      </trkpt>
      <trkpt lat="46.61343" lon="5.8733">
        <ele>709.11</ele>
        <time>2016-06-10T12:40:38Z</time>
      </trkpt>
      <trkpt lat="46.61353" lon="5.87349">
        <ele>711.99</ele>
        <time>2016-06-10T12:40:52Z</time>
      </trkpt>
      <trkpt lat="46.61359" lon="5.87359">
        <ele>712.95</ele>
        <time>2016-06-10T12:41:01Z</time>
      </trkpt>
      <trkpt lat="46.61362" lon="5.87365">
        <ele>712.95</ele>
        <time>2016-06-10T12:41:07Z</time>
      </trkpt>
      <trkpt lat="46.61371" lon="5.87379">
        <ele>713.92</ele>
        <time>2016-06-10T12:41:21Z</time>
      </trkpt>
      <trkpt lat="46.61371" lon="5.8738">
        <ele>713.92</ele>
        <time>2016-06-10T12:41:22Z</time>
      </trkpt>
      <trkpt lat="46.61372" lon="5.87385">
        <ele>714.4</ele>
        <time>2016-06-10T12:41:25Z</time>
      </trkpt>
      <trkpt lat="46.61375" lon="5.87396">
        <ele>713.44</ele>
        <time>2016-06-10T12:41:33Z</time>
      </trkpt>
      <trkpt lat="46.61374" lon="5.87405">
        <ele>709.59</ele>
        <time>2016-06-10T12:41:47Z</time>
      </trkpt>
      <trkpt lat="46.61372" lon="5.87407">
        <ele>708.15</ele>
        <time>2016-06-10T12:41:51Z</time>
      </trkpt>
      <trkpt lat="46.61364" lon="5.87414">
        <ele>704.78</ele>
        <time>2016-06-10T12:42:01Z</time>
      </trkpt>
      <trkpt lat="46.61361" lon="5.87425">
        <ele>706.71</ele>
        <time>2016-06-10T12:42:10Z</time>
      </trkpt>
      <trkpt lat="46.61352" lon="5.87437">
        <ele>707.19</ele>
        <time>2016-06-10T12:42:21Z</time>
      </trkpt>
      <trkpt lat="46.61349" lon="5.87445">
        <ele>707.67</ele>
        <time>2016-06-10T12:42:32Z</time>
      </trkpt>
      <trkpt lat="46.61347" lon="5.87452">
        <ele>706.71</ele>
        <time>2016-06-10T12:42:43Z</time>
      </trkpt>
      <trkpt lat="46.61343" lon="5.87463">
        <ele>704.3</ele>
        <time>2016-06-10T12:42:56Z</time>
      </trkpt>
      <trkpt lat="46.61346" lon="5.87468">
        <ele>704.78</ele>
        <time>2016-06-10T12:43:10Z</time>
      </trkpt>
      <trkpt lat="46.61344" lon="5.87471">
        <ele>703.34</ele>
        <time>2016-06-10T12:43:30Z</time>
      </trkpt>
      <trkpt lat="46.61341" lon="5.87475">
        <ele>706.71</ele>
        <time>2016-06-10T12:43:44Z</time>
      </trkpt>
      <trkpt lat="46.61338" lon="5.87478">
        <ele>709.59</ele>
        <time>2016-06-10T12:43:59Z</time>
      </trkpt>
      <trkpt lat="46.6133" lon="5.87485">
        <ele>710.07</ele>
        <time>2016-06-10T12:44:09Z</time>
      </trkpt>
      <trkpt lat="46.61321" lon="5.87493">
        <ele>709.59</ele>
        <time>2016-06-10T12:44:19Z</time>
      </trkpt>
      <trkpt lat="46.61315" lon="5.87495">
        <ele>707.67</ele>
        <time>2016-06-10T12:44:28Z</time>
      </trkpt>
      <trkpt lat="46.61315" lon="5.87497">
        <ele>709.59</ele>
        <time>2016-06-10T12:44:36Z</time>
      </trkpt>
      <trkpt lat="46.6131" lon="5.87503">
        <ele>711.03</ele>
        <time>2016-06-10T12:44:51Z</time>
      </trkpt>
      <trkpt lat="46.61301" lon="5.87518">
        <ele>709.59</ele>
        <time>2016-06-10T12:45:04Z</time>
      </trkpt>
      <trkpt lat="46.613" lon="5.87519">
        <ele>710.07</ele>
        <time>2016-06-10T12:45:05Z</time>
      </trkpt>
      <trkpt lat="46.61298" lon="5.87533">
        <ele>712.47</ele>
        <time>2016-06-10T12:45:14Z</time>
      </trkpt>
      <trkpt lat="46.61298" lon="5.87536">
        <ele>713.44</ele>
        <time>2016-06-10T12:45:17Z</time>
      </trkpt>
      <trkpt lat="46.61291" lon="5.87551">
        <ele>714.4</ele>
        <time>2016-06-10T12:45:29Z</time>
      </trkpt>
      <trkpt lat="46.61283" lon="5.87564">
        <ele>713.44</ele>
        <time>2016-06-10T12:45:40Z</time>
      </trkpt>
      <trkpt lat="46.61276" lon="5.87581">
        <ele>713.92</ele>
        <time>2016-06-10T12:45:51Z</time>
      </trkpt>
      <trkpt lat="46.61273" lon="5.87596">
        <ele>713.92</ele>
        <time>2016-06-10T12:46:03Z</time>
      </trkpt>
      <trkpt lat="46.61271" lon="5.87606">
        <ele>715.84</ele>
        <time>2016-06-10T12:46:10Z</time>
      </trkpt>
      <trkpt lat="46.61268" lon="5.87618">
        <ele>715.84</ele>
        <time>2016-06-10T12:46:21Z</time>
      </trkpt>
      <trkpt lat="46.61267" lon="5.87626">
        <ele>717.76</ele>
        <time>2016-06-10T12:46:26Z</time>
      </trkpt>
      <trkpt lat="46.61266" lon="5.8764">
        <ele>716.32</ele>
        <time>2016-06-10T12:46:36Z</time>
      </trkpt>
      <trkpt lat="46.61264" lon="5.87652">
        <ele>714.4</ele>
        <time>2016-06-10T12:46:48Z</time>
      </trkpt>
      <trkpt lat="46.61259" lon="5.87659">
        <ele>711.51</ele>
        <time>2016-06-10T12:46:55Z</time>
      </trkpt>
      <trkpt lat="46.61249" lon="5.87681">
        <ele>709.59</ele>
        <time>2016-06-10T12:47:10Z</time>
      </trkpt>
      <trkpt lat="46.61243" lon="5.87695">
        <ele>707.67</ele>
        <time>2016-06-10T12:47:20Z</time>
      </trkpt>
      <trkpt lat="46.6124" lon="5.8771">
        <ele>707.19</ele>
        <time>2016-06-10T12:47:31Z</time>
      </trkpt>
      <trkpt lat="46.6124" lon="5.87712">
        <ele>707.67</ele>
        <time>2016-06-10T12:47:32Z</time>
      </trkpt>
      <trkpt lat="46.61241" lon="5.87728">
        <ele>707.67</ele>
        <time>2016-06-10T12:47:47Z</time>
      </trkpt>
      <trkpt lat="46.61239" lon="5.87738">
        <ele>709.59</ele>
        <time>2016-06-10T12:47:58Z</time>
      </trkpt>
      <trkpt lat="46.61227" lon="5.87751">
        <ele>711.03</ele>
        <time>2016-06-10T12:48:08Z</time>
      </trkpt>
      <trkpt lat="46.61223" lon="5.87761">
        <ele>711.51</ele>
        <time>2016-06-10T12:48:13Z</time>
      </trkpt>
      <trkpt lat="46.61218" lon="5.87781">
        <ele>713.44</ele>
        <time>2016-06-10T12:48:26Z</time>
      </trkpt>
      <trkpt lat="46.6122" lon="5.87788">
        <ele>713.92</ele>
        <time>2016-06-10T12:48:31Z</time>
      </trkpt>
      <trkpt lat="46.6122" lon="5.87792">
        <ele>714.4</ele>
        <time>2016-06-10T12:48:35Z</time>
      </trkpt>
      <trkpt lat="46.61217" lon="5.8781">
        <ele>717.76</ele>
        <time>2016-06-10T12:48:46Z</time>
      </trkpt>
      <trkpt lat="46.61217" lon="5.87824">
        <ele>721.13</ele>
        <time>2016-06-10T12:48:56Z</time>
      </trkpt>
      <trkpt lat="46.61214" lon="5.87831">
        <ele>719.68</ele>
        <time>2016-06-10T12:49:02Z</time>
      </trkpt>
      <trkpt lat="46.61215" lon="5.87846">
        <ele>721.61</ele>
        <time>2016-06-10T12:49:17Z</time>
      </trkpt>
      <trkpt lat="46.61217" lon="5.87849">
        <ele>722.09</ele>
        <time>2016-06-10T12:49:20Z</time>
      </trkpt>
      <trkpt lat="46.61204" lon="5.87864">
        <ele>723.05</ele>
        <time>2016-06-10T12:49:33Z</time>
      </trkpt>
      <trkpt lat="46.61196" lon="5.87877">
        <ele>724.49</ele>
        <time>2016-06-10T12:49:46Z</time>
      </trkpt>
      <trkpt lat="46.61193" lon="5.87887">
        <ele>718.72</ele>
        <time>2016-06-10T12:49:58Z</time>
      </trkpt>
      <trkpt lat="46.61189" lon="5.87895">
        <ele>716.8</ele>
        <time>2016-06-10T12:50:09Z</time>
      </trkpt>
      <trkpt lat="46.61188" lon="5.87901">
        <ele>714.88</ele>
        <time>2016-06-10T12:50:19Z</time>
      </trkpt>
      <trkpt lat="46.61182" lon="5.87902">
        <ele>711.99</ele>
        <time>2016-06-10T12:50:31Z</time>
      </trkpt>
      <trkpt lat="46.61176" lon="5.87906">
        <ele>711.51</ele>
        <time>2016-06-10T12:50:43Z</time>
      </trkpt>
      <trkpt lat="46.61161" lon="5.87912">
        <ele>713.44</ele>
        <time>2016-06-10T12:50:58Z</time>
      </trkpt>
      <trkpt lat="46.61159" lon="5.87915">
        <ele>714.88</ele>
        <time>2016-06-10T12:51:01Z</time>
      </trkpt>
      <trkpt lat="46.61152" lon="5.87928">
        <ele>719.68</ele>
        <time>2016-06-10T12:51:13Z</time>
      </trkpt>
      <trkpt lat="46.61141" lon="5.87948">
        <ele>723.05</ele>
        <time>2016-06-10T12:51:28Z</time>
      </trkpt>
      <trkpt lat="46.61136" lon="5.87958">
        <ele>720.65</ele>
        <time>2016-06-10T12:51:38Z</time>
      </trkpt>
      <trkpt lat="46.61133" lon="5.87973">
        <ele>721.13</ele>
        <time>2016-06-10T12:51:50Z</time>
      </trkpt>
      <trkpt lat="46.61133" lon="5.8798">
        <ele>721.13</ele>
        <time>2016-06-10T12:51:56Z</time>
      </trkpt>
      <trkpt lat="46.61126" lon="5.87994">
        <ele>719.68</ele>
        <time>2016-06-10T12:52:08Z</time>
      </trkpt>
      <trkpt lat="46.61124" lon="5.88001">
        <ele>720.16</ele>
        <time>2016-06-10T12:52:19Z</time>
      </trkpt>
      <trkpt lat="46.61125" lon="5.88003">
        <ele>720.16</ele>
        <time>2016-06-10T12:52:20Z</time>
      </trkpt>
      <trkpt lat="46.61123" lon="5.88014">
        <ele>720.16</ele>
        <time>2016-06-10T12:52:27Z</time>
      </trkpt>
      <trkpt lat="46.61114" lon="5.88032">
        <ele>724.01</ele>
        <time>2016-06-10T12:52:39Z</time>
      </trkpt>
      <trkpt lat="46.6111" lon="5.88036">
        <ele>724.49</ele>
        <time>2016-06-10T12:52:41Z</time>
      </trkpt>
      <trkpt lat="46.61105" lon="5.88047">
        <ele>725.45</ele>
        <time>2016-06-10T12:52:46Z</time>
      </trkpt>
      <trkpt lat="46.61098" lon="5.88061">
        <ele>727.37</ele>
        <time>2016-06-10T12:52:58Z</time>
      </trkpt>
      <trkpt lat="46.61095" lon="5.88065">
        <ele>727.37</ele>
        <time>2016-06-10T12:53:09Z</time>
      </trkpt>
      <trkpt lat="46.61091" lon="5.88069">
        <ele>726.89</ele>
        <time>2016-06-10T12:53:15Z</time>
      </trkpt>
      <trkpt lat="46.61082" lon="5.88084">
        <ele>724.49</ele>
        <time>2016-06-10T12:53:26Z</time>
      </trkpt>
      <trkpt lat="46.61077" lon="5.88093">
        <ele>720.16</ele>
        <time>2016-06-10T12:53:38Z</time>
      </trkpt>
      <trkpt lat="46.61073" lon="5.88096">
        <ele>718.24</ele>
        <time>2016-06-10T12:53:49Z</time>
      </trkpt>
      <trkpt lat="46.61065" lon="5.88096">
        <ele>714.4</ele>
        <time>2016-06-10T12:54:14Z</time>
      </trkpt>
      <trkpt lat="46.61064" lon="5.88104">
        <ele>716.32</ele>
        <time>2016-06-10T12:54:35Z</time>
      </trkpt>
      <trkpt lat="46.61063" lon="5.88107">
        <ele>715.36</ele>
        <time>2016-06-10T12:54:42Z</time>
      </trkpt>
      <trkpt lat="46.61048" lon="5.88108">
        <ele>710.55</ele>
        <time>2016-06-10T12:54:54Z</time>
      </trkpt>
      <trkpt lat="46.61042" lon="5.88108">
        <ele>707.19</ele>
        <time>2016-06-10T12:55:06Z</time>
      </trkpt>
      <trkpt lat="46.61041" lon="5.88106">
        <ele>708.15</ele>
        <time>2016-06-10T12:55:16Z</time>
      </trkpt>
      <trkpt lat="46.61041" lon="5.88099">
        <ele>709.11</ele>
        <time>2016-06-10T12:55:27Z</time>
      </trkpt>
      <trkpt lat="46.6104" lon="5.88097">
        <ele>708.15</ele>
        <time>2016-06-10T12:55:44Z</time>
      </trkpt>
      <trkpt lat="46.61037" lon="5.88093">
        <ele>711.03</ele>
        <time>2016-06-10T12:56:01Z</time>
      </trkpt>
      <trkpt lat="46.61041" lon="5.88096">
        <ele>714.4</ele>
        <time>2016-06-10T12:56:17Z</time>
      </trkpt>
      <trkpt lat="46.61042" lon="5.88098">
        <ele>718.72</ele>
        <time>2016-06-10T12:56:32Z</time>
      </trkpt>
      <trkpt lat="46.61042" lon="5.88097">
        <ele>720.16</ele>
        <time>2016-06-10T12:56:48Z</time>
      </trkpt>
      <trkpt lat="46.61043" lon="5.88095">
        <ele>719.68</ele>
        <time>2016-06-10T12:57:04Z</time>
      </trkpt>
      <trkpt lat="46.61041" lon="5.88094">
        <ele>719.68</ele>
        <time>2016-06-10T12:57:25Z</time>
      </trkpt>
      <trkpt lat="46.61042" lon="5.88093">
        <ele>722.09</ele>
        <time>2016-06-10T12:57:53Z</time>
      </trkpt>
      <trkpt lat="46.61044" lon="5.88096">
        <ele>723.05</ele>
        <time>2016-06-10T12:58:14Z</time>
      </trkpt>
      <trkpt lat="46.61051" lon="5.88096">
        <ele>727.37</ele>
        <time>2016-06-10T12:58:27Z</time>
      </trkpt>
      <trkpt lat="46.61051" lon="5.88097">
        <ele>728.34</ele>
        <time>2016-06-10T12:58:45Z</time>
      </trkpt>
      <trkpt lat="46.61051" lon="5.881">
        <ele>728.82</ele>
        <time>2016-06-10T12:58:56Z</time>
      </trkpt>
      <trkpt lat="46.61048" lon="5.88097">
        <ele>729.78</ele>
        <time>2016-06-10T12:59:11Z</time>
      </trkpt>
      <trkpt lat="46.61041" lon="5.88093">
        <ele>731.7</ele>
        <time>2016-06-10T12:59:30Z</time>
      </trkpt>
      <trkpt lat="46.61041" lon="5.88091">
        <ele>734.58</ele>
        <time>2016-06-10T13:00:02Z</time>
      </trkpt>
      <trkpt lat="46.61042" lon="5.88091">
        <ele>734.58</ele>
        <time>2016-06-10T13:00:27Z</time>
      </trkpt>
      <trkpt lat="46.61043" lon="5.8809">
        <ele>734.58</ele>
        <time>2016-06-10T13:00:54Z</time>
      </trkpt>
      <trkpt lat="46.61044" lon="5.88091">
        <ele>735.55</ele>
        <time>2016-06-10T13:01:28Z</time>
      </trkpt>
      <trkpt lat="46.61043" lon="5.88088">
        <ele>737.47</ele>
        <time>2016-06-10T13:02:00Z</time>
      </trkpt>
      <trkpt lat="46.6104" lon="5.88083">
        <ele>738.43</ele>
        <time>2016-06-10T13:02:28Z</time>
      </trkpt>
      <trkpt lat="46.61037" lon="5.88079">
        <ele>738.43</ele>
        <time>2016-06-10T13:02:56Z</time>
      </trkpt>
      <trkpt lat="46.61039" lon="5.88081">
        <ele>738.43</ele>
        <time>2016-06-10T13:03:18Z</time>
      </trkpt>
      <trkpt lat="46.61045" lon="5.88085">
        <ele>738.43</ele>
        <time>2016-06-10T13:03:45Z</time>
      </trkpt>
      <trkpt lat="46.61048" lon="5.88088">
        <ele>739.39</ele>
        <time>2016-06-10T13:04:13Z</time>
      </trkpt>
      <trkpt lat="46.61052" lon="5.88089">
        <ele>739.39</ele>
        <time>2016-06-10T13:04:43Z</time>
      </trkpt>
      <trkpt lat="46.61054" lon="5.88091">
        <ele>739.87</ele>
        <time>2016-06-10T13:05:11Z</time>
      </trkpt>
      <trkpt lat="46.61055" lon="5.88091">
        <ele>740.83</ele>
        <time>2016-06-10T13:05:33Z</time>
      </trkpt>
      <trkpt lat="46.61055" lon="5.88091">
        <ele>741.31</ele>
        <time>2016-06-10T13:05:59Z</time>
      </trkpt>
      <trkpt lat="46.61054" lon="5.8809">
        <ele>741.79</ele>
        <time>2016-06-10T13:06:18Z</time>
      </trkpt>
      <trkpt lat="46.61053" lon="5.88091">
        <ele>741.79</ele>
        <time>2016-06-10T13:06:43Z</time>
      </trkpt>
      <trkpt lat="46.61053" lon="5.88088">
        <ele>742.28</ele>
        <time>2016-06-10T13:06:57Z</time>
      </trkpt>
      <trkpt lat="46.61061" lon="5.88096">
        <ele>743.24</ele>
        <time>2016-06-10T13:07:14Z</time>
      </trkpt>
      <trkpt lat="46.61062" lon="5.88102">
        <ele>743.72</ele>
        <time>2016-06-10T13:07:37Z</time>
      </trkpt>
      <trkpt lat="46.61066" lon="5.88102">
        <ele>743.24</ele>
        <time>2016-06-10T13:08:06Z</time>
      </trkpt>
      <trkpt lat="46.61064" lon="5.88101">
        <ele>743.24</ele>
        <time>2016-06-10T13:08:25Z</time>
      </trkpt>
      <trkpt lat="46.61066" lon="5.88101">
        <ele>745.16</ele>
        <time>2016-06-10T13:08:45Z</time>
      </trkpt>
      <trkpt lat="46.61066" lon="5.881">
        <ele>745.64</ele>
        <time>2016-06-10T13:09:04Z</time>
      </trkpt>
      <trkpt lat="46.61067" lon="5.88101">
        <ele>745.64</ele>
        <time>2016-06-10T13:09:19Z</time>
      </trkpt>
      <trkpt lat="46.61064" lon="5.88102">
        <ele>745.16</ele>
        <time>2016-06-10T13:09:32Z</time>
      </trkpt>
      <trkpt lat="46.61064" lon="5.88103">
        <ele>745.64</ele>
        <time>2016-06-10T13:09:57Z</time>
      </trkpt>
      <trkpt lat="46.61065" lon="5.88103">
        <ele>745.16</ele>
        <time>2016-06-10T13:10:23Z</time>
      </trkpt>
      <trkpt lat="46.61065" lon="5.88104">
        <ele>745.64</ele>
        <time>2016-06-10T13:10:37Z</time>
      </trkpt>
      <trkpt lat="46.61064" lon="5.88106">
        <ele>747.08</ele>
        <time>2016-06-10T13:10:55Z</time>
      </trkpt>
      <trkpt lat="46.61064" lon="5.88106">
        <ele>747.56</ele>
        <time>2016-06-10T13:11:08Z</time>
      </trkpt>
      <trkpt lat="46.61063" lon="5.88107">
        <ele>748.52</ele>
        <time>2016-06-10T13:11:31Z</time>
      </trkpt>
      <trkpt lat="46.61063" lon="5.88108">
        <ele>748.52</ele>
        <time>2016-06-10T13:11:46Z</time>
      </trkpt>
      <trkpt lat="46.61062" lon="5.88109">
        <ele>748.52</ele>
        <time>2016-06-10T13:12:05Z</time>
      </trkpt>
      <trkpt lat="46.61063" lon="5.88106">
        <ele>748.52</ele>
        <time>2016-06-10T13:12:21Z</time>
      </trkpt>
      <trkpt lat="46.61065" lon="5.88104">
        <ele>747.56</ele>
        <time>2016-06-10T13:12:37Z</time>
      </trkpt>
      <trkpt lat="46.61066" lon="5.88103">
        <ele>747.56</ele>
        <time>2016-06-10T13:13:00Z</time>
      </trkpt>
      <trkpt lat="46.61066" lon="5.88104">
        <ele>746.6</ele>
        <time>2016-06-10T13:13:11Z</time>
      </trkpt>
      <trkpt lat="46.61069" lon="5.88115">
        <ele>747.56</ele>
        <time>2016-06-10T13:13:23Z</time>
      </trkpt>
      <trkpt lat="46.61074" lon="5.88119">
        <ele>746.6</ele>
        <time>2016-06-10T13:13:35Z</time>
      </trkpt>
      <trkpt lat="46.61079" lon="5.88121">
        <ele>744.2</ele>
        <time>2016-06-10T13:13:46Z</time>
      </trkpt>
      <trkpt lat="46.61082" lon="5.88124">
        <ele>742.28</ele>
        <time>2016-06-10T13:13:52Z</time>
      </trkpt>
      <trkpt lat="46.61086" lon="5.88137">
        <ele>739.87</ele>
        <time>2016-06-10T13:14:03Z</time>
      </trkpt>
      <trkpt lat="46.61091" lon="5.8815">
        <ele>738.43</ele>
        <time>2016-06-10T13:14:16Z</time>
      </trkpt>
      <trkpt lat="46.61096" lon="5.88158">
        <ele>738.43</ele>
        <time>2016-06-10T13:14:29Z</time>
      </trkpt>
      <trkpt lat="46.61097" lon="5.88164">
        <ele>738.43</ele>
        <time>2016-06-10T13:14:43Z</time>
      </trkpt>
      <trkpt lat="46.61096" lon="5.88167">
        <ele>738.91</ele>
        <time>2016-06-10T13:14:55Z</time>
      </trkpt>
      <trkpt lat="46.61101" lon="5.88173">
        <ele>737.95</ele>
        <time>2016-06-10T13:15:01Z</time>
      </trkpt>
      <trkpt lat="46.6111" lon="5.88187">
        <ele>736.51</ele>
        <time>2016-06-10T13:15:11Z</time>
      </trkpt>
      <trkpt lat="46.61121" lon="5.88197">
        <ele>734.1</ele>
        <time>2016-06-10T13:15:24Z</time>
      </trkpt>
      <trkpt lat="46.61128" lon="5.88204">
        <ele>732.18</ele>
        <time>2016-06-10T13:15:35Z</time>
      </trkpt>
      <trkpt lat="46.61138" lon="5.88215">
        <ele>731.7</ele>
        <time>2016-06-10T13:15:47Z</time>
      </trkpt>
      <trkpt lat="46.61147" lon="5.88224">
        <ele>729.78</ele>
        <time>2016-06-10T13:15:59Z</time>
      </trkpt>
      <trkpt lat="46.61151" lon="5.88237">
        <ele>727.37</ele>
        <time>2016-06-10T13:16:11Z</time>
      </trkpt>
      <trkpt lat="46.61155" lon="5.88251">
        <ele>727.37</ele>
        <time>2016-06-10T13:16:20Z</time>
      </trkpt>
      <trkpt lat="46.61157" lon="5.88257">
        <ele>727.37</ele>
        <time>2016-06-10T13:16:24Z</time>
      </trkpt>
      <trkpt lat="46.61158" lon="5.88264">
        <ele>727.86</ele>
        <time>2016-06-10T13:16:28Z</time>
      </trkpt>
      <trkpt lat="46.6116" lon="5.88267">
        <ele>728.34</ele>
        <time>2016-06-10T13:16:30Z</time>
      </trkpt>
      <trkpt lat="46.61163" lon="5.88284">
        <ele>728.82</ele>
        <time>2016-06-10T13:16:42Z</time>
      </trkpt>
      <trkpt lat="46.61162" lon="5.88296">
        <ele>729.78</ele>
        <time>2016-06-10T13:16:51Z</time>
      </trkpt>
      <trkpt lat="46.61159" lon="5.88315">
        <ele>734.1</ele>
        <time>2016-06-10T13:17:04Z</time>
      </trkpt>
      <trkpt lat="46.61159" lon="5.88323">
        <ele>736.99</ele>
        <time>2016-06-10T13:17:16Z</time>
      </trkpt>
      <trkpt lat="46.61159" lon="5.88322">
        <ele>736.99</ele>
        <time>2016-06-10T13:17:31Z</time>
      </trkpt>
      <trkpt lat="46.61158" lon="5.88323">
        <ele>737.47</ele>
        <time>2016-06-10T13:17:44Z</time>
      </trkpt>
      <trkpt lat="46.61158" lon="5.88325">
        <ele>738.43</ele>
        <time>2016-06-10T13:17:53Z</time>
      </trkpt>
      <trkpt lat="46.61167" lon="5.88337">
        <ele>737.95</ele>
        <time>2016-06-10T13:18:07Z</time>
      </trkpt>
      <trkpt lat="46.61174" lon="5.8835">
        <ele>737.47</ele>
        <time>2016-06-10T13:18:21Z</time>
      </trkpt>
      <trkpt lat="46.61173" lon="5.8836">
        <ele>736.99</ele>
        <time>2016-06-10T13:18:32Z</time>
      </trkpt>
      <trkpt lat="46.61173" lon="5.88363">
        <ele>736.51</ele>
        <time>2016-06-10T13:18:34Z</time>
      </trkpt>
      <trkpt lat="46.6117" lon="5.88378">
        <ele>733.62</ele>
        <time>2016-06-10T13:18:47Z</time>
      </trkpt>
      <trkpt lat="46.61166" lon="5.88387">
        <ele>730.74</ele>
        <time>2016-06-10T13:18:59Z</time>
      </trkpt>
      <trkpt lat="46.61159" lon="5.88398">
        <ele>723.53</ele>
        <time>2016-06-10T13:19:09Z</time>
      </trkpt>
      <trkpt lat="46.61154" lon="5.88399">
        <ele>721.13</ele>
        <time>2016-06-10T13:19:14Z</time>
      </trkpt>
      <trkpt lat="46.61158" lon="5.88399">
        <ele>720.16</ele>
        <time>2016-06-10T13:19:23Z</time>
      </trkpt>
      <trkpt lat="46.61163" lon="5.88398">
        <ele>722.09</ele>
        <time>2016-06-10T13:19:29Z</time>
      </trkpt>
      <trkpt lat="46.61163" lon="5.88395">
        <ele>722.09</ele>
        <time>2016-06-10T13:19:46Z</time>
      </trkpt>
      <trkpt lat="46.61175" lon="5.88398">
        <ele>726.41</ele>
        <time>2016-06-10T13:19:55Z</time>
      </trkpt>
      <trkpt lat="46.61172" lon="5.88393">
        <ele>729.78</ele>
        <time>2016-06-10T13:20:08Z</time>
      </trkpt>
      <trkpt lat="46.61169" lon="5.88392">
        <ele>730.74</ele>
        <time>2016-06-10T13:20:34Z</time>
      </trkpt>
      <trkpt lat="46.61178" lon="5.88398">
        <ele>732.66</ele>
        <time>2016-06-10T13:20:52Z</time>
      </trkpt>
      <trkpt lat="46.61178" lon="5.88409">
        <ele>736.51</ele>
        <time>2016-06-10T13:21:17Z</time>
      </trkpt>
      <trkpt lat="46.6118" lon="5.88408">
        <ele>739.39</ele>
        <time>2016-06-10T13:21:39Z</time>
      </trkpt>
      <trkpt lat="46.61182" lon="5.88399">
        <ele>736.03</ele>
        <time>2016-06-10T13:21:51Z</time>
      </trkpt>
      <trkpt lat="46.61184" lon="5.88392">
        <ele>736.51</ele>
        <time>2016-06-10T13:22:00Z</time>
      </trkpt>
      <trkpt lat="46.61184" lon="5.88375">
        <ele>735.55</ele>
        <time>2016-06-10T13:22:15Z</time>
      </trkpt>
      <trkpt lat="46.61184" lon="5.8837">
        <ele>735.55</ele>
        <time>2016-06-10T13:22:27Z</time>
      </trkpt>
      <trkpt lat="46.61184" lon="5.88367">
        <ele>736.51</ele>
        <time>2016-06-10T13:22:42Z</time>
      </trkpt>
      <trkpt lat="46.61184" lon="5.88365">
        <ele>737.47</ele>
        <time>2016-06-10T13:23:09Z</time>
      </trkpt>
      <trkpt lat="46.61185" lon="5.88365">
        <ele>737.95</ele>
        <time>2016-06-10T13:23:34Z</time>
      </trkpt>
      <trkpt lat="46.61185" lon="5.88367">
        <ele>737.47</ele>
        <time>2016-06-10T13:23:52Z</time>
      </trkpt>
      <trkpt lat="46.61185" lon="5.88368">
        <ele>736.51</ele>
        <time>2016-06-10T13:24:24Z</time>
      </trkpt>
      <trkpt lat="46.61184" lon="5.88366">
        <ele>736.51</ele>
        <time>2016-06-10T13:24:35Z</time>
      </trkpt>
      <trkpt lat="46.61183" lon="5.88363">
        <ele>735.07</ele>
        <time>2016-06-10T13:24:41Z</time>
      </trkpt>
      <trkpt lat="46.61189" lon="5.8836">
        <ele>732.66</ele>
        <time>2016-06-10T13:24:54Z</time>
      </trkpt>
      <trkpt lat="46.61197" lon="5.88363">
        <ele>731.22</ele>
        <time>2016-06-10T13:25:04Z</time>
      </trkpt>
      <trkpt lat="46.61212" lon="5.8837">
        <ele>729.78</ele>
        <time>2016-06-10T13:25:19Z</time>
      </trkpt>
      <trkpt lat="46.61217" lon="5.88379">
        <ele>728.34</ele>
        <time>2016-06-10T13:25:31Z</time>
      </trkpt>
      <trkpt lat="46.61223" lon="5.88385">
        <ele>728.82</ele>
        <time>2016-06-10T13:25:44Z</time>
      </trkpt>
      <trkpt lat="46.61231" lon="5.88393">
        <ele>731.7</ele>
        <time>2016-06-10T13:25:59Z</time>
      </trkpt>
      <trkpt lat="46.6124" lon="5.884">
        <ele>730.74</ele>
        <time>2016-06-10T13:26:11Z</time>
      </trkpt>
      <trkpt lat="46.61251" lon="5.88408">
        <ele>731.7</ele>
        <time>2016-06-10T13:26:24Z</time>
      </trkpt>
      <trkpt lat="46.61257" lon="5.88411">
        <ele>734.1</ele>
        <time>2016-06-10T13:26:36Z</time>
      </trkpt>
      <trkpt lat="46.61257" lon="5.88415">
        <ele>734.1</ele>
        <time>2016-06-10T13:26:47Z</time>
      </trkpt>
      <trkpt lat="46.61259" lon="5.88419">
        <ele>733.62</ele>
        <time>2016-06-10T13:27:03Z</time>
      </trkpt>
      <trkpt lat="46.61262" lon="5.88422">
        <ele>732.66</ele>
        <time>2016-06-10T13:27:17Z</time>
      </trkpt>
      <trkpt lat="46.61265" lon="5.88428">
        <ele>732.18</ele>
        <time>2016-06-10T13:27:35Z</time>
      </trkpt>
      <trkpt lat="46.61267" lon="5.88435">
        <ele>731.22</ele>
        <time>2016-06-10T13:27:50Z</time>
      </trkpt>
      <trkpt lat="46.61269" lon="5.8844">
        <ele>732.18</ele>
        <time>2016-06-10T13:28:04Z</time>
      </trkpt>
      <trkpt lat="46.61271" lon="5.88444">
        <ele>732.66</ele>
        <time>2016-06-10T13:28:17Z</time>
      </trkpt>
      <trkpt lat="46.61271" lon="5.88444">
        <ele>732.18</ele>
        <time>2016-06-10T13:28:18Z</time>
      </trkpt>
      <trkpt lat="46.61262" lon="5.88449">
        <ele>724.97</ele>
        <time>2016-06-10T13:28:35Z</time>
      </trkpt>
      <trkpt lat="46.61279" lon="5.88457">
        <ele>724.97</ele>
        <time>2016-06-10T13:28:45Z</time>
      </trkpt>
      <trkpt lat="46.61297" lon="5.88461">
        <ele>725.45</ele>
        <time>2016-06-10T13:28:57Z</time>
      </trkpt>
      <trkpt lat="46.61307" lon="5.88468">
        <ele>727.37</ele>
        <time>2016-06-10T13:29:07Z</time>
      </trkpt>
      <trkpt lat="46.61337" lon="5.88483">
        <ele>731.7</ele>
        <time>2016-06-10T13:29:19Z</time>
      </trkpt>
      <trkpt lat="46.61355" lon="5.88493">
        <ele>732.66</ele>
        <time>2016-06-10T13:29:33Z</time>
      </trkpt>
      <trkpt lat="46.61364" lon="5.88498">
        <ele>730.74</ele>
        <time>2016-06-10T13:29:44Z</time>
      </trkpt>
      <trkpt lat="46.61377" lon="5.88509">
        <ele>735.55</ele>
        <time>2016-06-10T13:29:59Z</time>
      </trkpt>
      <trkpt lat="46.6139" lon="5.88517">
        <ele>739.87</ele>
        <time>2016-06-10T13:30:13Z</time>
      </trkpt>
      <trkpt lat="46.61399" lon="5.88529">
        <ele>748.52</ele>
        <time>2016-06-10T13:30:27Z</time>
      </trkpt>
      <trkpt lat="46.61403" lon="5.88532">
        <ele>749.49</ele>
        <time>2016-06-10T13:30:40Z</time>
      </trkpt>
      <trkpt lat="46.61405" lon="5.88533">
        <ele>750.45</ele>
        <time>2016-06-10T13:30:54Z</time>
      </trkpt>
      <trkpt lat="46.61416" lon="5.88532">
        <ele>752.37</ele>
        <time>2016-06-10T13:31:10Z</time>
      </trkpt>
      <trkpt lat="46.6143" lon="5.88534">
        <ele>753.81</ele>
        <time>2016-06-10T13:31:25Z</time>
      </trkpt>
      <trkpt lat="46.61448" lon="5.88538">
        <ele>755.25</ele>
        <time>2016-06-10T13:31:41Z</time>
      </trkpt>
      <trkpt lat="46.61455" lon="5.88544">
        <ele>755.25</ele>
        <time>2016-06-10T13:31:52Z</time>
      </trkpt>
      <trkpt lat="46.61463" lon="5.88549">
        <ele>757.66</ele>
        <time>2016-06-10T13:32:07Z</time>
      </trkpt>
      <trkpt lat="46.61475" lon="5.88556">
        <ele>761.5</ele>
        <time>2016-06-10T13:32:22Z</time>
      </trkpt>
      <trkpt lat="46.61481" lon="5.88563">
        <ele>769.19</ele>
        <time>2016-06-10T13:32:34Z</time>
      </trkpt>
      <trkpt lat="46.61483" lon="5.88564">
        <ele>770.63</ele>
        <time>2016-06-10T13:32:47Z</time>
      </trkpt>
      <trkpt lat="46.61491" lon="5.88566">
        <ele>772.56</ele>
        <time>2016-06-10T13:33:00Z</time>
      </trkpt>
      <trkpt lat="46.6149" lon="5.88568">
        <ele>774.48</ele>
        <time>2016-06-10T13:33:18Z</time>
      </trkpt>
      <trkpt lat="46.61489" lon="5.88566">
        <ele>774</ele>
        <time>2016-06-10T13:33:36Z</time>
      </trkpt>
      <trkpt lat="46.61489" lon="5.88566">
        <ele>774.96</ele>
        <time>2016-06-10T13:33:53Z</time>
      </trkpt>
      <trkpt lat="46.61489" lon="5.88566">
        <ele>774.96</ele>
        <time>2016-06-10T13:33:54Z</time>
      </trkpt>
      <trkpt lat="46.61481" lon="5.88579">
        <ele>773.52</ele>
        <time>2016-06-10T13:34:07Z</time>
      </trkpt>
      <trkpt lat="46.61473" lon="5.88595">
        <ele>773.52</ele>
        <time>2016-06-10T13:34:21Z</time>
      </trkpt>
      <trkpt lat="46.61469" lon="5.88614">
        <ele>774</ele>
        <time>2016-06-10T13:34:35Z</time>
      </trkpt>
      <trkpt lat="46.61466" lon="5.8863">
        <ele>774.48</ele>
        <time>2016-06-10T13:34:49Z</time>
      </trkpt>
      <trkpt lat="46.61466" lon="5.88637">
        <ele>775.44</ele>
        <time>2016-06-10T13:34:55Z</time>
      </trkpt>
      <trkpt lat="46.61475" lon="5.88657">
        <ele>775.92</ele>
        <time>2016-06-10T13:35:12Z</time>
      </trkpt>
      <trkpt lat="46.61486" lon="5.8862">
        <ele>773.04</ele>
        <time>2016-06-10T13:37:43Z</time>
      </trkpt>
      <trkpt lat="46.61493" lon="5.88643">
        <ele>774.96</ele>
        <time>2016-06-10T13:38:07Z</time>
      </trkpt>
      <trkpt lat="46.61504" lon="5.8866">
        <ele>773.04</ele>
        <time>2016-06-10T13:38:28Z</time>
      </trkpt>
      <trkpt lat="46.61505" lon="5.88661">
        <ele>773.04</ele>
        <time>2016-06-10T13:38:40Z</time>
      </trkpt>
      <trkpt lat="46.61511" lon="5.88638">
        <ele>790.34</ele>
        <time>2016-06-10T13:38:54Z</time>
      </trkpt>
      <trkpt lat="46.61512" lon="5.88641">
        <ele>790.34</ele>
        <time>2016-06-10T13:38:57Z</time>
      </trkpt>
      <trkpt lat="46.6151" lon="5.88656">
        <ele>789.86</ele>
        <time>2016-06-10T13:39:16Z</time>
      </trkpt>
      <trkpt lat="46.61514" lon="5.8867">
        <ele>789.38</ele>
        <time>2016-06-10T13:39:41Z</time>
      </trkpt>
      <trkpt lat="46.61511" lon="5.88647">
        <ele>789.86</ele>
        <time>2016-06-10T13:39:56Z</time>
      </trkpt>
      <trkpt lat="46.6151" lon="5.88646">
        <ele>789.86</ele>
        <time>2016-06-10T13:39:57Z</time>
      </trkpt>
    </trkseg>
  </trk>
</gpx>